[[{"header":{"parameterUnit":"m.s-1","parameterCategory":1,"la1":31.0,"la2":29.5877,"lo1":-88.7671,"lo2":-86.6584,"dy":0.0162,"dx":0.0185,"nx":115,"ny":88,"refTime":"2024-10-15T18:00:00:Z","depth":0,"parameterNumber":2,"parameterNumberName":"U-component_of_WINDS"},"data":[0.0,0.0,0.0,0.0,0.0,0.0,0.0,0.0,0.0,0.0,0.0,0.0,0.0,0.0,0.0,0.0,0.0,0.0,0.0,0.0,0.0,0.0,0.0,0.0,0.0,0.0,0.0,0.0,0.0,0.0,0.0,0.0,0.0,0.0,0.0,0.0,0.0,0.0,0.0,0.0,0.0,0.0,0.0,0.0,0.0,0.0,0.0,0.0,0.0,0.0,0.0,0.0,0.0,0.0,0.0,0.0,0.0,0.0,0.0,0.0,0.0,0.0,0.0,0.0,0.0,0.0,0.0,0.0,0.0,0.0,0.0,0.0,0.0,0.0,0.0,0.0,0.0,0.0,0.0,0.0,0.0,0.0,0.0,0.0,0.0,0.0,0.0,0.0,0.0,0.0,0.0,0.0,0.0,0.0,0.0,0.0,0.0,0.0,0.0,0.0,0.0,0.0,0.0,0.0,0.0,0.0,0.0,0.0,0.0,0.0,0.0,0.0,0.0,0.0,0.0,0.0,0.0,0.0,0.0,0.0,0.0,0.0,0.0,0.0,0.0,0.0,0.0,0.0,0.0,0.0,0.0,0.0,0.0,0.0,0.0,0.0,0.0,0.0,0.0,0.0,0.0,0.0,0.0,0.0,0.0,0.0,0.0,0.0,0.0,0.0,0.0,0.0,0.0,0.0,0.0,0.0,0.0,0.0,0.0,0.0,0.0,0.0,0.0,0.0,0.0,0.0,0.0,0.0,0.0,0.0,0.0,0.0,0.0,0.0,0.0,0.0,0.0,0.0,0.0,0.0,0.0,0.0,0.0,0.0,0.0,0.0,0.0,0.0,0.0,0.0,0.0,0.0,0.0,0.0,0.0,0.0,0.0,0.0,0.0,0.0,0.0,0.0,0.0,0.0,0.0,0.0,0.0,0.0,0.0,0.0,0.0,0.0,0.0,0.0,0.0,0.0,0.0,0.0,0.0,0.0,0.0,0.0,0.0,0.0,0.0,0.0,0.0,0.0,0.0,0.0,0.0,0.0,0.0,0.0,0.0,0.0,0.0,0.0,0.0,0.0,0.0,0.0,0.0,0.0,0.0,0.0,0.0,0.0,0.0,0.0,0.0,0.0,0.0,0.0,0.0,0.0,0.0,0.0,0.0,0.0,0.0,0.0,0.0,0.0,0.0,0.0,0.0,0.0,0.0,0.0,0.0,0.0,0.0,0.0,0.0,0.0,0.0,0.0,0.0,0.0,0.0,0.0,0.0,0.0,0.0,0.0,0.0,0.0,0.0,0.0,0.0,0.0,0.0,0.0,0.0,0.0,0.0,0.0,0.0,0.0,0.0,0.0,0.0,0.0,0.0,0.0,0.0,0.0,0.0,0.0,0.0,0.0,0.0,0.0,0.0,0.0,0.0,0.0,0.0,0.0,0.0,0.0,0.0,0.0,0.0,0.0,0.0,0.0,0.0,0.0,0.0,0.0,0.0,0.0,0.0,0.0,0.0,0.0,0.0,0.0,0.0,0.0,0.0,0.0,0.0,0.0,0.0,0.0,0.0,0.0,0.0,0.0,0.0,0.0,0.0,0.0,0.0,0.0,0.0,0.0,0.0,0.0,0.0,0.0,0.0,0.0,0.0,0.0,0.0,0.0,0.0,0.0,0.0,0.0,0.0,0.0,0.0,0.0,0.0,0.0,0.0,0.0,0.0,0.0,0.0,0.0,0.0,0.0,0.0,0.0,0.0,0.0,0.0,0.0,0.0,0.0,0.0,0.0,0.0,0.0,0.0,0.0,0.0,0.0,0.0,0.0,0.0,0.0,0.0,0.0,0.0,0.0,0.0,0.0,0.0,0.0,0.0,0.0,0.0,0.0,0.0,0.0,0.0,0.0,0.0,0.0,0.0,0.0,0.0,0.0,0.0,0.0,0.0,0.0,0.0,0.0,0.0,0.0,0.0,0.0,0.0,0.0,0.0,0.0,0.0,0.0,0.0,0.0,0.0,0.0,0.0,0.0,0.0,0.0,0.0,0.0,0.0,0.0,0.0,0.0,0.0,0.0,0.0,0.0,0.0,0.0,0.0,0.0,0.0,0.0,0.0,0.0,0.0,0.0,0.0,0.0,0.0,0.0,0.0,0.0,0.0,0.0,0.0,0.0,0.0,0.0,0.0,0.0,0.0,0.0,0.0,0.0,0.0,0.0,0.0,0.0,0.0,0.0,0.0,0.0,0.0,0.0,0.0,0.0,0.0,0.0,0.0,0.0,0.0,0.0,0.0,0.0,0.0,0.0,0.0,0.0,0.0,0.0,0.0,0.0,0.0,0.0,0.0,0.0,0.0,0.0,0.0,0.0,0.0,0.0,0.0,0.0,0.0,0.0,0.0,0.0,0.0,0.0,0.0,0.0,0.0,0.0,0.0,0.0,0.0,0.0,0.0,0.0,0.0,0.0,0.0,0.0,0.0,0.0,0.0,0.0,0.0,0.0,0.0,0.0,0.0,0.0,0.0,0.0,0.0,0.0,0.0,0.0,0.0,0.0,0.0,0.0,0.0,0.0,0.0,0.0,0.0,0.0,0.0,0.0,0.0,0.0,0.0,0.0,0.0,0.0,0.0,0.0,0.0,0.0,0.0,0.0,0.0,0.0,0.0,0.0,0.0,0.0,0.0,0.0,0.0,0.0,0.0,0.0,0.0,0.0,0.0,0.0,0.0,0.0,0.0,0.0,0.0,0.0,0.0,0.0,0.0,0.0,0.0,0.0,0.0,0.0,0.0,0.0,0.0,0.0,0.0,0.0,0.0,0.0,0.0,0.0,0.0,0.0,0.0,0.0,0.0,0.0,0.0,0.0,0.0,0.0,0.0,0.0,0.0,0.0,0.0,0.0,0.0,0.0,0.0,0.0,0.0,0.0,0.0,0.0,0.0,0.0,0.0,0.0,0.0,0.0,0.0,0.0,0.0,0.0,0.0,0.0,0.0,0.0,0.0,0.0,0.0,0.0,0.0,0.0,0.0,0.0,0.0,0.0,0.0,0.0,0.0,0.0,0.0,0.0,0.0,0.0,0.0,0.0,0.0,0.0,0.0,0.0,0.0,0.0,0.0,0.0,0.0,0.0,0.0,0.0,0.0,0.0,0.0,0.0,0.0,0.0,0.0,0.0,0.0,0.0,0.0,0.0,0.0,0.0,0.0,0.0,0.0,0.0,0.0,0.0,0.0,0.0,0.0,0.0,0.0,0.0,0.0,0.0,0.0,0.0,0.0,0.0,0.0,0.0,0.0,0.0,0.0,0.0,0.0,0.0,0.0,0.0,0.0,0.0,0.0,0.0,0.0,0.0,0.0,0.0,0.0,0.0,0.0,0.0,0.0,0.0,0.0,0.0,0.0,0.0,0.0,0.0,0.0,0.0,0.0,0.0,0.0,0.0,0.0,0.0,0.0,0.0,0.0,0.0,0.0,0.0,0.0,0.0,0.0,0.0,0.0,0.0,0.0,0.0,0.0,0.0,0.0,0.0,0.0,0.0,0.0,0.0,0.0,0.0,0.0,0.0,0.0,0.0,0.0,0.0,0.0,0.0,0.0,0.0,0.0,0.0,0.0,0.0,0.0,0.0,0.0,0.0,0.0,0.0,0.0,0.0,0.0,0.0,0.0,0.0,0.0,0.0,0.0,0.0,0.0,0.0,0.0,0.0,0.0,0.0,0.0,0.0,0.0,0.0,0.0,0.0,0.0,0.0,0.0,0.0,0.0,0.0,0.0,0.0,0.0,0.0,0.0,0.0,0.0,0.0,0.0,0.0,0.0,0.0,0.0,0.0,0.0,0.0,0.0,0.0,0.0,0.0,0.0,0.0,0.0,0.0,0.0,0.0,0.0,0.0,0.0,0.0,0.0,0.0,0.0,0.0,0.0,0.0,0.0,0.0,0.0,0.0,0.0,0.0,0.0,0.0,0.0,0.0,0.0,0.0,0.0,0.0,0.0,0.0,0.0,0.0,0.0,0.0,0.0,0.0,0.0,0.0,0.0,0.0,0.0,0.0,0.0,0.0,0.0,0.0,0.0,0.0,0.0,0.0,0.0,0.0,0.0,0.0,0.0,0.0,0.0,0.0,0.0,0.0,0.0,0.0,0.0,0.0,0.0,0.0,0.0,0.0,0.0,0.0,0.0,0.0,0.0,0.0,0.0,0.0,0.0,0.0,0.0,0.0,0.0,0.0,0.0,0.0,0.0,0.0,0.0,0.0,0.0,0.0,0.0,0.0,0.0,0.0,0.0,0.0,0.0,0.0,0.0,0.0,3.9904,0.0,0.0,0.0,0.0,0.0,0.0,0.0,0.0,0.0,0.0,0.0,0.0,0.0,0.0,0.0,0.0,0.0,0.0,0.0,0.0,0.0,0.0,0.0,0.0,0.0,0.0,0.0,0.0,0.0,0.0,0.0,0.0,0.0,0.0,0.0,0.0,0.0,0.0,0.0,0.0,0.0,0.0,0.0,0.0,0.0,0.0,0.0,0.0,0.0,0.0,0.0,0.0,0.0,0.0,0.0,0.0,0.0,0.0,0.0,0.0,0.0,0.0,0.0,0.0,0.0,0.0,0.0,0.0,0.0,0.0,0.0,0.0,0.0,0.0,0.0,0.0,0.0,0.0,0.0,0.0,0.0,0.0,0.0,0.0,0.0,0.0,0.0,0.0,0.0,0.0,0.0,0.0,0.0,0.0,0.0,0.0,0.0,0.0,0.0,0.0,0.0,0.0,0.0,0.0,0.0,0.0,0.0,0.0,0.0,0.0,4.3318,4.2955,4.1764,4.0916,4.0557,0.0,0.0,0.0,0.0,0.0,0.0,0.0,0.0,0.0,0.0,0.0,0.0,0.0,0.0,0.0,0.0,0.0,0.0,0.0,0.0,0.0,0.0,0.0,0.0,0.0,0.0,0.0,0.0,0.0,0.0,0.0,0.0,0.0,0.0,0.0,0.0,0.0,0.0,0.0,0.0,0.0,0.0,0.0,0.0,0.0,0.0,0.0,0.0,0.0,0.0,0.0,0.0,0.0,0.0,0.0,0.0,0.0,0.0,0.0,0.0,0.0,0.0,0.0,0.0,0.0,0.0,0.0,0.0,0.0,0.0,0.0,0.0,0.0,0.0,0.0,0.0,0.0,0.0,0.0,0.0,0.0,0.0,0.0,0.0,0.0,0.0,0.0,0.0,0.0,0.0,0.0,0.0,0.0,0.0,0.0,0.0,0.0,0.0,0.0,0.0,0.0,0.0,0.0,0.0,0.0,0.0,0.0,0.0,0.0,0.0,0.0,0.0,4.3493,4.253,4.2168,0.0,0.0,0.0,0.0,0.0,0.0,0.0,0.0,0.0,0.0,0.0,0.0,0.0,0.0,0.0,0.0,0.0,0.0,0.0,0.0,0.0,0.0,0.0,0.0,0.0,0.0,0.0,0.0,0.0,0.0,0.0,0.0,0.0,0.0,0.0,0.0,0.0,0.0,0.0,0.0,0.0,0.0,0.0,0.0,0.0,0.0,0.0,0.0,0.0,0.0,0.0,0.0,0.0,0.0,0.0,0.0,0.0,0.0,0.0,0.0,0.0,0.0,0.0,0.0,0.0,0.0,0.0,0.0,0.0,0.0,0.0,0.0,0.0,0.0,0.0,0.0,0.0,0.0,0.0,0.0,0.0,0.0,0.0,0.0,0.0,0.0,0.0,0.0,0.0,0.0,0.0,0.0,0.0,0.0,0.0,0.0,0.0,0.0,0.0,0.0,0.0,0.0,0.0,0.0,0.0,0.0,0.0,0.0,0.0,0.0,4.5268,4.8908,4.8086,0.0,4.5557,0.0,0.0,0.0,0.0,0.0,0.0,0.0,0.0,0.0,0.0,0.0,0.0,0.0,0.0,0.0,0.0,0.0,0.0,0.0,0.0,0.0,0.0,0.0,0.0,0.0,0.0,0.0,0.0,0.0,0.0,0.0,0.0,0.0,0.0,0.0,0.0,0.0,0.0,0.0,0.0,0.0,0.0,0.0,0.0,0.0,0.0,0.0,0.0,0.0,0.0,0.0,0.0,0.0,0.0,0.0,0.0,0.0,0.0,0.0,0.0,0.0,0.0,0.0,0.0,0.0,0.0,0.0,0.0,0.0,0.0,0.0,0.0,0.0,0.0,0.0,0.0,0.0,0.0,0.0,0.0,0.0,0.0,0.0,0.0,0.0,0.0,0.0,0.0,0.0,0.0,0.0,0.0,0.0,0.0,0.0,0.0,0.0,0.0,0.0,0.0,0.0,0.0,0.0,0.0,0.0,0.0,0.0,0.0,0.0,0.0,4.7916,4.9569,4.8306,4.673,0.0,0.0,0.0,0.0,0.0,0.0,0.0,0.0,0.0,0.0,0.0,0.0,0.0,0.0,0.0,0.0,0.0,0.0,0.0,0.0,0.0,0.0,0.0,0.0,0.0,0.0,0.0,0.0,0.0,0.0,0.0,0.0,0.0,0.0,0.0,0.0,0.0,0.0,0.0,0.0,0.0,0.0,0.0,0.0,0.0,0.0,0.0,0.0,0.0,0.0,0.0,0.0,0.0,0.0,0.0,0.0,0.0,0.0,0.0,0.0,0.0,0.0,0.0,0.0,0.0,0.0,0.0,0.0,0.0,0.0,0.0,0.0,0.0,0.0,0.0,0.0,0.0,0.0,0.0,0.0,0.0,0.0,0.0,0.0,0.0,0.0,0.0,0.0,0.0,0.0,0.0,0.0,0.0,0.0,0.0,0.0,0.0,0.0,0.0,0.0,0.0,0.0,0.0,0.0,0.0,0.0,0.0,0.0,0.0,0.0,4.8651,0.0,5.0812,4.9958,4.7841,4.4392,0.0,0.0,0.0,0.0,0.0,0.0,0.0,0.0,0.0,0.0,0.0,0.0,0.0,0.0,0.0,0.0,0.0,0.0,0.0,0.0,0.0,0.0,0.0,0.0,0.0,0.0,0.0,0.0,0.0,0.0,0.0,0.0,0.0,0.0,0.0,0.0,0.0,0.0,0.0,0.0,0.0,0.0,0.0,0.0,0.0,0.0,0.0,0.0,0.0,0.0,0.0,0.0,0.0,0.0,0.0,0.0,0.0,0.0,0.0,0.0,0.0,0.0,0.0,0.0,0.0,0.0,0.0,0.0,0.0,0.0,0.0,0.0,0.0,0.0,0.0,0.0,0.0,0.0,0.0,0.0,0.0,0.0,0.0,0.0,0.0,0.0,0.0,0.0,0.0,0.0,0.0,0.0,0.0,0.0,0.0,0.0,0.0,0.0,0.0,0.0,0.0,0.0,0.0,0.0,0.0,0.0,0.0,0.0,0.0,5.1321,5.1027,5.4111,5.4851,5.1898,0.0,0.0,0.0,0.0,0.0,0.0,0.0,0.0,0.0,0.0,0.0,0.0,0.0,0.0,0.0,0.0,0.0,0.0,0.0,0.0,0.0,0.0,0.0,0.0,0.0,0.0,0.0,0.0,0.0,0.0,0.0,0.0,0.0,0.0,0.0,0.0,0.0,0.0,0.0,0.0,0.0,0.0,0.0,0.0,0.0,0.0,0.0,0.0,0.0,0.0,0.0,0.0,0.0,0.0,0.0,0.0,0.0,0.0,0.0,0.0,0.0,0.0,0.0,0.0,0.0,0.0,0.0,0.0,0.0,0.0,0.0,0.0,0.0,0.0,0.0,0.0,0.0,0.0,0.0,0.0,0.0,0.0,0.0,0.0,0.0,0.0,0.0,0.0,0.0,0.0,0.0,0.0,0.0,0.0,0.0,0.0,0.0,0.0,0.0,0.0,0.0,0.0,0.0,0.0,0.0,0.0,0.0,0.0,0.0,4.7733,4.8898,5.2307,5.7776,5.3036,4.9146,0.0,0.0,0.0,0.0,0.0,0.0,0.0,0.0,0.0,0.0,0.0,0.0,0.0,0.0,0.0,0.0,0.0,0.0,0.0,0.0,0.0,0.0,0.0,0.0,0.0,0.0,0.0,0.0,0.0,0.0,0.0,0.0,0.0,0.0,0.0,0.0,0.0,0.0,0.0,0.0,0.0,0.0,0.0,0.0,0.0,0.0,0.0,0.0,0.0,0.0,0.0,0.0,0.0,0.0,0.0,0.0,0.0,0.0,0.0,0.0,0.0,0.0,0.0,0.0,0.0,0.0,0.0,0.0,0.0,0.0,0.0,0.0,0.0,0.0,0.0,0.0,0.0,0.0,0.0,0.0,0.0,0.0,0.0,0.0,0.0,0.0,0.0,0.0,0.0,0.0,0.0,0.0,0.0,0.0,0.0,0.0,0.0,0.0,0.0,0.0,0.0,0.0,0.0,0.0,0.0,0.0,0.0,0.0,0.0,4.7398,0.0,5.4803,0.0,5.2407,4.7674,0.0,0.0,0.0,0.0,0.0,0.0,0.0,0.0,0.0,0.0,0.0,0.0,0.0,0.0,0.0,0.0,0.0,0.0,0.0,0.0,0.0,0.0,0.0,0.0,0.0,0.0,0.0,0.0,0.0,0.0,0.0,0.0,0.0,0.0,0.0,0.0,0.0,0.0,0.0,0.0,0.0,0.0,0.0,0.0,0.0,0.0,0.0,0.0,0.0,0.0,0.0,0.0,0.0,0.0,0.0,0.0,0.0,0.0,0.0,0.0,0.0,0.0,0.0,0.0,0.0,0.0,0.0,0.0,0.0,0.0,0.0,0.0,0.0,0.0,0.0,0.0,0.0,0.0,0.0,0.0,0.0,0.0,0.0,0.0,0.0,0.0,0.0,0.0,0.0,0.0,0.0,0.0,0.0,0.0,0.0,0.0,0.0,0.0,0.0,0.0,0.0,0.0,0.0,0.0,0.0,0.0,0.0,0.0,4.7503,5.5071,5.8309,5.8122,5.4677,5.3418,4.7962,0.0,0.0,0.0,0.0,0.0,0.0,0.0,0.0,0.0,0.0,0.0,0.0,0.0,0.0,0.0,0.0,0.0,0.0,0.0,0.0,0.0,0.0,0.0,0.0,0.0,0.0,0.0,0.0,0.0,0.0,0.0,0.0,0.0,0.0,0.0,0.0,0.0,0.0,0.0,0.0,0.0,0.0,0.0,0.0,0.0,0.0,0.0,0.0,0.0,0.0,0.0,0.0,0.0,0.0,0.0,0.0,0.0,0.0,0.0,0.0,0.0,0.0,0.0,0.0,0.0,0.0,0.0,0.0,0.0,0.0,0.0,0.0,0.0,0.0,0.0,0.0,0.0,0.0,0.0,0.0,0.0,0.0,0.0,0.0,0.0,0.0,0.0,0.0,0.0,0.0,0.0,0.0,0.0,0.0,0.0,0.0,0.0,0.0,0.0,0.0,0.0,0.0,0.0,0.0,0.0,0.0,0.0,0.0,0.0,5.2286,5.4349,5.6368,5.8036,5.1341,4.686,0.0,0.0,0.0,0.0,0.0,0.0,0.0,0.0,0.0,0.0,0.0,0.0,0.0,0.0,0.0,0.0,0.0,0.0,0.0,0.0,0.0,0.0,0.0,0.0,0.0,0.0,0.0,0.0,0.0,0.0,0.0,0.0,0.0,0.0,0.0,0.0,0.0,0.0,0.0,0.0,0.0,0.0,0.0,0.0,0.0,0.0,0.0,0.0,0.0,0.0,0.0,0.0,0.0,0.0,0.0,0.0,0.0,0.0,0.0,0.0,0.0,0.0,0.0,0.0,0.0,0.0,0.0,0.0,0.0,0.0,0.0,0.0,0.0,0.0,0.0,0.0,0.0,0.0,0.0,0.0,0.0,0.0,0.0,0.0,0.0,0.0,0.0,0.0,0.0,0.0,0.0,0.0,0.0,0.0,0.0,0.0,0.0,0.0,0.0,0.0,0.0,0.0,0.0,0.0,0.0,0.0,0.0,0.0,0.0,5.4832,5.6628,5.8345,5.9824,5.1921,4.7413,4.6782,0.0,0.0,0.0,0.0,0.0,0.0,0.0,0.0,0.0,0.0,0.0,0.0,0.0,0.0,0.0,0.0,0.0,0.0,0.0,0.0,0.0,0.0,0.0,0.0,0.0,0.0,0.0,0.0,0.0,0.0,0.0,0.0,0.0,0.0,0.0,0.0,0.0,0.0,0.0,0.0,0.0,0.0,0.0,0.0,0.0,0.0,0.0,0.0,0.0,0.0,0.0,0.0,0.0,0.0,0.0,0.0,0.0,0.0,0.0,0.0,0.0,0.0,0.0,0.0,0.0,0.0,0.0,0.0,0.0,0.0,0.0,0.0,0.0,0.0,0.0,0.0,0.0,0.0,0.0,0.0,0.0,0.0,0.0,0.0,0.0,0.0,0.0,0.0,0.0,0.0,0.0,0.0,0.0,0.0,0.0,0.0,0.0,0.0,0.0,0.0,0.0,0.0,0.0,0.0,0.0,0.0,0.0,0.0,6.1272,6.3885,6.3455,5.9823,5.4839,4.9503,0.0,0.0,0.0,0.0,0.0,0.0,0.0,0.0,0.0,0.0,0.0,0.0,0.0,0.0,0.0,0.0,0.0,0.0,0.0,0.0,0.0,0.0,0.0,0.0,0.0,0.0,0.0,0.0,0.0,0.0,0.0,0.0,0.0,0.0,0.0,0.0,0.0,0.0,0.0,0.0,0.0,0.0,0.0,0.0,0.0,0.0,0.0,0.0,0.0,0.0,0.0,0.0,0.0,0.0,0.0,0.0,0.0,0.0,0.0,0.0,0.0,0.0,0.0,0.0,0.0,0.0,0.0,0.0,0.0,0.0,0.0,0.0,0.0,0.0,0.0,0.0,0.0,0.0,0.0,0.0,0.0,0.0,0.0,0.0,0.0,0.0,0.0,0.0,0.0,0.0,0.0,0.0,0.0,0.0,0.0,0.0,0.0,0.0,0.0,0.0,0.0,0.0,0.0,0.0,0.0,0.0,0.0,0.0,0.0,6.1455,6.5336,6.635,6.4119,5.7531,5.2154,0.0,0.0,0.0,0.0,0.0,0.0,0.0,0.0,0.0,0.0,0.0,0.0,0.0,0.0,0.0,0.0,0.0,0.0,0.0,0.0,0.0,0.0,0.0,0.0,0.0,0.0,0.0,0.0,0.0,0.0,0.0,0.0,0.0,0.0,0.0,0.0,0.0,0.0,0.0,0.0,0.0,0.0,0.0,0.0,0.0,0.0,0.0,0.0,0.0,0.0,0.0,0.0,0.0,0.0,0.0,0.0,0.0,0.0,0.0,0.0,0.0,0.0,0.0,0.0,0.0,0.0,0.0,0.0,0.0,0.0,0.0,0.0,0.0,0.0,0.0,0.0,0.0,0.0,0.0,0.0,0.0,0.0,0.0,0.0,0.0,0.0,0.0,0.0,0.0,0.0,0.0,0.0,0.0,0.0,0.0,0.0,0.0,0.0,0.0,0.0,0.0,0.0,0.0,0.0,0.0,0.0,0.0,0.0,6.0301,6.3676,6.7284,6.827,6.6327,6.1138,5.5886,0.0,0.0,0.0,0.0,0.0,0.0,0.0,0.0,0.0,0.0,0.0,0.0,0.0,0.0,0.0,0.0,0.0,0.0,0.0,0.0,0.0,0.0,0.0,0.0,0.0,0.0,0.0,0.0,0.0,0.0,0.0,0.0,0.0,0.0,0.0,0.0,0.0,0.0,0.0,0.0,0.0,0.0,0.0,0.0,0.0,0.0,0.0,0.0,0.0,0.0,0.0,0.0,0.0,0.0,0.0,0.0,0.0,0.0,0.0,0.0,0.0,0.0,0.0,0.0,0.0,0.0,0.0,0.0,0.0,0.0,0.0,0.0,0.0,0.0,0.0,0.0,0.0,0.0,0.0,0.0,0.0,0.0,0.0,0.0,0.0,0.0,0.0,0.0,0.0,0.0,0.0,0.0,0.0,0.0,0.0,0.0,0.0,0.0,0.0,0.0,0.0,0.0,0.0,0.0,0.0,0.0,0.0,0.0,6.2281,6.6812,6.9376,6.9556,6.7218,6.4874,5.98,0.0,0.0,0.0,0.0,0.0,0.0,0.0,0.0,0.0,0.0,0.0,0.0,0.0,0.0,0.0,0.0,0.0,0.0,0.0,0.0,0.0,0.0,0.0,0.0,0.0,0.0,0.0,0.0,0.0,0.0,0.0,0.0,0.0,0.0,0.0,0.0,0.0,0.0,0.0,0.0,0.0,0.0,0.0,0.0,0.0,0.0,0.0,0.0,0.0,0.0,0.0,0.0,0.0,0.0,0.0,0.0,0.0,0.0,0.0,0.0,0.0,0.0,0.0,0.0,0.0,0.0,0.0,0.0,0.0,0.0,0.0,0.0,0.0,0.0,0.0,0.0,0.0,0.0,0.0,0.0,0.0,0.0,0.0,0.0,0.0,0.0,0.0,0.0,0.0,0.0,0.0,0.0,0.0,0.0,0.0,0.0,0.0,0.0,0.0,0.0,0.0,0.0,0.0,0.0,0.0,0.0,0.0,0.0,6.5419,6.7624,7.051,7.1187,6.9496,6.6159,6.0791,0.0,0.0,0.0,0.0,0.0,0.0,0.0,0.0,0.0,0.0,0.0,0.0,0.0,0.0,0.0,0.0,0.0,0.0,0.0,0.0,0.0,0.0,0.0,0.0,0.0,0.0,0.0,0.0,0.0,0.0,0.0,0.0,0.0,0.0,0.0,0.0,0.0,0.0,0.0,0.0,0.0,0.0,0.0,0.0,0.0,0.0,0.0,0.0,3.6934,0.0,0.0,0.0,0.0,0.0,0.0,0.0,0.0,0.0,0.0,0.0,0.0,0.0,0.0,0.0,0.0,0.0,0.0,0.0,0.0,0.0,0.0,0.0,0.0,0.0,0.0,0.0,0.0,0.0,0.0,0.0,0.0,0.0,0.0,0.0,0.0,0.0,0.0,0.0,0.0,0.0,0.0,0.0,0.0,0.0,0.0,0.0,0.0,0.0,0.0,0.0,0.0,0.0,0.0,0.0,0.0,0.0,0.0,0.0,6.7996,6.9474,7.1751,7.2225,7.0703,6.8087,6.3047,0.0,0.0,0.0,0.0,0.0,0.0,0.0,0.0,0.0,0.0,0.0,0.0,0.0,0.0,0.0,0.0,0.0,0.0,0.0,0.0,0.0,0.0,0.0,0.0,0.0,0.0,0.0,0.0,0.0,0.0,0.0,0.0,0.0,0.0,0.0,0.0,0.0,0.0,0.0,0.0,0.0,0.0,0.0,0.0,0.0,0.0,0.0,0.0,0.0,0.0,0.0,0.0,0.0,0.0,0.0,0.0,0.0,0.0,0.0,0.0,0.0,0.0,0.0,0.0,0.0,0.0,0.0,0.0,0.0,0.0,0.0,0.0,0.0,0.0,0.0,0.0,0.0,0.0,0.0,0.0,0.0,0.0,0.0,0.0,0.0,0.0,0.0,0.0,0.0,0.0,0.0,0.0,0.0,0.0,0.0,0.0,0.0,0.0,0.0,0.0,0.0,0.0,0.0,0.0,0.0,0.0,0.0,6.5628,6.9925,7.1909,7.3071,7.3071,7.1808,7.0049,6.5358,5.7476,0.0,0.0,0.0,0.0,0.0,0.0,0.0,0.0,0.0,0.0,0.0,0.0,0.0,0.0,0.0,0.0,0.0,0.0,0.0,0.0,0.0,0.0,0.0,0.0,0.0,0.0,0.0,0.0,0.0,0.0,0.0,0.0,0.0,0.0,0.0,0.0,0.0,0.0,3.6395,3.9884,0.0,0.0,0.0,0.0,0.0,0.0,0.0,0.0,4.1286,0.0,0.0,0.0,0.0,0.0,0.0,0.0,0.0,0.0,0.0,0.0,0.0,0.0,0.0,0.0,0.0,0.0,0.0,0.0,0.0,0.0,0.0,0.0,0.0,0.0,0.0,0.0,0.0,0.0,0.0,0.0,0.0,0.0,0.0,0.0,0.0,0.0,0.0,0.0,0.0,0.0,0.0,0.0,0.0,0.0,0.0,0.0,0.0,0.0,0.0,0.0,0.0,0.0,0.0,0.0,0.0,6.5178,6.7174,7.0331,7.483,7.4627,7.4311,7.3972,7.0827,6.5797,5.8955,0.0,0.0,0.0,0.0,0.0,0.0,0.0,0.0,0.0,0.0,0.0,0.0,0.0,0.0,0.0,0.0,0.0,0.0,0.0,0.0,0.0,0.0,0.0,0.0,0.0,0.0,0.0,0.0,0.0,0.0,0.0,0.0,0.0,0.0,0.0,0.0,0.0,0.0,0.0,4.603,4.776,0.0,0.0,0.0,0.0,0.0,0.0,0.0,0.0,4.1487,0.0,0.0,0.0,0.0,0.0,0.0,0.0,0.0,0.0,0.0,0.0,0.0,0.0,0.0,0.0,0.0,0.0,0.0,0.0,0.0,0.0,0.0,0.0,0.0,0.0,0.0,0.0,0.0,0.0,0.0,0.0,0.0,0.0,0.0,0.0,0.0,0.0,0.0,0.0,0.0,0.0,0.0,0.0,0.0,0.0,0.0,0.0,0.0,0.0,0.0,0.0,0.0,0.0,0.0,0.0,6.3825,6.9214,7.2969,7.5067,7.5562,7.5236,7.3984,6.9316,6.414,0.0,0.0,0.0,0.0,0.0,0.0,0.0,0.0,0.0,0.0,0.0,0.0,0.0,0.0,0.0,0.0,0.0,0.0,0.0,0.0,0.0,0.0,0.0,0.0,0.0,0.0,0.0,0.0,0.0,0.0,0.0,0.0,0.0,0.0,0.0,0.0,0.0,0.0,0.0,0.0,4.7006,4.8246,4.8283,0.0,0.0,0.0,0.0,0.0,0.0,4.3916,4.3359,0.0,0.0,0.0,0.0,0.0,0.0,0.0,0.0,0.0,0.0,0.0,0.0,0.0,0.0,0.0,0.0,0.0,0.0,0.0,0.0,0.0,0.0,0.0,0.0,0.0,0.0,0.0,0.0,0.0,0.0,0.0,0.0,0.0,0.0,0.0,0.0,0.0,0.0,0.0,0.0,0.0,0.0,0.0,0.0,0.0,0.0,0.0,0.0,0.0,0.0,0.0,0.0,0.0,0.0,0.0,6.211,7.0297,7.483,7.5292,7.6352,7.5879,7.3725,6.8538,6.327,0.0,0.0,0.0,0.0,0.0,0.0,0.0,0.0,0.0,0.0,0.0,0.0,0.0,0.0,0.0,0.0,0.0,0.0,0.0,0.0,0.0,0.0,0.0,0.0,0.0,0.0,0.0,0.0,0.0,0.0,0.0,0.0,0.0,0.0,0.0,0.0,0.0,0.0,0.0,0.0,0.0,4.8885,4.9643,4.936,0.0,0.0,0.0,0.0,4.7131,4.6844,0.0,0.0,0.0,0.0,0.0,0.0,0.0,0.0,0.0,0.0,0.0,0.0,0.0,0.0,0.0,0.0,0.0,0.0,0.0,0.0,0.0,0.0,0.0,0.0,0.0,0.0,0.0,0.0,0.0,0.0,0.0,0.0,0.0,0.0,0.0,0.0,0.0,0.0,0.0,0.0,0.0,0.0,0.0,0.0,0.0,0.0,0.0,0.0,0.0,0.0,0.0,0.0,0.0,0.0,0.0,0.0,6.4038,6.8571,7.3048,7.7312,7.713,7.6149,7.448,7.1278,6.5876,0.0,0.0,0.0,0.0,0.0,0.0,0.0,0.0,0.0,0.0,0.0,0.0,0.0,0.0,0.0,0.0,0.0,0.0,0.0,0.0,0.0,0.0,0.0,0.0,0.0,0.0,0.0,0.0,0.0,0.0,0.0,0.0,0.0,0.0,0.0,0.0,0.0,0.0,0.0,0.0,0.0,5.3557,5.121,5.1781,5.1957,0.0,0.0,5.0313,5.1238,5.0574,0.0,0.0,0.0,0.0,0.0,0.0,0.0,0.0,0.0,0.0,0.0,0.0,0.0,0.0,0.0,0.0,0.0,0.0,0.0,0.0,0.0,0.0,0.0,0.0,0.0,0.0,0.0,0.0,0.0,0.0,0.0,0.0,0.0,0.0,0.0,0.0,0.0,0.0,0.0,0.0,0.0,0.0,0.0,0.0,0.0,0.0,0.0,0.0,0.0,0.0,0.0,0.0,0.0,0.0,0.0,5.8533,6.4546,7.0331,7.4759,7.7585,7.745,7.6359,7.4424,6.9063,6.339,0.0,0.0,0.0,0.0,0.0,0.0,0.0,0.0,0.0,0.0,0.0,0.0,0.0,0.0,0.0,0.0,0.0,0.0,0.0,0.0,0.0,0.0,0.0,0.0,0.0,0.0,0.0,0.0,0.0,0.0,0.0,0.0,0.0,0.0,0.0,0.0,0.0,0.0,0.0,0.0,0.0,0.0,5.3791,5.4784,0.0,0.0,0.0,5.4194,5.3391,0.0,0.0,0.0,0.0,0.0,0.0,0.0,0.0,0.0,0.0,0.0,0.0,0.0,0.0,0.0,0.0,0.0,0.0,0.0,0.0,0.0,0.0,0.0,0.0,0.0,0.0,0.0,0.0,0.0,0.0,0.0,0.0,0.0,0.0,0.0,0.0,0.0,0.0,0.0,0.0,0.0,0.0,0.0,0.0,0.0,0.0,0.0,0.0,0.0,0.0,0.0,0.0,0.0,0.0,0.0,0.0,0.0,6.5155,7.2224,7.6484,7.7748,7.7681,7.6491,7.4167,6.7976,0.0,0.0,0.0,0.0,0.0,0.0,0.0,0.0,0.0,0.0,0.0,0.0,0.0,0.0,0.0,0.0,0.0,0.0,0.0,0.0,0.0,0.0,0.0,0.0,0.0,0.0,0.0,2.9975,0.0,0.0,0.0,0.0,0.0,0.0,0.0,0.0,0.0,0.0,0.0,0.0,0.0,0.0,5.4948,5.57,5.7362,5.8174,0.0,0.0,5.7581,5.5751,5.5848,5.426,0.0,0.0,0.0,0.0,0.0,0.0,0.0,0.0,0.0,0.0,0.0,0.0,0.0,0.0,0.0,0.0,0.0,0.0,0.0,0.0,0.0,0.0,0.0,0.0,0.0,0.0,0.0,0.0,0.0,0.0,0.0,0.0,0.0,0.0,0.0,0.0,0.0,0.0,0.0,0.0,0.0,0.0,0.0,0.0,0.0,0.0,0.0,0.0,0.0,0.0,0.0,0.0,0.0,0.0,0.0,6.6656,7.3041,7.7063,7.8535,7.7963,7.6491,7.4246,7.0636,6.5269,0.0,0.0,0.0,0.0,0.0,0.0,0.0,0.0,0.0,0.0,0.0,0.0,0.0,0.0,0.0,0.0,0.0,0.0,0.0,0.0,0.0,0.0,0.0,0.0,0.0,0.0,0.0,0.0,0.0,0.0,0.0,0.0,0.0,0.0,0.0,0.0,0.0,0.0,0.0,0.0,0.0,5.6415,5.6122,5.8987,6.0952,0.0,0.0,5.9647,5.9045,5.8746,5.6521,5.0196,0.0,0.0,0.0,0.0,0.0,0.0,0.0,0.0,0.0,0.0,0.0,0.0,0.0,0.0,0.0,0.0,0.0,0.0,0.0,0.0,0.0,0.0,0.0,0.0,0.0,0.0,0.0,0.0,0.0,0.0,0.0,0.0,0.0,0.0,0.0,0.0,0.0,0.0,0.0,0.0,0.0,0.0,0.0,0.0,0.0,0.0,0.0,0.0,0.0,0.0,0.0,0.0,0.0,6.1496,6.6558,7.3025,7.7179,7.8695,7.7692,7.6442,7.51,7.0887,6.5591,0.0,0.0,0.0,0.0,0.0,0.0,0.0,0.0,0.0,0.0,0.0,0.0,0.0,0.0,0.0,0.0,0.0,0.0,0.0,0.0,0.0,0.0,0.0,0.0,0.0,0.0,0.0,0.0,3.7932,3.8561,3.9075,0.0,0.0,0.0,0.0,0.0,0.0,0.0,0.0,0.0,0.0,5.8918,5.9402,6.1697,0.0,0.0,6.2066,6.1773,6.0706,5.9261,5.6664,5.1917,4.9622,0.0,0.0,0.0,0.0,0.0,0.0,0.0,0.0,0.0,0.0,0.0,0.0,0.0,0.0,0.0,0.0,0.0,0.0,0.0,0.0,0.0,0.0,0.0,0.0,0.0,0.0,0.0,0.0,0.0,0.0,0.0,0.0,0.0,0.0,0.0,0.0,0.0,0.0,0.0,0.0,0.0,0.0,0.0,0.0,0.0,0.0,0.0,0.0,0.0,0.0,0.0,0.0,6.176,6.6701,7.3243,7.7358,7.8856,7.7503,7.6404,7.5513,7.1369,6.6483,0.0,0.0,0.0,0.0,0.0,0.0,0.0,0.0,0.0,0.0,0.0,0.0,0.0,0.0,0.0,0.0,0.0,0.0,0.0,0.0,0.0,0.0,0.0,0.0,0.0,0.0,0.0,0.0,4.0179,4.0018,3.9428,0.0,0.0,0.0,0.0,0.0,0.0,0.0,0.0,0.0,0.0,6.1123,6.2103,6.3644,6.4297,6.3178,6.2931,6.2468,6.1447,5.9961,5.7569,5.361,0.0,0.0,0.0,0.0,0.0,0.0,0.0,0.0,0.0,0.0,0.0,0.0,0.0,0.0,0.0,0.0,0.0,0.0,0.0,0.0,0.0,0.0,0.0,0.0,0.0,0.0,0.0,0.0,0.0,0.0,3.24,0.0,0.0,0.0,0.0,0.0,0.0,0.0,0.0,0.0,0.0,0.0,0.0,0.0,0.0,0.0,0.0,0.0,0.0,0.0,0.0,0.0,0.0,6.2469,6.7451,7.3802,7.7682,7.8809,7.7465,7.6387,7.5567,7.2528,6.8392,6.309,0.0,0.0,0.0,0.0,0.0,0.0,0.0,0.0,0.0,0.0,0.0,0.0,0.0,0.0,0.0,0.0,0.0,0.0,0.0,0.0,0.0,0.0,0.0,0.0,0.0,0.0,4.13,4.1944,4.1115,0.0,0.0,0.0,0.0,0.0,0.0,0.0,0.0,0.0,0.0,5.991,6.277,6.3621,6.4408,6.4676,6.3917,6.2465,6.139,6.1376,6.125,5.9727,0.0,0.0,0.0,0.0,0.0,0.0,0.0,0.0,0.0,0.0,0.0,0.0,0.0,0.0,0.0,0.0,0.0,0.0,0.0,0.0,0.0,0.0,0.0,0.0,0.0,0.0,0.0,4.4966,4.1934,0.0,0.0,0.0,0.0,0.0,0.0,0.0,0.0,0.0,0.0,0.0,5.2833,5.5539,0.0,0.0,0.0,0.0,0.0,0.0,0.0,0.0,0.0,0.0,0.0,0.0,6.2277,6.7289,7.4049,7.7923,7.8598,7.8153,7.729,7.6089,7.3994,6.9614,6.2827,0.0,0.0,0.0,0.0,0.0,0.0,0.0,0.0,0.0,0.0,0.0,0.0,0.0,0.0,0.0,0.0,0.0,0.0,0.0,0.0,0.0,0.0,0.0,0.0,0.0,4.0637,0.0,0.0,0.0,0.0,0.0,0.0,0.0,0.0,0.0,0.0,0.0,5.5705,5.9227,6.256,6.4744,6.5037,6.5664,6.5901,0.0,0.0,0.0,0.0,0.0,0.0,0.0,0.0,0.0,0.0,0.0,0.0,0.0,0.0,5.9278,5.1919,4.9478,4.8671,4.9033,0.0,0.0,0.0,0.0,0.0,0.0,0.0,0.0,0.0,0.0,0.0,0.0,0.0,0.0,5.0455,0.0,4.6015,0.0,0.0,0.0,0.0,0.0,0.0,0.0,0.0,5.6249,5.8921,5.9293,6.1931,6.2202,0.0,6.008,5.6571,0.0,0.0,0.0,0.0,0.0,0.0,0.0,0.0,6.333,6.8293,7.4814,7.8411,7.8828,7.863,7.7934,7.6675,7.4326,7.0262,6.4369,5.955,5.5674,0.0,0.0,0.0,0.0,0.0,0.0,0.0,0.0,0.0,0.0,0.0,0.0,0.0,0.0,0.0,0.0,0.0,0.0,0.0,0.0,0.0,0.0,0.0,4.2467,0.0,0.0,0.0,0.0,0.0,0.0,0.0,0.0,0.0,5.2477,5.6562,6.0622,6.3632,6.5876,6.7161,6.6924,0.0,0.0,0.0,0.0,0.0,0.0,0.0,6.2665,6.3149,6.2651,6.1975,6.1424,6.3386,6.4993,6.485,0.0,0.0,5.8023,5.5564,5.4865,5.5433,5.5724,5.638,5.8023,5.8832,5.9813,0.0,0.0,0.0,0.0,0.0,0.0,0.0,0.0,5.5184,5.5446,0.0,5.2071,0.0,0.0,0.0,0.0,0.0,5.3137,0.0,0.0,6.2651,6.5165,6.5842,6.6633,6.7005,6.714,6.9022,6.7364,6.2221,5.3881,0.0,0.0,0.0,0.0,0.0,0.0,6.5598,7.0478,7.6068,7.9162,7.959,7.8947,7.8232,7.7364,7.3759,7.0529,6.7877,6.5078,6.1289,5.6206,5.1683,0.0,0.0,0.0,0.0,0.0,0.0,0.0,0.0,0.0,0.0,0.0,0.0,0.0,0.0,0.0,0.0,0.0,0.0,0.0,0.0,4.4816,0.0,0.0,0.0,0.0,0.0,0.0,0.0,0.0,0.0,0.0,5.7645,6.1637,6.5865,6.8774,0.0,0.0,0.0,0.0,6.8639,6.7208,6.7546,6.803,6.7996,6.8571,6.8493,6.7174,0.0,0.0,6.6495,6.7161,6.7861,6.7184,6.8494,6.8999,6.7237,6.4517,6.3178,6.4207,6.29,6.241,6.4248,6.5115,6.6125,6.4343,0.0,0.0,0.0,0.0,5.9877,6.2018,6.4962,6.4952,6.327,6.0394,5.8795,0.0,0.0,0.0,0.0,0.0,0.0,6.1264,6.2888,6.6745,6.8977,6.9711,7.0973,7.1594,7.1594,7.1176,6.9958,6.7872,6.4275,5.8143,4.9848,0.0,0.0,0.0,0.0,6.7614,7.2486,7.7083,7.9705,8.0379,8.02,7.9301,7.7739,7.5247,7.3445,7.2317,6.9196,6.5821,6.2168,5.7273,0.0,0.0,0.0,0.0,0.0,0.0,0.0,0.0,0.0,0.0,0.0,0.0,0.0,0.0,0.0,0.0,0.0,0.0,0.0,4.3992,4.5675,4.6789,0.0,0.0,0.0,0.0,0.0,0.0,0.0,0.0,0.0,6.6248,6.7635,6.9282,0.0,0.0,7.1515,7.077,7.0658,7.0522,7.0072,7.0184,0.0,0.0,6.9609,6.9485,7.0601,7.1797,7.2496,7.2338,7.2101,7.1876,7.1841,7.2269,7.2542,7.2293,6.9846,6.7972,6.8111,6.8101,6.8248,6.8884,6.9482,7.0313,7.2168,6.7387,6.4444,6.4082,6.5537,6.6417,6.8176,7.0432,7.0703,6.9485,6.7151,6.5821,6.2912,5.8887,5.7755,0.0,0.0,0.0,6.5865,6.7377,6.9902,7.1616,7.2653,7.3815,7.4537,7.4808,7.395,7.3296,7.2834,7.121,6.6407,5.883,0.0,0.0,6.0549,6.5787,7.0535,7.4664,7.8219,8.0266,8.0678,8.0134,7.9121,7.7687,7.6047,7.4925,7.4302,7.1702,6.8994,6.6304,6.1622,5.6664,0.0,0.0,0.0,0.0,0.0,0.0,0.0,0.0,0.0,0.0,0.0,3.768,3.4162,0.0,0.0,0.0,4.3409,4.6409,4.8855,5.0701,0.0,0.0,0.0,0.0,0.0,0.0,0.0,6.5189,6.8425,7.0838,7.2203,7.2821,7.3259,7.3668,7.3725,7.3544,7.3093,0.0,7.3409,7.3105,7.3578,7.3849,7.3533,7.2766,7.2653,7.395,7.4255,7.4674,7.5548,7.5229,7.4923,7.5085,7.5324,7.5628,7.5902,7.4306,7.2779,7.2234,7.2438,7.2813,7.3141,7.3481,7.408,7.8501,7.8882,7.4152,7.1639,7.1018,7.2947,7.3421,7.2902,7.359,7.4165,7.4514,7.2552,7.0827,6.9282,6.6609,0.0,6.6518,6.8707,7.0466,7.1774,7.2496,7.3555,7.4918,7.5664,7.6374,7.714,7.7096,7.705,7.6913,7.5287,7.309,7.0422,6.836,6.7701,6.8472,7.1168,7.399,7.6832,7.9354,8.0639,8.0611,7.9292,7.8252,7.7504,7.6371,7.5426,7.466,7.2974,7.1061,6.8863,6.4933,6.04,5.5293,0.0,0.0,0.0,0.0,0.0,0.0,0.0,0.0,0.0,0.0,0.0,0.0,0.0,0.0,0.0,5.115,0.0,5.6096,5.8031,0.0,0.0,0.0,5.9268,6.1139,6.4285,6.7195,6.9451,0.0,0.0,7.5944,7.6929,7.7272,7.6222,7.5908,7.5819,7.5807,7.6335,7.6652,7.5783,7.6922,7.7623,7.6731,7.6632,7.6623,7.6724,7.6386,7.6149,7.6816,7.6939,7.6961,7.6918,7.7515,7.7967,7.8022,7.7831,7.7696,7.6308,7.5936,7.6038,7.6591,7.6816,7.7121,8.1447,8.0931,8.0086,7.8382,7.6161,7.6093,7.6318,7.6669,7.6838,7.6352,7.5405,7.4897,7.3849,7.2439,7.2293,7.2315,7.2563,7.4255,7.5236,7.5608,7.6318,7.7021,7.7655,7.8089,7.8575,7.9074,7.8756,7.8473,7.8231,7.7281,7.6313,7.549,7.5398,7.3586,7.0212,7.3396,7.619,7.8343,7.9575,8.0072,7.9855,7.951,7.898,7.8265,7.7089,7.6366,7.6146,7.3821,7.1791,7.0093,6.7182,6.3684,5.9573,5.3349,0.0,0.0,0.0,0.0,0.0,0.0,0.0,0.0,0.0,4.7936,4.1752,0.0,5.1446,0.0,5.707,5.9345,5.9121,6.0099,0.0,0.0,6.4894,6.6011,7.1345,7.1797,7.2507,7.4762,7.6227,7.7284,7.7844,7.7976,7.836,7.9095,7.7799,7.6738,7.6772,7.694,7.7007,7.6885,7.72,7.7329,7.7474,7.7629,7.7739,7.7739,7.7582,7.7515,7.7718,7.7751,7.7751,7.7751,7.7853,7.8179,7.8754,7.8843,7.9194,7.9646,7.8631,7.7481,7.7718,7.8179,7.8822,8.3453,8.3045,8.267,8.1713,8.0467,7.9689,7.9537,7.9774,7.9921,7.9092,7.7684,7.6995,7.6263,7.554,7.5793,7.5923,7.599,7.6656,7.6999,7.6999,7.7415,7.79,7.8454,7.8943,7.9515,8.0092,8.0167,8.0087,7.9924,7.9412,7.8886,7.8299,7.8395,7.6846,7.394,7.6238,7.7536,7.7539,7.8075,7.89,8.0013,7.9043,7.8081,7.7217,7.6243,7.5139,7.3951,7.1642,6.9837,6.8663,6.6103,6.3755,6.1596,5.6592,5.3348,0.0,0.0,0.0,0.0,0.0,0.0,0.0,0.0,0.0,0.0,0.0,5.635,5.8945,6.2574,6.485,6.5077,6.6981,6.9417,7.2259,7.2022,7.3138,7.6826,7.6758,7.7048,7.8512,7.9171,7.9603,7.9844,7.965,7.978,8.0615,7.9541,7.8787,7.9022,7.9061,7.9061,7.9061,7.9061,7.8845,7.8475,7.8325,7.8264,7.8335,7.8409,7.8459,7.836,7.8692,7.8831,7.8461,7.8929,7.9578,8.0006,8.0365,8.0872,8.1325,8.083,8.004,7.9972,8.031,8.0712,8.4858,8.4857,8.358,8.3385,8.3887,8.3167,8.2551,8.2084,8.222,8.1581,8.031,7.9064,7.8489,7.8452,7.8093,7.7946,7.7955,7.7568,7.7454,7.7509,7.7555,7.7944,7.8721,7.9429,8.0085,8.0728,8.1357,8.1591,8.1451,8.1101,8.0479,7.9621,7.8917,7.8157,7.7455,7.8567,7.8082,7.5885,7.6081,7.7563,8.0231,7.8111,7.6525,7.5675,7.4772,7.3026,7.0479,6.8674,6.7352,6.6488,6.4575,6.3312,6.2853,5.9646,5.7593,0.0,5.5124,0.0,0.0,0.0,0.0,0.0,0.0,0.0,0.0,6.0216,6.2057,6.4282,6.7943,7.0681,7.1852,7.5075,7.7229,7.7468,7.8606,7.9418,7.952,8.0069,8.0597,8.0992,8.1553,8.1791,8.1558,8.1342,8.1213,8.1319,8.1121,8.1049,8.149,8.1337,8.1136,8.1377,8.1404,8.0668,7.9771,7.9229,7.9086,7.9103,7.9331,7.9344,7.9162,7.9807,8.0086,7.9436,8.0246,8.1197,8.1324,8.1805,8.2244,8.2353,8.2373,8.24,8.2337,8.2418,8.2555,8.6411,8.5411,8.537,8.5294,8.5163,8.5281,8.4253,8.2456,8.1886,8.151,8.1255,8.1256,8.1096,8.0785,8.0431,8.0123,7.9922,7.9267,7.9275,7.9844,7.9844,8.0415,8.1429,8.1845,8.1999,8.1929,8.2293,8.2046,8.1168,8.0368,7.972,7.9201,7.8333,7.7142,7.5823,0.0,0.0,0.0,7.59,7.669,7.8355,7.6948,7.6048,7.5886,7.4031,0.0,6.9732,6.9232,6.8417,6.7189,6.8472,0.0,0.0,0.0,0.0,0.0,0.0,0.0,0.0,0.0,0.0,0.0,6.4637,6.3386,6.3497,6.8977,7.1695,6.9839,7.342,7.5778,7.5496,7.7146,7.8863,8.0285,8.0729,8.1101,8.1684,8.1727,8.1705,8.1787,8.1491,8.1516,8.2035,8.1821,8.1907,8.2428,8.2528,8.2528,8.2551,8.163,8.0942,8.0875,8.1279,8.1168,8.0802,8.0876,8.0948,8.0974,8.0988,8.1027,8.0921,8.1068,8.1255,8.0941,8.1236,8.1537,8.1523,8.1577,8.2087,8.253,8.3087,8.3376,8.3046,8.3436,8.3928,8.6882,0.0,8.6172,8.5991,0.0,8.5639,8.5131,8.4312,8.3503,8.277,8.21,8.1845,8.1651,8.1484,8.1129,8.0916,8.0769,8.0268,8.0235,8.0601,8.0601,8.09,8.1495,8.2012,8.1882,8.1289,8.1793,8.1519,8.0558,7.9871,7.9218,7.8571,7.7713,7.6616,7.5356,7.5912,7.651,7.7138,7.5651,7.5928,7.7972,7.6834,7.5977,7.56,7.4189,0.0,0.0,0.0,0.0,0.0,0.0,0.0,0.0,0.0,0.0,6.6866,6.5952,6.5932,6.7129,6.758,6.9113,7.209,7.291,7.2178,6.9733,7.4227,7.6794,7.5986,7.7766,7.8932,7.8966,8.0102,8.1187,8.2119,8.2985,8.362,8.3819,8.4056,8.4055,8.3768,8.3446,8.3376,8.3588,8.3513,8.3332,8.3242,8.3187,8.2979,8.2574,8.2431,8.2453,8.2798,8.2949,8.2942,8.2638,8.2746,8.2592,8.2105,8.2247,8.234,8.1931,8.226,8.2568,8.246,8.2768,8.3131,8.3178,8.3446,8.3861,8.4229,8.4584,8.4857,8.4793,8.4943,8.5105,8.6931,8.7043,8.6465,8.6325,8.6441,8.5831,8.5869,8.6321,0.0,0.0,0.0,8.2494,8.2113,8.1911,8.1649,8.1373,8.1205,8.0986,8.0976,8.1108,8.1241,8.1373,8.1492,8.1887,8.1668,8.0898,8.1307,8.1077,8.0255,7.9744,7.9069,7.8142,7.7391,7.6529,7.566,7.5263,7.5958,7.7575,7.5332,7.54,7.7975,7.6849,7.5868,7.5234,7.441,7.2864,7.0533,7.0153,6.9431,6.8272,6.8472,6.8895,6.9352,6.9542,7.0974,7.3757,7.4268,7.4882,7.593,7.6193,7.6463,7.6765,7.9019,7.9082,7.594,7.7798,7.9606,8.081,8.0921,8.1157,8.1772,8.2912,8.3625,8.3712,8.5,8.5749,8.5523,8.5703,8.5572,8.5339,8.4813,8.4771,8.4383,8.4357,8.4245,8.3446,8.3136,8.3071,8.2515,8.2882,8.3567,8.4266,8.4295,8.4444,8.4341,8.4295,8.4019,8.3049,8.3449,8.3618,8.3079,8.3382,8.3791,8.3676,8.433,8.4681,8.4856,8.5176,8.5815,8.5848,8.5806,8.5835,8.6135,8.6025,8.5789,8.6899,8.6323,8.6258,8.6743,8.7568,8.747,8.7312,8.7039,8.5687,8.4953,8.4783,8.4874,8.4465,8.364,8.3187,8.2527,8.1727,8.1638,8.2003,8.2618,8.3248,8.3877,8.4416,8.3631,8.3203,8.3023,8.2265,8.1661,8.1126,8.0309,7.9525,7.8731,7.7812,7.7055,7.6602,7.6053,7.5931,7.618,7.5003,7.5344,7.7355,7.6085,7.5345,7.5242,7.4134,7.2461,7.0272,7.1534,7.2118,7.1994,7.3757,7.4441,7.3689,7.4383,7.4499,7.3675,7.4521,7.5763,7.7192,7.8111,7.9364,8.0956,8.207,8.1888,8.0231,8.067,8.111,8.1163,8.2168,8.2927,8.3121,8.4506,8.5521,8.5791,8.6123,8.6291,8.6153,8.5187,8.447,8.4292,8.3172,8.2653,8.2829,8.2719,8.2768,8.2359,8.2443,8.2395,8.2732,8.2536,8.271,8.3476,8.3734,8.406,8.4628,8.497,8.4838,8.4763,8.4759,8.4878,8.4588,8.4783,8.4901,8.4815,8.4947,8.5028,8.5014,8.5119,8.5217,8.521,8.5056,8.4988,8.5079,8.5256,8.5683,8.7117,8.7223,8.6521,8.648,8.6969,8.7564,8.8041,8.8292,8.7084,8.5974,8.5154,8.5214,8.4697,8.3749,8.3509,8.2855,8.1925,8.1892,8.2087,8.2427,8.2752,8.3077,8.3372,8.2897,8.2371,8.1887,8.1411,8.0721,7.9838,7.9156,7.8597,7.8068,7.7391,7.6984,7.6796,7.6527,7.6482,7.6678,7.5744,7.5684,7.6496,7.6311,7.6245,7.6408,7.5464,7.4863,7.452,7.5279,7.5725,7.5844,7.718,7.756,7.6738,7.7128,7.7239,7.7058,7.791,7.9064,8.0469,8.1744,8.2647,8.3167,8.3931,8.4121,8.3438,8.2827,8.2604,8.288,8.3411,8.3863,8.4243,8.5145,8.5787,8.5895,8.6418,8.6449,8.5822,8.5489,8.4905,8.4214,8.3574,8.3323,8.3691,8.3723,8.3482,8.298,8.2486,8.2339,8.2997,8.2841,8.2904,8.3688,8.3872,8.4061,8.4555,8.5107,8.5199,8.4916,8.5673,8.6019,8.5879,8.5964,8.5993,8.5561,8.5408,8.5182,8.4818,8.4586,8.4586,8.462,8.4844,8.4904,8.4971,8.5342,8.5742,8.7189,8.7688,8.6642,8.6223,8.6414,8.7486,8.8321,8.8805,8.8031,8.6823,8.5454,8.5185,8.4485,8.3462,8.3399,8.2905,8.2091,8.2188,8.2236,8.2252,8.2428,8.2556,8.2668,8.2366,8.1885,8.1357,8.084,7.9995,7.9078,7.8525,7.807,7.7703,7.7386,7.7245,7.7275,7.7095,7.7194,7.7432,7.6709,7.6375,7.6497,7.7063,7.7479,7.7712,7.7262,7.7485,7.8391,7.8388,7.8573,7.9081,7.9375,7.9438,7.9232,7.9093,7.942,8.0319,8.0993,8.1985,8.3383,8.4727,8.517,8.4578,8.5099,8.5468,8.533,8.4385,8.3952,8.4437,8.4517,8.4753,8.526,8.579,8.591,8.5785,8.6362,8.6413,8.5466,8.548,8.5337,8.4393,8.4098,8.409,8.4584,8.4743,8.4296,8.3437,8.282,8.2578,8.2987,8.311,8.3345,8.3593,8.3908,8.4201,8.4347,8.4841,8.5021,8.4564,8.5571,8.5893,8.5802,8.6254,8.6483,8.571,8.5716,8.5577,8.4844,8.4716,8.4764,8.4892,8.497,8.4976,8.4881,8.5226,8.5343,8.6859,8.6309,8.6202,8.637,8.6882,8.7914,8.8052,8.7622,8.7376,8.6879,8.6064,8.5454,8.4427,8.3258,8.3146,8.2699,8.2046,8.27,8.2956,8.2988,8.3707,8.4315,8.4488,8.3258,8.3138,8.3633,8.1653,8.0593,8.0535,7.966,7.9045,7.8717,7.8627,7.8579,7.8537,7.8011,7.7759,7.7765,7.7445,7.7586,7.8203,7.8335,7.8542,7.8935,7.9018,7.9144,7.9258,7.893,7.9451,8.0789,7.9924,7.9964,8.1187,8.0863,8.0857,8.1628,8.1982,8.2823,8.4489,8.5463,8.5771,8.5444,8.5406,8.5419,8.5221,8.5008,8.4952,8.5111,8.5604,8.5839,8.6159,8.677,8.6817,8.605,8.6166,8.6078,8.5517,8.4528,8.3998,8.4558,8.376,8.3229,8.3488,8.3554,8.3427,8.3437,8.3212,8.3097,8.3264,8.3326,8.3133,8.282,8.308,8.3995,8.4595,8.4571,8.4427,8.4299,8.4379,8.4746,8.4954,8.5213,8.5326,8.5422,8.5661,8.5834,8.575,8.5977,8.5765,8.521,8.4947,8.4596,8.4302,8.4409,8.4232,8.7604,8.7297,8.6927,8.7218,8.7998,8.8461,8.8844,8.9042,8.8028,8.7182,8.64,8.5155,8.4108,8.3369,8.2991,8.2315,8.1515,8.1813,8.1938,8.197,8.2644,8.2911,8.2749,8.2937,8.2916,8.2717,8.1599,8.0926,8.0507,7.9551,7.8969,7.8807,7.8789,7.8998,7.9297,7.8729,7.8579,7.895,7.8483,7.8671,7.9425,7.8876,7.8689,7.903,7.9171,7.9497,7.9973,7.9889,8.041,8.1594,8.1698,8.2041,8.2764,8.3132,8.3446,8.3759,8.4413,8.5126,8.5825,8.6048,8.603,8.5881,8.5519,8.5418,8.5699,8.5407,8.531,8.5649,8.5475,8.5185,8.5105,8.5415,8.5615,8.5595,8.5612,8.5455,8.5046,8.4538,8.4134,8.3777,8.3349,8.3264,8.3572,8.3695,8.388,8.4095,8.3972,8.3818,8.4157,8.428,8.4157,8.3964,8.3936,8.3635,8.3631,8.3733,8.392,8.4356,8.4659,8.4843,8.5225,8.5514,8.5654,8.4975,8.5189,8.5074,8.4282,8.4379,8.4344,8.4438,8.4692,8.4347,8.4629,8.468,8.4526,8.8343,8.8097,8.7469,8.7642,8.8341,8.8359,8.8796,8.9322,8.8187,8.7347,8.6744,8.5102,8.4245,8.3888,8.2943,8.205,8.1412,8.139,8.1373,8.1404,8.1914,8.2037,8.1989,8.2451,8.2669,8.2314,8.1853,8.1236,8.052,7.9772,7.9345,7.9357,7.9375,7.9567,7.9967,7.9567,7.9597,7.9986,7.9567,7.9797,8.0436,7.9756,7.9533,7.995,7.9766,8.0066,8.0893,8.0599,8.084,8.1809,8.239,8.282,8.3096,8.3857,8.4427,8.4868,8.5702,8.6331,8.6465,8.6303,8.6178,8.6101,8.5712,8.5674,8.5993,8.5738,8.5558,8.5566,8.5069,8.4603,8.4796,8.4731,8.4873,8.5058,8.5039,8.4876,8.4535,8.447,8.425,8.3745,8.381,8.3788,8.4249,8.4372,8.4526,8.4865,8.4649,8.4495,8.4988,8.5031,8.4988,8.4865,8.4513,8.3977,8.2935,8.3065,8.3718,8.3983,8.4323,8.4597,8.5319,8.5412,8.5552,8.4539,8.463,8.4678,8.4506,8.4006,8.371,8.3762,8.407,8.4519,8.4926,8.508,8.5062,8.8774,8.8128,8.75,8.7322,8.7316,8.7365,8.7384,8.7686,8.7359,8.7242,8.7032,8.572,8.5055,8.4917,8.315,8.2151,8.205,8.2068,8.205,8.2081,8.2143,8.2789,8.3818,8.2772,8.2897,8.377,8.2504,8.1492,8.0796,8.0692,8.0704,8.0674,8.0614,8.0674,8.0734,8.0644,8.0704,8.0734,8.0614,8.0888,8.1267,8.1268,8.1486,8.2054,8.1472,8.1315,8.1803,8.0795,8.0623,8.1513,8.1223,8.125,8.203,8.2281,8.3048,8.4123,8.4909,8.5582,8.6128,8.6142,8.6124,8.6155,8.5989,8.6102,8.6062,8.5918,8.5567,8.4807,8.4698,8.4913,8.5709,8.5582,8.5347,8.4715,8.461,8.4474,8.4209,8.4284,8.4449,8.4742,8.4834,8.4798,8.497,8.508,8.497,8.5062,8.505,8.505,8.505,8.5093,8.4865,8.4588,8.4619,8.4773,8.4113,8.3649,8.3309,8.3604,8.3943,8.3551,8.3508,8.3666,8.3997,8.4359,8.4726,8.4937,8.4968,8.4926,8.4821,8.4803,8.4742,8.505,8.5062,8.5062,8.5093,8.841,8.8463,8.8464,8.8466,8.8466,8.8466,8.8466,8.8436,8.8005,8.7839,8.7666,8.6853,8.6188,8.5678,8.4557,8.3541,8.2789,8.2728,8.2759,8.2789,8.319,8.3436,8.3431,8.3524,8.3458,8.3301,8.2613,8.1749,8.0879,8.0823,8.0823,8.0823,8.0823,8.1003,8.1291,8.1003,8.0973,8.1351,8.1033,8.1077,8.1604,8.1495,8.1939,8.2953,8.2385,8.22,8.2741,8.2266,8.2194,8.2527,8.2867,8.3297,8.3681,8.434,8.4874,8.537,8.5706,8.5961,8.6103,8.5538,8.5372,8.5795,8.5226,8.5102,8.5344,8.5126,8.484,8.4851,8.4515,8.4682,8.5062,8.4751,8.4238,8.4293,8.428,8.4422,8.4652,8.4742,8.4834,8.505,8.5093,8.502,8.4875,8.4948,8.5093,8.5093,8.5093,8.5093,8.5093,8.5093,8.4988,8.4865,8.4926,8.5019,8.4834,8.4157,8.3836,8.4082,8.4277,8.43,8.4285,8.436,8.4709,8.4696,8.4988,8.505,8.505,8.505,8.5093,8.5093,8.5093,8.5093,8.5093,8.5093,8.5093,8.839,8.8793,8.9091,8.9205,8.9205,8.9205,8.9205,8.9113,8.8497,8.8189,8.8035,8.7235,8.6558,8.6047,8.5401,8.4649,8.3757,8.3541,8.3418,8.3449,8.388,8.3918,8.3665,8.3982,8.3795,8.3116,8.2697,8.2102,8.1519,8.1452,8.1471,8.1452,8.1441,8.168,8.1979,8.165,8.171,8.1949,8.165,8.171,8.2047,8.1941,8.2326,8.3175,8.3014,8.2946,8.3204,8.3162,8.311,8.3186,8.3738,8.412,8.4206,8.4792,8.5309,8.5498,8.5513,8.5625,8.5729,8.5174,8.4993,8.5412,8.4886,8.4649,8.5001,8.468,8.4711,8.4896,8.4724,8.4631,8.4803,8.4316,8.3941,8.4342,8.4434,8.4588,8.505,8.5062,8.5062,8.5044,8.4935,8.4808,8.4753,8.4966,8.5075,8.5093,8.5093,8.5093,8.5093,8.5093,8.5093,8.5093,8.508,8.5093,8.4988,8.4619,8.4403,8.4649,8.468,8.4773,8.4865,8.5001,8.5093,8.5093,8.5093,8.5093,8.5093,8.5093,8.5093,8.5093,8.5093,8.5093,8.5093,8.5093,8.5093,8.8824,8.916,8.9205,8.9205,8.9205,8.9205,8.9205,8.9113,8.8497,8.8189,8.8035,8.6816,8.6281,8.5955,8.5462,8.5111,8.4834,8.4342,8.4095,8.4126,8.4121,8.423,8.4338,8.3825,8.3526,8.327,8.2954,8.2765,8.2627,8.2597,8.2597,8.2717,8.2627,8.2597,8.2776,8.2627,8.2687,8.2687,8.2627,8.2687,8.2776,8.2694,8.2864,8.3315,8.3344,8.3414,8.3495,8.3309,8.326,8.3251,8.3256,8.3194,8.3406,8.353,8.3591,8.4258,8.4238,8.4511,8.504,8.512,8.5045,8.5151,8.5068,8.5001,8.5031,8.505,8.505,8.508,8.505,8.5062,8.5062,8.4957,8.4926,8.508,8.497,8.5019,8.5062,8.5093,8.5075,8.5002,8.4771,8.4698,8.4917,8.5075,8.5093,8.5093,8.5093,8.5093,8.5093,8.5093,8.5093,8.5093,8.5093,8.5093,8.5093,8.5062,8.5031,8.5031,8.5001,8.5001,8.497,8.5093,8.5093,8.5093,8.5093,8.5093,8.5093,8.5093,8.5093,8.5093,8.5093,8.5093,8.5093,8.5093,8.5093,8.9343,8.9456,8.9275,8.9205,8.9205,8.9205,8.9205,8.9144,8.8516,8.8189,8.8035,8.7235,8.6589,8.6139,8.5862,8.5524,8.5111,8.4847,8.4785,8.4718,8.4501,8.438,8.4332,8.3762,8.3272,8.3022,8.2863,8.2806,8.2806,8.2806,8.2806,8.2806,8.2806,8.2806,8.2806,8.2806,8.2806,8.2806,8.2806,8.2806,8.2806,8.2806,8.2882,8.3014,8.3484,8.3742,8.3782,8.3941,8.4176,8.4416,8.4465,8.4495,8.4465,8.4447,8.4557,8.4724,8.4803,8.4865,8.505,8.5093,8.5093,8.5093,8.5093,8.5093,8.5093,8.5093,8.5093,8.5093,8.5093,8.5093,8.5093,8.5093,8.5093,8.5093,8.5093,8.5093,8.5093,8.5057,8.4838,8.4454,8.4656,8.4747,8.4497,8.4674,8.5093,8.5093,8.5093,8.5093,8.5093,8.5093,8.5093,8.5093,8.5093,8.5093,8.5093,8.5093,8.5093,8.5093,8.5093,8.5093,8.5093,8.5093,8.5093,8.5093,8.5093,8.5093,8.5093,8.5093,8.5093,8.5093,8.5093,8.5093,8.5093,8.5093,8.5093,8.9575,8.9475,8.9552,8.9401,8.9236,8.9205,8.9205,8.9113,8.8466,8.8066,8.7728,8.7081,8.6558,8.6109,8.5862,8.5647,8.5432,8.5234,8.502,8.4844,8.4643,8.4369,8.4055,8.3472,8.3052,8.2863,8.2806,8.2806,8.2806,8.2806,8.2806,8.2806,8.2806,8.2806,8.2806,8.2806,8.2806,8.2806,8.2806,8.2806,8.2806,8.2806,8.2806,8.2901,8.3379,8.3752,8.3901,8.4277,8.468,8.502,8.5093,8.5093,8.5093,8.5062,8.5093,8.5093,8.5062,8.508,8.5093,8.5093,8.5093,8.5093,8.5093,8.5093,8.5093,8.5093,8.5093,8.5093,8.5093,8.5093,8.5093,8.4948,8.5058,8.5462,8.5234,8.5093,8.5075,8.4711,8.4491,8.4252,8.4424,8.4417,8.4387,8.4638,8.5075,8.5093,8.5093,8.5093,8.5093,8.5093,8.5093,8.5093,8.5093,8.5093,8.5093,8.5093,8.5093,8.5093,8.5093,8.5093,8.5093,8.5093,8.5093,8.5093,8.5093,8.5093,8.5093,8.5093,8.5093,8.5093,8.5093,8.5093,8.5093,8.5093,8.5093,8.9741,8.9475,8.9986,8.9863,8.9359,8.9328,8.9267,8.9113,8.8497,8.7881,8.7297,8.6712,8.6281,8.6047,8.5788,8.5788,8.5985,8.5574,8.5066,8.4729,8.4545,8.4243,8.3458,8.3052,8.2863,8.2806,8.2806,8.2806,8.2806,8.2806,8.2806,8.2806,8.2896,8.2836,8.2866,8.2836,8.3016,8.2937,8.2986,8.2997,8.2956,8.2896,8.2896,8.2915,8.3289,8.3682,8.4071,8.4393,8.4717,8.5057,8.5093,8.5093,8.5093,8.5093,8.5093,8.5093,8.5093,8.5093,8.5093,8.5093,8.5093,8.5093,8.5093,8.5142,8.5216,8.5278,8.5357,8.545,8.5419,8.5357,8.5285,8.5029,8.5268,8.5808,8.5611,8.5322,8.5022,8.4256,8.4283,8.4526,8.4318,8.4238,8.4748,8.5164,8.5303,8.5216,8.5247,8.5247,8.5093,8.5093,8.5093,8.5093,8.5093,8.5093,8.5093,8.5093,8.5093,8.5093,8.5093,8.5093,8.5093,8.5093,8.5093,8.5093,8.5093,8.5093,8.5093,8.5093,8.5093,8.5093,8.5093,8.5093,8.5093,8.5093,8.5093,9.0922,9.1382,9.1094,9.0559,8.9986,8.9925,8.9648,8.9144,8.8497,8.8189,8.7789,8.7204,8.6915,8.6884,8.673,8.6743,8.6712,8.6317,8.5645,8.4986,8.5024,8.4242,8.3183,8.2863,8.2806,8.2806,8.2806,8.2806,8.2806,8.2806,8.2836,8.2836,8.3247,8.3217,8.2956,8.3715,8.3906,8.3617,8.3965,8.3906,8.3517,8.3438,8.3468,8.3514,8.3669,8.4092,8.4582,8.4846,8.4935,8.5075,8.5093,8.5093,8.5093,8.5093,8.5093,8.5093,8.5093,8.5093,8.5111,8.5124,8.5093,8.5093,8.5234,8.5327,8.5801,8.5832,8.6096,8.6466,8.6669,8.6607,8.6533,8.6218,8.608,8.5916,8.5981,8.5812,8.5203,8.5166,8.5338,8.5508,8.5616,8.5773,8.591,8.6207,8.6342,8.5955,8.5801,8.5647,8.537,8.5203,8.5265,8.5124,8.5093,8.5093,8.5093,8.5093,8.5093,8.5093,8.5093,8.5142,8.5142,8.5173,8.5093,8.5093,8.5093,8.5093,8.5093,8.5093,8.5093,8.5093,8.5093,8.5093,8.5093,8.5093,8.5075,9.1522,9.1782,9.1679,9.1248,9.0663,9.0602,9.0386,8.9955,8.9328,8.8866,8.8528,8.7912,8.7654,8.7592,8.7315,8.7265,8.7293,8.6773,8.5993,8.5232,8.5043,8.4316,8.3364,8.2967,8.2806,8.2806,8.2806,8.2937,8.3087,8.2937,8.3076,8.3536,8.3647,8.3666,8.3726,8.4235,8.4515,8.4245,8.4515,8.4485,8.4156,8.3856,8.3897,8.407,8.4306,8.479,8.5669,8.5968,8.5758,8.5278,8.5093,8.5093,8.5093,8.5093,8.5093,8.5093,8.5093,8.5203,8.548,8.5524,8.5665,8.5911,8.5973,8.6158,8.6496,8.6589,8.6804,8.705,8.7192,8.7192,8.7179,8.7046,8.6556,8.5956,8.637,8.6374,8.5418,8.5486,8.5729,8.593,8.6263,8.6564,8.6602,8.695,8.6933,8.6681,8.6589,8.6188,8.5758,8.5604,8.545,8.5388,8.5265,8.5265,8.5216,8.5216,8.5234,8.5203,8.5696,8.5634,8.5419,8.5419,8.5388,8.5357,8.5185,8.5093,8.5155,8.5155,8.5093,8.5093,8.5093,8.5093,8.5093,8.499,8.5002,9.1755,9.1463,9.2079,9.1905,9.1371,9.131,9.1178,9.0986,9.0459,8.9825,8.9202,8.8644,8.8436,8.827,8.7851,8.7583,8.7695,8.7093,8.6298,8.561,8.5046,8.4384,8.4085,8.3476,8.3236,8.3177,8.3046,8.3356,8.3636,8.3326,8.3626,8.4235,8.4126,8.4215,8.4515,8.4863,8.4874,8.4863,8.5043,8.5043,8.4784,8.4395,8.4434,8.4905,8.5304,8.5888,8.6729,8.7007,8.6607,8.5388,8.5327,8.545,8.5419,8.5339,8.5388,8.545,8.5542,8.5727,8.6096,8.6232,8.6466,8.6896,8.7038,8.7254,8.7254,8.7297,8.7389,8.7635,8.7438,8.7518,8.7373,8.7515,8.7032,8.6255,8.6668,8.6772,8.6181,8.5753,8.5714,8.6066,8.6563,8.679,8.6978,8.7116,8.7389,8.7358,8.7235,8.6927,8.6496,8.6281,8.6035,8.5739,8.5634,8.548,8.5419,8.537,8.5388,8.545,8.6312,8.6466,8.6035,8.5911,8.5819,8.5758,8.5727,8.5573,8.537,8.5308,8.5185,8.5093,8.5093,8.5093,8.5093,8.4899,8.4844,9.2564,9.2776,9.293,9.2602,9.2048,9.1987,9.1514,9.0799,9.0927,9.0389,8.9651,8.9648,8.9401,8.8971,8.8717,8.8639,8.823,8.769,8.716,8.6336,8.5161,8.5043,8.5013,8.4594,8.4295,8.4235,8.4265,8.4354,8.4414,8.4325,8.4395,8.4664,8.5043,8.5073,8.4893,8.5701,8.597,8.5671,8.594,8.5881,8.5521,8.5282,8.5378,8.5888,8.6598,8.6999,8.7123,8.7192,8.7038,8.6804,8.6761,8.673,8.6619,8.6619,8.6607,8.6589,8.665,8.6743,8.6927,8.6958,8.702,8.7266,8.7408,8.7438,8.7943,8.7974,8.8251,8.8589,8.8774,8.8336,8.7829,8.8119,8.7589,8.6829,8.6853,8.7062,8.6693,8.672,8.6903,8.734,8.7783,8.8257,8.8523,8.8507,8.8466,8.8097,8.7851,8.7635,8.7327,8.7007,8.6681,8.6373,8.6312,8.6219,8.6158,8.6065,8.5942,8.6035,8.6804,8.7266,8.6835,8.6669,8.6681,8.6503,8.6281,8.6096,8.5911,8.5469,8.534,8.5241,8.5198,8.5261,8.5261,8.4998,8.4809,9.3308,9.3719,9.3719,9.3299,9.2686,9.2466,9.2083,9.1557,9.1409,9.0915,9.029,9.025,8.9871,8.933,8.9054,8.8678,8.8216,8.7603,8.7083,8.6588,8.591,8.587,8.605,8.5761,8.5402,8.4844,8.4664,8.4814,8.5013,8.4953,8.4993,8.5551,8.5701,8.5701,8.5641,8.6349,8.6439,8.6289,8.6499,8.6499,8.62,8.584,8.6033,8.6698,8.7535,8.8069,8.8152,8.8177,8.8128,8.8128,8.8097,8.7789,8.7297,8.7192,8.7192,8.7192,8.7192,8.7389,8.7562,8.7715,8.7839,8.8097,8.8128,8.8312,8.8559,8.8651,8.8691,8.8873,8.882,8.859,8.7992,8.7817,8.7536,8.7241,8.6985,8.6926,8.6827,8.7064,8.7457,8.7856,8.824,8.8674,8.9003,8.9167,8.9144,8.862,8.862,8.8405,8.7943,8.7604,8.7358,8.7112,8.71,8.7038,8.6977,8.6835,8.665,8.6866,8.7358,8.7697,8.7604,8.7615,8.7656,8.7283,8.6835,8.6773,8.6539,8.6066,8.5771,8.606,8.6054,8.5802,8.5586,8.5523,8.5316,9.389,9.4139,9.4139,9.375,9.3178,9.2757,9.2507,9.2345,9.1917,9.1261,9.0868,9.0473,9.0142,8.9411,8.901,8.8454,8.775,8.7152,8.6718,8.6638,8.6559,8.6499,8.6559,8.6439,8.606,8.5073,8.5143,8.5432,8.5581,8.5402,8.5671,8.6409,8.615,8.614,8.6559,8.6678,8.6648,8.6619,8.6648,8.6678,8.6589,8.617,8.6352,8.7161,8.7985,8.8651,8.8895,8.902,8.9113,8.9205,8.9205,8.8589,8.7869,8.75,8.7481,8.7562,8.7685,8.7912,8.8251,8.8374,8.8589,8.9174,8.9174,8.9144,8.9144,8.9018,8.8846,8.8686,8.8524,8.8263,8.7837,8.7583,8.7359,8.7143,8.6867,8.6748,8.6788,8.7064,8.7477,8.7856,8.8332,8.8736,8.9034,8.9205,8.9205,8.9205,8.9174,8.9032,8.8571,8.8263,8.8017,8.8005,8.7974,8.7715,8.7604,8.782,8.7604,8.7524,8.7955,8.8083,8.8218,8.819,8.8076,8.7692,8.7337,8.7184,8.6944,8.6506,8.6457,8.6894,8.6715,8.6161,8.604,8.6051,8.5729,9.3875,9.338,9.338,9.3299,9.3147,9.2748,9.2357,9.2043,9.1912,9.1284,9.0577,9.1027,9.0382,8.9414,8.9363,8.8656,8.7509,8.6906,8.6708,8.6708,8.6708,8.6708,8.6708,8.6678,8.6499,8.6469,8.6259,8.6319,8.6409,8.6469,8.6349,8.6638,8.6559,8.6619,8.6648,8.6708,8.6708,8.6708,8.6708,8.6708,8.6648,8.6697,8.6862,8.7652,8.8317,8.8812,8.911,8.9205,8.9205,8.9205,8.9205,8.9032,8.8805,8.8713,8.8713,8.8682,8.8651,8.8713,8.8897,8.899,8.9051,8.9174,8.9205,8.9205,8.9129,8.8889,8.8678,8.8448,8.8158,8.7817,8.7457,8.73,8.7123,8.6896,8.6758,8.6708,8.6788,8.7064,8.7477,8.7856,8.8313,8.8736,8.9015,8.9205,8.9205,8.9205,8.9205,8.9098,8.8826,8.8772,8.8779,8.8829,8.894,8.8559,8.8189,8.8559,8.8651,8.8263,8.8391,8.8497,8.8574,8.8563,8.8353,8.7791,8.7471,8.7261,8.7009,8.6834,8.6837,8.7072,8.6764,8.6449,8.6397,8.6354,8.5854,9.3938,9.341,9.341,9.3269,9.2945,9.2236,9.2022,9.2029,9.1737,9.1159,9.0766,9.091,9.0464,8.9356,8.89,8.8179,8.7204,8.6827,8.6708,8.6708,8.6708,8.6708,8.6708,8.6708,8.6708,8.6678,8.6678,8.6708,8.6678,8.6678,8.6708,8.6678,8.6708,8.6708,8.6708,8.6708,8.6708,8.6708,8.6708,8.6708,8.6758,8.7014,8.7564,8.7914,8.8524,8.8996,8.9129,8.9205,8.9205,8.9205,8.9205,8.9205,8.9205,8.9186,8.9205,8.9205,8.9205,8.9205,8.9205,8.9205,8.9205,8.9205,8.9186,8.9205,8.911,8.8831,8.839,8.7964,8.7575,8.7211,8.7005,8.7025,8.6906,8.6788,8.6708,8.6708,8.6807,8.7084,8.7477,8.7876,8.8351,8.8755,8.9091,8.9205,8.9205,8.9205,8.9205,8.9091,8.8946,8.8869,8.8869,8.8927,8.8946,8.8895,8.8575,8.8829,8.9125,8.8878,8.8615,8.872,8.8524,8.8332,8.8061,8.7635,8.7415,8.7357,8.7541,8.7543,8.7409,8.7219,8.7088,8.6927,8.6773,8.6511,8.6088,9.3738,9.3241,9.3241,9.3038,9.2568,9.1704,9.16,9.1911,9.1416,9.0969,9.0682,9.0807,9.0356,8.9209,8.8306,8.7475,8.6728,8.6708,8.6708,8.6708,8.6708,8.6708,8.6708,8.6708,8.6708,8.6708,8.6708,8.6708,8.6708,8.6708,8.6708,8.6708,8.6708,8.6708,8.6708,8.6708,8.6708,8.6708,8.6708,8.6708,8.6876,8.7368,8.7837,8.7953,8.8659,8.9072,8.9186,8.9205,8.9205,8.9205,8.9205,8.9205,8.9186,8.9129,8.9129,8.9186,8.9205,8.9205,8.9205,8.9205,8.9205,8.9205,8.911,8.9091,8.8919,8.8505,8.7953,8.729,8.6966,8.6807,8.6788,8.6728,8.6728,8.6728,8.6708,8.6748,8.6867,8.7123,8.7544,8.7973,8.8409,8.8755,8.911,8.9205,8.9205,8.911,8.9091,8.8919,8.8736,8.8505,8.8486,8.8582,8.8678,8.8908,8.8899,8.8944,8.9136,8.9094,8.8754,8.8609,8.8255,8.7886,8.7633,8.7477,8.7661,8.7655,8.7962,8.8089,8.7804,8.7578,8.7501,8.7356,8.7095,8.682,8.6496,9.2732,9.2114,9.2114,9.2043,9.1982,9.1482,9.1318,9.1397,9.0926,9.0659,9.0618,9.0922,9.0292,8.8916,8.7527,8.6918,8.6788,8.6798,8.6768,8.6708,8.6768,8.6768,8.6708,8.6708,8.6708,8.6708,8.6708,8.6708,8.6708,8.6708,8.6708,8.6708,8.6708,8.6708,8.6708,8.6708,8.6708,8.6708,8.6708,8.6708,8.6807,8.7202,8.7583,8.7953,8.8448,8.8889,8.9167,8.9205,8.9205,8.9205,8.9186,8.9186,8.9148,8.8831,8.8908,8.9091,8.9205,8.9205,8.9205,8.9205,8.9205,8.9129,8.8908,8.8716,8.8448,8.7984,8.7418,8.6887,8.6728,8.6708,8.6708,8.6708,8.6708,8.6738,8.6798,8.6738,8.6837,8.7581,8.7962,8.8011,8.8428,8.8774,8.9129,8.9167,8.9186,8.9091,8.8938,8.8697,8.8467,8.8177,8.8128,8.8274,8.8544,8.8793,8.9053,8.9129,8.9072,8.9148,8.8755,8.839,8.7964,8.7575,8.7418,8.734,8.7536,8.7633,8.7672,8.772,8.7876,8.7778,8.7486,8.7418,8.7329,8.7064,8.6728,9.1632,9.1595,9.1565,9.1612,9.1657,9.115,9.1127,9.1316,9.085,9.0597,9.0638,9.0783,9.0265,8.9093,8.7876,8.7287,8.7257,8.7227,8.7038,8.6918,8.7038,8.7067,8.6768,8.6708,8.6708,8.6708,8.6708,8.6708,8.6708,8.6708,8.6708,8.6708,8.6708,8.6708,8.6708,8.6708,8.6708,8.6708,8.6708,8.6708,8.6837,8.727,8.77,8.7914,8.8582,8.8965,8.9148,8.9205,8.9205,8.9167,8.9034,8.8881,8.8755,8.8505,8.839,8.8824,8.923,8.9345,8.9229,8.9217,8.9217,8.911,8.8793,8.8409,8.7964,8.7566,8.7153,8.6748,8.6728,8.6708,8.6738,8.6708,8.6708,8.6768,8.7127,8.7017,8.7206,8.7969,8.848,8.844,8.8409,8.864,8.8843,8.8785,8.8785,8.8716,8.8467,8.8139,8.7925,8.7672,8.7739,8.7973,8.8351,8.8747,8.8996,8.9148,8.8927,8.885,8.8409,8.8011,8.7603,8.732,8.7163,8.7025,8.7045,8.7143,8.7261,8.7516,8.7739,8.7603,8.7407,8.73,8.7163,8.6985,8.6708,9.0804,9.1114,9.1114,9.1228,9.1306,9.0806,9.0887,9.1246,9.0827,9.0597,9.0558,9.0459,9.012,8.9462,8.8384,8.7736,8.7945,8.7796,8.7437,8.7287,8.7317,8.7227,8.6888,8.6708,8.6708,8.6708,8.6708,8.6708,8.6708,8.6708,8.6708,8.6708,8.6708,8.6708,8.6708,8.6708,8.6708,8.6708,8.6708,8.6708,8.6817,8.7486,8.7798,8.8147,8.8659,8.9205,8.9186,8.9072,8.9034,8.8977,8.8621,8.8428,8.837,8.8166,8.8186,8.8666,8.921,8.9579,8.9533,8.9525,8.9302,8.8969,8.8505,8.7886,8.737,8.7233,8.7154,8.6758,8.6978,8.6978,8.6948,8.6978,8.7187,8.7427,8.7676,8.7547,8.7566,8.8263,8.8677,8.8608,8.849,8.8293,8.837,8.8293,8.8293,8.8332,8.8061,8.7603,8.7438,8.7281,8.7477,8.7739,8.8293,8.864,8.8843,8.8977,8.8812,8.8582,8.8108,8.772,8.7368,8.7113,8.6916,8.6777,8.6748,8.6946,8.7241,8.7457,8.7603,8.7447,8.729,8.7104,8.6946,8.6788,8.6708,9.0618,9.0659,9.0659,9.0689,9.0717,9.0627,9.0627,9.0746,9.0657,9.0597,9.0537,9.01,8.9911,8.9462,8.8654,8.8185,8.8624,8.8005,8.7796,8.7706,8.7646,8.7397,8.7008,8.6768,8.6708,8.6708,8.6708,8.6708,8.6708,8.6708,8.6708,8.6708,8.6708,8.6708,8.6708,8.6708,8.6708,8.6708,8.6708,8.6748,8.6985,8.7447,8.7895,8.8128,8.8697,8.9186,8.9167,8.8869,8.8716,8.8697,8.8205,8.7953,8.7914,8.7856,8.8042,8.8676,8.9377,8.9816,9.0025,8.9982,8.9571,8.8769,8.8105,8.762,8.7136,8.7457,8.7337,8.6908,8.7157,8.7467,8.7556,8.7646,8.7676,8.8095,8.8315,8.8425,8.8386,8.8476,8.8814,8.8777,8.8561,8.8257,8.7837,8.777,8.7848,8.7906,8.7653,8.7241,8.7182,8.7104,8.73,8.7633,8.8216,8.8544,8.864,8.8659,8.864,8.8351,8.7876,8.7544,8.7261,8.6995,8.6758,8.6847,8.6867,8.7045,8.7143,8.7222,8.727,8.729,8.7202,8.6985,8.6867,8.6748,8.6708,9.0597,9.0597,9.0597,9.0597,9.0597,9.0597,9.0597,9.0597,9.0597,9.0597,9.0567,9.0378,9.0279,8.998,8.9441,8.9043,8.9282,8.9103,8.8684,8.8394,8.8215,8.7885,8.7427,8.6888,8.6708,8.6708,8.6708,8.6708,8.6708,8.6708,8.6708,8.6708,8.6708,8.6708,8.6708,8.6708,8.6708,8.6708,8.6748,8.6807,8.7182,8.7564,8.8031,8.8409,8.8812,8.9167,8.9148,8.8793,8.8659,8.8409,8.7856,8.7622,8.7564,8.7594,8.8019,8.8773,8.9597,9.0245,9.0562,9.0515,9.0002,8.9271,8.8685,8.8166,8.7467,8.7915,8.7616,8.7367,8.7397,8.7856,8.7736,8.7736,8.7885,8.8544,8.8964,8.9165,8.9207,8.9209,8.9038,8.9035,8.8531,8.8099,8.762,8.7172,8.7309,8.7407,8.7143,8.6946,8.6985,8.7143,8.7418,8.775,8.8332,8.8659,8.8755,8.8659,8.8505,8.81,8.7672,8.7349,8.7064,8.6926,8.6768,8.6847,8.6887,8.6906,8.6926,8.6926,8.6966,8.7025,8.6955,8.6837,8.6738,8.6728,8.6708,9.0438,9.0567,9.0408,9.0438,9.0597,9.0597,9.0597,9.0597,9.0597,9.0597,9.0597,9.0597,9.0468,9.0199,8.9651,8.9522,8.9492,8.9342,8.9043,8.8803,8.8544,8.8155,8.7516,8.7008,8.6708,8.6708,8.6708,8.6708,8.6708,8.6708,8.6708,8.6708,8.6708,8.6708,8.6708,8.6708,8.6708,8.6708,8.6867,8.6985,8.734,8.7867,8.8205,8.8563,8.8831,8.8957,8.8824,8.8448,8.8139,8.7906,8.7575,8.7261,8.73,8.7518,8.7973,8.886,8.9741,9.0512,9.0785,9.0581,9.0067,8.9348,8.9068,8.8617,8.8405,8.8544,8.8444,8.7696,8.7945,8.8274,8.8245,8.8474,8.8783,8.9471,8.9741,8.9913,8.9867,8.984,8.952,8.9289,8.8737,8.8286,8.8136,8.7706,8.7395,8.7374,8.6955,8.6926,8.7123,8.7359,8.77,8.81,8.8563,8.8774,8.8957,8.8563,8.8177,8.775,8.7359,8.7074,8.6817,8.6718,8.6708,8.6768,8.6768,8.6728,8.6748,8.6807,8.6788,8.6748,8.6718,8.6738,8.6718,8.6708,8.6708,9.007,9.0477,8.995,9.007,9.0507,9.0618,9.0597,9.0597,9.0597,9.0597,9.0597,9.0597,9.0319,8.983,8.9402,8.9432,8.9522,8.9163,8.8833,8.8744,8.8514,8.7846,8.7247,8.6798,8.6708,8.6708,8.6708,8.6708,8.6708,8.6708,8.6708,8.6708,8.6708,8.6708,8.6708,8.6708,8.6708,8.6788,8.7104,8.7261,8.7614,8.8158,8.8486,8.8601,8.8659,8.8716,8.8467,8.7945,8.7633,8.7496,8.7093,8.7005,8.7281,8.7622,8.8163,8.8864,8.943,9.005,9.0572,9.0197,8.9911,8.9591,8.9397,8.8984,8.8914,8.9163,8.9252,8.8384,8.8923,8.9372,8.9522,8.9582,8.9801,9.0079,9.0319,9.042,9.0345,9.0257,8.9939,8.9549,8.9076,8.8674,8.8644,8.8465,8.7836,8.7427,8.6878,8.6917,8.7303,8.7653,8.8061,8.8332,8.8716,8.8869,8.8889,8.8282,8.7837,8.7388,8.7104,8.6857,8.6738,8.6698,8.6708,8.6708,8.6708,8.6708,8.6708,8.6728,8.6708,8.6708,8.6708,8.6698,8.6728,8.6708,8.6708,8.9552,8.9352,8.9582,8.9821,9.004,9.0438,9.0597,9.0597,9.0597,9.0597,9.0597,9.0597,9.0537,9.0229,9.001,8.9771,8.9572,8.9552,8.9252,8.8654,8.8304,8.7885,8.7317,8.6858,8.6708,8.6708,8.6708,8.6708,8.6708,8.6708,8.6708,8.6708,8.6708,8.6708,8.6708,8.6748,8.6777,8.7064,8.73,8.7555,8.81,8.8428,8.8601,8.8582,8.8582,8.8409,8.8158,8.7516,8.7281,8.7222,8.6857,8.6946,8.732,8.7731,8.8534,8.9463,9.0214,9.0479,9.09,9.0889,9.0636,9.0228,8.9933,8.9651,8.9522,8.995,8.9621,8.9172,8.9462,8.9701,8.9662,8.9642,8.9881,9.0348,9.0537,9.0558,9.0521,9.0491,9.0242,8.9834,8.9372,8.9103,8.8963,8.9112,8.8663,8.8336,8.7956,8.7756,8.7984,8.8168,8.8448,8.8582,8.8812,8.8965,8.8869,8.8244,8.7817,8.7466,8.7093,8.6788,8.6728,8.6708,8.6708,8.6708,8.6708,8.6708,8.6708,8.6708,8.6708,8.6708,8.6708,8.6708,8.6708,8.6708,8.6708,8.8893,8.8744,8.8923,8.9282,8.9731,9.0348,9.0597,9.0597,9.0597,9.0597,9.0597,9.0597,9.0438,9.0319,9.0229,8.995,8.9423,8.9312,8.8963,8.8364,8.7945,8.7556,8.7197,8.6978,8.6738,8.6708,8.6708,8.6708,8.6708,8.6708,8.6708,8.6708,8.6708,8.6708,8.6708,8.6748,8.6906,8.7202,8.7457,8.7886,8.8332,8.8601,8.8601,8.8486,8.8313,8.7953,8.7661,8.7379,8.7104,8.7025,8.6966,8.6985,8.7448,8.8142,8.8997,9.005,9.0667,9.0677,9.0676,9.0922,9.0677,9.053,9.0597,9.0408,9.013,9.0348,9.0139,8.983,8.983,8.989,8.998,8.998,9.016,9.0597,9.0597,9.0618,9.0618,9.0558,9.0498,9.007,8.992,8.9591,8.9412,8.9501,8.9481,8.9335,8.9137,8.8958,8.8736,8.8832,8.8888,8.8942,8.8896,8.8931,8.8728,8.8186,8.7817,8.7525,8.7133,8.6748,8.6708,8.6708,8.6708,8.6708,8.6708,8.6708,8.6708,8.6708,8.6708,8.6708,8.6708,8.6708,8.6708,8.6708,8.6708,8.8065,8.8504,8.8005,8.8514,8.9642,9.0319,9.0597,9.0597,9.0597,9.0597,9.0597,9.0597,9.0408,8.9911,8.9791,8.9432,8.8923,8.8803,8.8274,8.7856,8.7526,8.7167,8.6948,8.6738,8.6708,8.6708,8.6708,8.6708,8.6708,8.6708,8.6708,8.6708,8.6708,8.6708,8.6708,8.6748,8.6985,8.7349,8.7661,8.81,8.8486,8.8601,8.8486,8.8255,8.7848,8.7516,8.7241,8.7005,8.6827,8.6768,8.6788,8.7282,8.7875,8.8643,8.9413,9.0089,9.0672,9.0577,9.0238,9.0562,9.065,9.0597,9.0597,9.0588,9.0588,9.0537,9.0358,9.0328,9.0348,9.0468,9.0507,9.0477,9.0477,9.0597,9.0597,9.0597,9.0597,9.0597,9.0597,9.0498,9.0468,9.0319,9.0259,9.0268,9.0049,9.0104,8.9958,8.9941,8.9711,8.956,8.9533,8.9274,8.9168,8.8839,8.8528,8.8139,8.772,8.7407,8.7054,8.6708,8.6708,8.6708,8.6708,8.6708,8.6708,8.6708,8.6708,8.6708,8.6708,8.6708,8.6708,8.6708,8.6708,8.6708,8.6708,8.7526,8.7367,8.8095,8.8654,8.9112,9.0139,9.0597,9.0597,9.0597,9.0597,9.0597,9.0597,9.0468,9.0348,9.0319,8.9651,8.9052,8.8514,8.7906,8.7457,8.7097,8.6888,8.6768,8.6708,8.6708,8.6708,8.6708,8.6768,8.6738,8.6738,8.6738,8.6708,8.6708,8.6708,8.6748,8.6728,8.7133,8.7544,8.7817,8.8147,8.8448,8.8563,8.8293,8.7789,8.7496,8.7163,8.6926,8.6827,8.6708,8.6738,8.7187,8.7795,8.8656,8.93,9.0004,9.0643,9.1112,9.1293,9.0585,9.0507,9.0597,9.0597,9.0597,9.0597,9.0597,9.0597,9.0597,9.0597,9.0597,9.0597,9.0597,9.0597,9.0597,9.0597,9.0597,9.0597,9.0597,9.0597,9.0597,9.0597,9.0597,9.0597,9.0597,9.0567,9.0399,9.0572,9.0677,9.0683,9.0638,9.042,9.0074,8.9816,8.9466,8.9145,8.8558,8.8108,8.7681,8.73,8.6966,8.6708,8.6708,8.6708,8.6708,8.6708,8.6708,8.6708,8.6708,8.6708,8.6708,8.6708,8.6708,8.6708,8.6708,8.6708,8.6888,8.7067,8.6828,8.7546,8.8205,8.8893,9.0079,9.0597,9.0597,9.0597,9.0597,9.0597,9.0597,9.0597,9.0567,9.0477,8.99,8.8753,8.8624,8.8025,8.7008,8.6738,8.6708,8.6708,8.6708,8.6708,8.6738,8.6948,8.7167,8.7097,8.7067,8.7067,8.6708,8.6708,8.6827,8.6887,8.6906,8.7152,8.7603,8.7953,8.8186,8.8351,8.8409,8.7886,8.7438,8.7202,8.6926,8.6768,8.6728,8.6798,8.7067,8.7686,8.8386,8.9321,9.0087,9.0696,9.1253,9.1344,9.1208,9.0661,9.0567,9.0597,9.0597,9.0597,9.0597,9.0597,9.0597,9.0597,9.0597,9.0597,9.0597,9.0597,9.0597,9.0597,9.0597,9.0597,9.0597,9.0597,9.0597,9.0597,9.0597,9.0597,9.0597,9.0597,9.0597,9.0638,9.0691,9.0877,9.1055,9.1081,9.105,9.0637,9.0225,8.9833,8.9451,8.8775,8.8053,8.7505,8.7143,8.6906,8.6708,8.6708,8.6708,8.6708,8.6708,8.6708,8.6708,8.6708,8.6708,8.6708,8.6708,8.6708,8.6708,8.6708,8.6708,8.7008,8.6708,8.6708,8.6828,8.7756,8.8863,9.0019,9.0477,9.0507,9.0498,9.0537,9.0567,9.0597,9.0597,9.0597,9.0567,8.996,8.9112,8.8774,8.8115,8.6828,8.6918,8.6888,8.6738,8.6768,8.6948,8.7067,8.7257,8.7556,8.7686,8.7616,8.7287,8.6828,8.6858,8.7017,8.7226,8.7247,8.7505,8.7856,8.8021,8.8097,8.8169,8.8042,8.7661,8.7261,8.6966,8.6728,8.6728,8.6798,8.7008,8.7576,8.8256,8.8916,9.0101,9.1036,9.1627,9.1557,9.1464,9.1104,9.0763,9.0597,9.0597,9.0597,9.0597,9.0717,9.0776,9.0657,9.0597,9.0597,9.0597,9.0597,9.0597,9.0597,9.0597,9.0597,9.0597,9.0597,9.0597,9.0597,9.0597,9.0597,9.0597,9.0597,9.0597,9.0597,9.0742,9.0763,9.0949,9.1267,9.1486,9.1535,9.1157,9.0683,9.0222,8.9683,8.8675,8.7982,8.7311,8.6916,8.6768,8.6708,8.6708,8.6708,8.6708,8.6708,8.6708,8.6708,8.6708,8.6708,8.6708,8.6708,8.6708,8.6708,8.6708,8.6708,8.7247,8.6708,8.6798,8.7816,8.8714,8.9432,8.9791,8.9911,8.9911,8.9911,9.016,9.0537,9.0597,9.0597,9.0597,9.0597,9.0079,8.9462,8.8803,8.8205,8.7616,8.7377,8.7217,8.6978,8.7307,8.7407,8.7496,8.7676,8.8065,8.8304,8.8095,8.7945,8.8085,8.7786,8.7586,8.7756,8.7816,8.8146,8.8301,8.8221,8.7949,8.7745,8.7566,8.7261,8.6985,8.6708,8.6738,8.6738,8.6708,8.7097,8.7646,8.8607,8.9822,9.1335,9.1991,9.1972,9.1555,9.1319,9.099,9.0742,9.0597,9.0597,9.0597,9.0687,9.0956,9.1016,9.0746,9.0627,9.0627,9.0597,9.0597,9.0597,9.0597,9.0597,9.0597,9.0597,9.0597,9.0597,9.0597,9.0597,9.0597,9.0597,9.0597,9.0597,9.0701,9.0825,9.0969,9.1164,9.1412,9.177,9.1898,9.1633,9.1142,9.0642,8.9954,8.8754,8.7827,8.7144,8.6857,8.6748,8.6708,8.6708,8.6708,8.6708,8.6708,8.6708,8.6708,8.6708,8.6708,8.6708,8.6708,8.6708,8.6708,8.6708,8.6708,8.7457,8.6708,8.6888,8.8145,8.8744,8.8893,8.9432,8.9572,8.9282,8.9252,8.9432,8.987,9.0319,9.0597,9.0597,9.0597,9.0049,8.9402,8.8893,8.8274,8.7856,8.7796,8.7756,8.7756,8.7935,8.8085,8.8155,8.8504,8.8833,8.9013,8.8893,8.8833,8.8744,8.8325,8.8235,8.8366,8.8666,8.8766,8.8747,8.8577,8.8116,8.7595,8.7594,8.7294,8.6997,8.6918,8.6948,8.6738,8.6768,8.7307,8.8356,8.9631,9.0809,9.1871,9.2164,9.1901,9.1442,9.1123,9.0866,9.068,9.0597,9.0597,9.0597,9.0627,9.0866,9.0866,9.0657,9.0896,9.0896,9.0657,9.0627,9.0597,9.0597,9.0597,9.0597,9.0597,9.0597,9.0597,9.0597,9.0597,9.0597,9.0597,9.0597,9.068,9.0958,9.1072,9.1258,9.1401,9.1618,9.198,9.1936,9.1753,9.1246,9.0515,8.9508,8.8156,8.7431,8.6976,8.6788,8.6728,8.6708,8.6708,8.6708,8.6708,8.6708,8.6708,8.6708,8.6708,8.6708,8.6708,8.6708,8.6708,8.6708,8.6708,8.6708,8.7277,8.6708,8.6888,8.8055,8.8245,8.7915,8.8923,8.9103,8.8634,8.8594,8.8654,8.8953,9.001,9.0438,9.0498,9.0537,8.9741,8.9193,8.9103,8.8504,8.8095,8.8065,8.8205,8.8474,8.8723,8.8803,8.9043,8.9432,8.9612,8.9791,8.9552,8.9222,8.8953,8.8945,8.9016,8.9128,8.9097,8.9016,8.9047,8.8897,8.8475,8.8246,8.8076,8.7496,8.7257,8.7247,8.7317,8.7008,8.7038,8.7606,8.8897,9.0425,9.1365,9.1851,9.1952,9.1606,9.1175,9.0845,9.0701,9.0597,9.0597,9.0597,9.0597,9.0597,9.0627,9.0687,9.0776,9.1016,9.1046,9.0827,9.0627,9.0627,9.0597,9.0597,9.0597,9.0597,9.0597,9.0597,9.0597,9.0597,9.0597,9.0597,9.0597,9.0866,9.1144,9.134,9.1544,9.177,9.194,9.1985,9.1631,9.1316,9.0529,8.9592,8.8548,8.7771,8.7114,8.6807,8.6768,8.6708,8.6708,8.6708,8.6708,8.6708,8.6708,8.6708,8.6708,8.6708,8.6708,8.6708,8.6708,8.6708,8.6708,8.6708,8.6768,8.6978,8.6708,8.6768,8.7576,8.7796,8.7736,8.8005,8.8005,8.7915,8.7915,8.8155,8.8744,8.9402,8.9881,8.9911,9.0438,9.0079,8.9492,8.9363,8.9043,8.8604,8.8863,8.8893,8.9043,8.9352,8.9462,8.9731,9.004,9.0348,9.0219,8.9941,8.9911,9.0079,8.9612,8.9553,8.9544,8.9473,8.9433,8.9395,8.9105,8.8714,8.8863,8.8405,8.7427,8.7247,8.7317,8.7496,8.7526,8.7496,8.8325,8.9475,9.0602,9.1342,9.1565,9.1565,9.1258,9.0969,9.0638,9.0618,9.0597,9.0597,9.0597,9.0597,9.0657,9.0806,9.0806,9.0746,9.0986,9.1216,9.1007,9.0657,9.0597,9.0597,9.0597,9.0597,9.0597,9.0597,9.0597,9.0597,9.0597,9.0597,9.0597,9.0783,9.1144,9.1381,9.1687,9.1911,9.2225,9.2383,9.2267,9.1669,9.0942,8.9935,8.8942,8.8885,8.8646,8.7226,8.6748,8.6728,8.6708,8.6708,8.6708,8.6708,8.6708,8.6708,8.6708,8.6708,8.6708,8.6708,8.6708,8.6708,8.6708,8.6708,8.6708,8.6738,8.6888]},{"header":{"parameterUnit":"m.s-1","parameterCategory":1,"la1":31.0,"la2":29.5877,"lo1":-88.7671,"lo2":-86.6584,"dy":0.0162,"dx":0.0185,"nx":115,"ny":88,"refTime":"2024-10-15T18:00:00:Z","depth":0,"parameterNumber":3,"parameterNumberName":"V-component_of_WINDS"},"data":[0.0,0.0,0.0,0.0,0.0,0.0,0.0,0.0,0.0,0.0,0.0,0.0,0.0,0.0,0.0,0.0,0.0,0.0,0.0,0.0,0.0,0.0,0.0,0.0,0.0,0.0,0.0,0.0,0.0,0.0,0.0,0.0,0.0,0.0,0.0,0.0,0.0,0.0,0.0,0.0,0.0,0.0,0.0,0.0,0.0,0.0,0.0,0.0,0.0,0.0,0.0,0.0,0.0,0.0,0.0,0.0,0.0,0.0,0.0,0.0,0.0,0.0,0.0,0.0,0.0,0.0,0.0,0.0,0.0,0.0,0.0,0.0,0.0,0.0,0.0,0.0,0.0,0.0,0.0,0.0,0.0,0.0,0.0,0.0,0.0,0.0,0.0,0.0,0.0,0.0,0.0,0.0,0.0,0.0,0.0,0.0,0.0,0.0,0.0,0.0,0.0,0.0,0.0,0.0,0.0,0.0,0.0,0.0,0.0,0.0,0.0,0.0,0.0,0.0,0.0,0.0,0.0,0.0,0.0,0.0,0.0,0.0,0.0,0.0,0.0,0.0,0.0,0.0,0.0,0.0,0.0,0.0,0.0,0.0,0.0,0.0,0.0,0.0,0.0,0.0,0.0,0.0,0.0,0.0,0.0,0.0,0.0,0.0,0.0,0.0,0.0,0.0,0.0,0.0,0.0,0.0,0.0,0.0,0.0,0.0,0.0,0.0,0.0,0.0,0.0,0.0,0.0,0.0,0.0,0.0,0.0,0.0,0.0,0.0,0.0,0.0,0.0,0.0,0.0,0.0,0.0,0.0,0.0,0.0,0.0,0.0,0.0,0.0,0.0,0.0,0.0,0.0,0.0,0.0,0.0,0.0,0.0,0.0,0.0,0.0,0.0,0.0,0.0,0.0,0.0,0.0,0.0,0.0,0.0,0.0,0.0,0.0,0.0,0.0,0.0,0.0,0.0,0.0,0.0,0.0,0.0,0.0,0.0,0.0,0.0,0.0,0.0,0.0,0.0,0.0,0.0,0.0,0.0,0.0,0.0,0.0,0.0,0.0,0.0,0.0,0.0,0.0,0.0,0.0,0.0,0.0,0.0,0.0,0.0,0.0,0.0,0.0,0.0,0.0,0.0,0.0,0.0,0.0,0.0,0.0,0.0,0.0,0.0,0.0,0.0,0.0,0.0,0.0,0.0,0.0,0.0,0.0,0.0,0.0,0.0,0.0,0.0,0.0,0.0,0.0,0.0,0.0,0.0,0.0,0.0,0.0,0.0,0.0,0.0,0.0,0.0,0.0,0.0,0.0,0.0,0.0,0.0,0.0,0.0,0.0,0.0,0.0,0.0,0.0,0.0,0.0,0.0,0.0,0.0,0.0,0.0,0.0,0.0,0.0,0.0,0.0,0.0,0.0,0.0,0.0,0.0,0.0,0.0,0.0,0.0,0.0,0.0,0.0,0.0,0.0,0.0,0.0,0.0,0.0,0.0,0.0,0.0,0.0,0.0,0.0,0.0,0.0,0.0,0.0,0.0,0.0,0.0,0.0,0.0,0.0,0.0,0.0,0.0,0.0,0.0,0.0,0.0,0.0,0.0,0.0,0.0,0.0,0.0,0.0,0.0,0.0,0.0,0.0,0.0,0.0,0.0,0.0,0.0,0.0,0.0,0.0,0.0,0.0,0.0,0.0,0.0,0.0,0.0,0.0,0.0,0.0,0.0,0.0,0.0,0.0,0.0,0.0,0.0,0.0,0.0,0.0,0.0,0.0,0.0,0.0,0.0,0.0,0.0,0.0,0.0,0.0,0.0,0.0,0.0,0.0,0.0,0.0,0.0,0.0,0.0,0.0,0.0,0.0,0.0,0.0,0.0,0.0,0.0,0.0,0.0,0.0,0.0,0.0,0.0,0.0,0.0,0.0,0.0,0.0,0.0,0.0,0.0,0.0,0.0,0.0,0.0,0.0,0.0,0.0,0.0,0.0,0.0,0.0,0.0,0.0,0.0,0.0,0.0,0.0,0.0,0.0,0.0,0.0,0.0,0.0,0.0,0.0,0.0,0.0,0.0,0.0,0.0,0.0,0.0,0.0,0.0,0.0,0.0,0.0,0.0,0.0,0.0,0.0,0.0,0.0,0.0,0.0,0.0,0.0,0.0,0.0,0.0,0.0,0.0,0.0,0.0,0.0,0.0,0.0,0.0,0.0,0.0,0.0,0.0,0.0,0.0,0.0,0.0,0.0,0.0,0.0,0.0,0.0,0.0,0.0,0.0,0.0,0.0,0.0,0.0,0.0,0.0,0.0,0.0,0.0,0.0,0.0,0.0,0.0,0.0,0.0,0.0,0.0,0.0,0.0,0.0,0.0,0.0,0.0,0.0,0.0,0.0,0.0,0.0,0.0,0.0,0.0,0.0,0.0,0.0,0.0,0.0,0.0,0.0,0.0,0.0,0.0,0.0,0.0,0.0,0.0,0.0,0.0,0.0,0.0,0.0,0.0,0.0,0.0,0.0,0.0,0.0,0.0,0.0,0.0,0.0,0.0,0.0,0.0,0.0,0.0,0.0,0.0,0.0,0.0,0.0,0.0,0.0,0.0,0.0,0.0,0.0,0.0,0.0,0.0,0.0,0.0,0.0,0.0,0.0,0.0,0.0,0.0,0.0,0.0,0.0,0.0,0.0,0.0,0.0,0.0,0.0,0.0,0.0,0.0,0.0,0.0,0.0,0.0,0.0,0.0,0.0,0.0,0.0,0.0,0.0,0.0,0.0,0.0,0.0,0.0,0.0,0.0,0.0,0.0,0.0,0.0,0.0,0.0,0.0,0.0,0.0,0.0,0.0,0.0,0.0,0.0,0.0,0.0,0.0,0.0,0.0,0.0,0.0,0.0,0.0,0.0,0.0,0.0,0.0,0.0,0.0,0.0,0.0,0.0,0.0,0.0,0.0,0.0,0.0,0.0,0.0,0.0,0.0,0.0,0.0,0.0,0.0,0.0,0.0,0.0,0.0,0.0,0.0,0.0,0.0,0.0,0.0,0.0,0.0,0.0,0.0,0.0,0.0,0.0,0.0,0.0,0.0,0.0,0.0,0.0,0.0,0.0,0.0,0.0,0.0,0.0,0.0,0.0,0.0,0.0,0.0,0.0,0.0,0.0,0.0,0.0,0.0,0.0,0.0,0.0,0.0,0.0,0.0,0.0,0.0,0.0,0.0,0.0,0.0,0.0,0.0,0.0,0.0,0.0,0.0,0.0,0.0,0.0,0.0,0.0,0.0,0.0,0.0,0.0,0.0,0.0,0.0,0.0,0.0,0.0,0.0,0.0,0.0,0.0,0.0,0.0,0.0,0.0,0.0,0.0,0.0,0.0,0.0,0.0,0.0,0.0,0.0,0.0,0.0,0.0,0.0,0.0,0.0,0.0,0.0,0.0,0.0,0.0,0.0,0.0,0.0,0.0,0.0,0.0,0.0,0.0,0.0,0.0,0.0,0.0,0.0,0.0,0.0,0.0,0.0,0.0,0.0,0.0,0.0,0.0,0.0,0.0,0.0,0.0,0.0,0.0,0.0,0.0,0.0,0.0,0.0,0.0,0.0,0.0,0.0,0.0,0.0,0.0,0.0,0.0,0.0,0.0,0.0,0.0,0.0,0.0,0.0,0.0,0.0,0.0,0.0,0.0,0.0,0.0,0.0,0.0,0.0,0.0,0.0,0.0,0.0,0.0,0.0,0.0,0.0,0.0,0.0,0.0,0.0,0.0,0.0,0.0,0.0,0.0,0.0,0.0,0.0,0.0,0.0,0.0,0.0,0.0,0.0,0.0,0.0,0.0,0.0,0.0,0.0,0.0,0.0,0.0,0.0,0.0,0.0,0.0,0.0,0.0,0.0,0.0,0.0,0.0,0.0,0.0,0.0,0.0,0.0,0.0,0.0,0.0,0.0,0.0,0.0,0.0,0.0,0.0,0.0,0.0,0.0,0.0,0.0,0.0,0.0,0.0,0.0,0.0,0.0,0.0,0.0,0.0,0.0,0.0,0.0,0.0,0.0,0.0,0.0,0.0,0.0,0.0,0.0,0.0,0.0,0.0,0.0,0.0,0.0,0.0,0.0,0.0,0.0,0.0,0.0,0.0,0.0,0.0,0.0,0.0,0.0,0.0,0.0,0.0,0.0,0.0,0.0,0.0,0.0,0.0,0.0,0.0,0.0,0.0,0.0,0.0,0.0,0.0,0.0,0.0,0.0,0.0,0.0,0.0,0.0,0.0,0.0,0.0,0.0,0.0,0.0,0.0,1.4512,0.0,0.0,0.0,0.0,0.0,0.0,0.0,0.0,0.0,0.0,0.0,0.0,0.0,0.0,0.0,0.0,0.0,0.0,0.0,0.0,0.0,0.0,0.0,0.0,0.0,0.0,0.0,0.0,0.0,0.0,0.0,0.0,0.0,0.0,0.0,0.0,0.0,0.0,0.0,0.0,0.0,0.0,0.0,0.0,0.0,0.0,0.0,0.0,0.0,0.0,0.0,0.0,0.0,0.0,0.0,0.0,0.0,0.0,0.0,0.0,0.0,0.0,0.0,0.0,0.0,0.0,0.0,0.0,0.0,0.0,0.0,0.0,0.0,0.0,0.0,0.0,0.0,0.0,0.0,0.0,0.0,0.0,0.0,0.0,0.0,0.0,0.0,0.0,0.0,0.0,0.0,0.0,0.0,0.0,0.0,0.0,0.0,0.0,0.0,0.0,0.0,0.0,0.0,0.0,0.0,0.0,0.0,0.0,0.0,0.0,1.5753,1.5608,1.5227,1.493,1.4774,0.0,0.0,0.0,0.0,0.0,0.0,0.0,0.0,0.0,0.0,0.0,0.0,0.0,0.0,0.0,0.0,0.0,0.0,0.0,0.0,0.0,0.0,0.0,0.0,0.0,0.0,0.0,0.0,0.0,0.0,0.0,0.0,0.0,0.0,0.0,0.0,0.0,0.0,0.0,0.0,0.0,0.0,0.0,0.0,0.0,0.0,0.0,0.0,0.0,0.0,0.0,0.0,0.0,0.0,0.0,0.0,0.0,0.0,0.0,0.0,0.0,0.0,0.0,0.0,0.0,0.0,0.0,0.0,0.0,0.0,0.0,0.0,0.0,0.0,0.0,0.0,0.0,0.0,0.0,0.0,0.0,0.0,0.0,0.0,0.0,0.0,0.0,0.0,0.0,0.0,0.0,0.0,0.0,0.0,0.0,0.0,0.0,0.0,0.0,0.0,0.0,0.0,0.0,0.0,0.0,0.0,0.0,0.0,0.0,0.0,0.0,0.0,1.5844,1.5519,1.5374,0.0,0.0,0.0,0.0,0.0,0.0,0.0,0.0,0.0,0.0,0.0,0.0,0.0,0.0,0.0,0.0,0.0,0.0,0.0,0.0,0.0,0.0,0.0,0.0,0.0,0.0,0.0,0.0,0.0,0.0,0.0,0.0,0.0,0.0,0.0,0.0,0.0,0.0,0.0,0.0,0.0,0.0,0.0,0.0,0.0,0.0,0.0,0.0,0.0,0.0,0.0,0.0,0.0,0.0,0.0,0.0,0.0,0.0,0.0,0.0,0.0,0.0,0.0,0.0,0.0,0.0,0.0,0.0,0.0,0.0,0.0,0.0,0.0,0.0,0.0,0.0,0.0,0.0,0.0,0.0,0.0,0.0,0.0,0.0,0.0,0.0,0.0,0.0,0.0,0.0,0.0,0.0,0.0,0.0,0.0,0.0,0.0,0.0,0.0,0.0,0.0,0.0,0.0,0.0,0.0,0.0,0.0,0.0,0.0,0.0,1.6448,1.7756,1.7502,0.0,1.6567,0.0,0.0,0.0,0.0,0.0,0.0,0.0,0.0,0.0,0.0,0.0,0.0,0.0,0.0,0.0,0.0,0.0,0.0,0.0,0.0,0.0,0.0,0.0,0.0,0.0,0.0,0.0,0.0,0.0,0.0,0.0,0.0,0.0,0.0,0.0,0.0,0.0,0.0,0.0,0.0,0.0,0.0,0.0,0.0,0.0,0.0,0.0,0.0,0.0,0.0,0.0,0.0,0.0,0.0,0.0,0.0,0.0,0.0,0.0,0.0,0.0,0.0,0.0,0.0,0.0,0.0,0.0,0.0,0.0,0.0,0.0,0.0,0.0,0.0,0.0,0.0,0.0,0.0,0.0,0.0,0.0,0.0,0.0,0.0,0.0,0.0,0.0,0.0,0.0,0.0,0.0,0.0,0.0,0.0,0.0,0.0,0.0,0.0,0.0,0.0,0.0,0.0,0.0,0.0,0.0,0.0,0.0,0.0,0.0,0.0,1.7396,1.7996,1.7582,1.7341,0.0,0.0,0.0,0.0,0.0,0.0,0.0,0.0,0.0,0.0,0.0,0.0,0.0,0.0,0.0,0.0,0.0,0.0,0.0,0.0,0.0,0.0,0.0,0.0,0.0,0.0,0.0,0.0,0.0,0.0,0.0,0.0,0.0,0.0,0.0,0.0,0.0,0.0,0.0,0.0,0.0,0.0,0.0,0.0,0.0,0.0,0.0,0.0,0.0,0.0,0.0,0.0,0.0,0.0,0.0,0.0,0.0,0.0,0.0,0.0,0.0,0.0,0.0,0.0,0.0,0.0,0.0,0.0,0.0,0.0,0.0,0.0,0.0,0.0,0.0,0.0,0.0,0.0,0.0,0.0,0.0,0.0,0.0,0.0,0.0,0.0,0.0,0.0,0.0,0.0,0.0,0.0,0.0,0.0,0.0,0.0,0.0,0.0,0.0,0.0,0.0,0.0,0.0,0.0,0.0,0.0,0.0,0.0,0.0,0.0,1.7662,0.0,1.8463,1.8183,1.7828,1.7333,0.0,0.0,0.0,0.0,0.0,0.0,0.0,0.0,0.0,0.0,0.0,0.0,0.0,0.0,0.0,0.0,0.0,0.0,0.0,0.0,0.0,0.0,0.0,0.0,0.0,0.0,0.0,0.0,0.0,0.0,0.0,0.0,0.0,0.0,0.0,0.0,0.0,0.0,0.0,0.0,0.0,0.0,0.0,0.0,0.0,0.0,0.0,0.0,0.0,0.0,0.0,0.0,0.0,0.0,0.0,0.0,0.0,0.0,0.0,0.0,0.0,0.0,0.0,0.0,0.0,0.0,0.0,0.0,0.0,0.0,0.0,0.0,0.0,0.0,0.0,0.0,0.0,0.0,0.0,0.0,0.0,0.0,0.0,0.0,0.0,0.0,0.0,0.0,0.0,0.0,0.0,0.0,0.0,0.0,0.0,0.0,0.0,0.0,0.0,0.0,0.0,0.0,0.0,0.0,0.0,0.0,0.0,0.0,0.0,1.8663,1.8557,1.9678,1.993,1.8905,0.0,0.0,0.0,0.0,0.0,0.0,0.0,0.0,0.0,0.0,0.0,0.0,0.0,0.0,0.0,0.0,0.0,0.0,0.0,0.0,0.0,0.0,0.0,0.0,0.0,0.0,0.0,0.0,0.0,0.0,0.0,0.0,0.0,0.0,0.0,0.0,0.0,0.0,0.0,0.0,0.0,0.0,0.0,0.0,0.0,0.0,0.0,0.0,0.0,0.0,0.0,0.0,0.0,0.0,0.0,0.0,0.0,0.0,0.0,0.0,0.0,0.0,0.0,0.0,0.0,0.0,0.0,0.0,0.0,0.0,0.0,0.0,0.0,0.0,0.0,0.0,0.0,0.0,0.0,0.0,0.0,0.0,0.0,0.0,0.0,0.0,0.0,0.0,0.0,0.0,0.0,0.0,0.0,0.0,0.0,0.0,0.0,0.0,0.0,0.0,0.0,0.0,0.0,0.0,0.0,0.0,0.0,0.0,0.0,1.7329,1.7782,1.9038,2.1029,1.932,1.8574,0.0,0.0,0.0,0.0,0.0,0.0,0.0,0.0,0.0,0.0,0.0,0.0,0.0,0.0,0.0,0.0,0.0,0.0,0.0,0.0,0.0,0.0,0.0,0.0,0.0,0.0,0.0,0.0,0.0,0.0,0.0,0.0,0.0,0.0,0.0,0.0,0.0,0.0,0.0,0.0,0.0,0.0,0.0,0.0,0.0,0.0,0.0,0.0,0.0,0.0,0.0,0.0,0.0,0.0,0.0,0.0,0.0,0.0,0.0,0.0,0.0,0.0,0.0,0.0,0.0,0.0,0.0,0.0,0.0,0.0,0.0,0.0,0.0,0.0,0.0,0.0,0.0,0.0,0.0,0.0,0.0,0.0,0.0,0.0,0.0,0.0,0.0,0.0,0.0,0.0,0.0,0.0,0.0,0.0,0.0,0.0,0.0,0.0,0.0,0.0,0.0,0.0,0.0,0.0,0.0,0.0,0.0,0.0,0.0,1.7222,0.0,1.9947,0.0,1.9107,1.827,0.0,0.0,0.0,0.0,0.0,0.0,0.0,0.0,0.0,0.0,0.0,0.0,0.0,0.0,0.0,0.0,0.0,0.0,0.0,0.0,0.0,0.0,0.0,0.0,0.0,0.0,0.0,0.0,0.0,0.0,0.0,0.0,0.0,0.0,0.0,0.0,0.0,0.0,0.0,0.0,0.0,0.0,0.0,0.0,0.0,0.0,0.0,0.0,0.0,0.0,0.0,0.0,0.0,0.0,0.0,0.0,0.0,0.0,0.0,0.0,0.0,0.0,0.0,0.0,0.0,0.0,0.0,0.0,0.0,0.0,0.0,0.0,0.0,0.0,0.0,0.0,0.0,0.0,0.0,0.0,0.0,0.0,0.0,0.0,0.0,0.0,0.0,0.0,0.0,0.0,0.0,0.0,0.0,0.0,0.0,0.0,0.0,0.0,0.0,0.0,0.0,0.0,0.0,0.0,0.0,0.0,0.0,0.0,1.7275,2.001,2.1277,2.1334,1.9951,1.9641,1.8171,0.0,0.0,0.0,0.0,0.0,0.0,0.0,0.0,0.0,0.0,0.0,0.0,0.0,0.0,0.0,0.0,0.0,0.0,0.0,0.0,0.0,0.0,0.0,0.0,0.0,0.0,0.0,0.0,0.0,0.0,0.0,0.0,0.0,0.0,0.0,0.0,0.0,0.0,0.0,0.0,0.0,0.0,0.0,0.0,0.0,0.0,0.0,0.0,0.0,0.0,0.0,0.0,0.0,0.0,0.0,0.0,0.0,0.0,0.0,0.0,0.0,0.0,0.0,0.0,0.0,0.0,0.0,0.0,0.0,0.0,0.0,0.0,0.0,0.0,0.0,0.0,0.0,0.0,0.0,0.0,0.0,0.0,0.0,0.0,0.0,0.0,0.0,0.0,0.0,0.0,0.0,0.0,0.0,0.0,0.0,0.0,0.0,0.0,0.0,0.0,0.0,0.0,0.0,0.0,0.0,0.0,0.0,0.0,0.0,1.9095,2.1152,2.2738,2.3614,2.1909,2.1232,0.0,0.0,0.0,0.0,0.0,0.0,0.0,0.0,0.0,0.0,0.0,0.0,0.0,0.0,0.0,0.0,0.0,0.0,0.0,0.0,0.0,0.0,0.0,0.0,0.0,0.0,0.0,0.0,0.0,0.0,0.0,0.0,0.0,0.0,0.0,0.0,0.0,0.0,0.0,0.0,0.0,0.0,0.0,0.0,0.0,0.0,0.0,0.0,0.0,0.0,0.0,0.0,0.0,0.0,0.0,0.0,0.0,0.0,0.0,0.0,0.0,0.0,0.0,0.0,0.0,0.0,0.0,0.0,0.0,0.0,0.0,0.0,0.0,0.0,0.0,0.0,0.0,0.0,0.0,0.0,0.0,0.0,0.0,0.0,0.0,0.0,0.0,0.0,0.0,0.0,0.0,0.0,0.0,0.0,0.0,0.0,0.0,0.0,0.0,0.0,0.0,0.0,0.0,0.0,0.0,0.0,0.0,0.0,0.0,2.2572,2.3546,2.4804,2.6206,2.397,2.3173,2.3998,0.0,0.0,0.0,0.0,0.0,0.0,0.0,0.0,0.0,0.0,0.0,0.0,0.0,0.0,0.0,0.0,0.0,0.0,0.0,0.0,0.0,0.0,0.0,0.0,0.0,0.0,0.0,0.0,0.0,0.0,0.0,0.0,0.0,0.0,0.0,0.0,0.0,0.0,0.0,0.0,0.0,0.0,0.0,0.0,0.0,0.0,0.0,0.0,0.0,0.0,0.0,0.0,0.0,0.0,0.0,0.0,0.0,0.0,0.0,0.0,0.0,0.0,0.0,0.0,0.0,0.0,0.0,0.0,0.0,0.0,0.0,0.0,0.0,0.0,0.0,0.0,0.0,0.0,0.0,0.0,0.0,0.0,0.0,0.0,0.0,0.0,0.0,0.0,0.0,0.0,0.0,0.0,0.0,0.0,0.0,0.0,0.0,0.0,0.0,0.0,0.0,0.0,0.0,0.0,0.0,0.0,0.0,0.0,2.9328,2.8131,2.7653,2.7916,2.612,2.4412,0.0,0.0,0.0,0.0,0.0,0.0,0.0,0.0,0.0,0.0,0.0,0.0,0.0,0.0,0.0,0.0,0.0,0.0,0.0,0.0,0.0,0.0,0.0,0.0,0.0,0.0,0.0,0.0,0.0,0.0,0.0,0.0,0.0,0.0,0.0,0.0,0.0,0.0,0.0,0.0,0.0,0.0,0.0,0.0,0.0,0.0,0.0,0.0,0.0,0.0,0.0,0.0,0.0,0.0,0.0,0.0,0.0,0.0,0.0,0.0,0.0,0.0,0.0,0.0,0.0,0.0,0.0,0.0,0.0,0.0,0.0,0.0,0.0,0.0,0.0,0.0,0.0,0.0,0.0,0.0,0.0,0.0,0.0,0.0,0.0,0.0,0.0,0.0,0.0,0.0,0.0,0.0,0.0,0.0,0.0,0.0,0.0,0.0,0.0,0.0,0.0,0.0,0.0,0.0,0.0,0.0,0.0,0.0,0.0,3.1165,3.2665,3.3171,3.2648,3.0751,2.8947,0.0,0.0,0.0,0.0,0.0,0.0,0.0,0.0,0.0,0.0,0.0,0.0,0.0,0.0,0.0,0.0,0.0,0.0,0.0,0.0,0.0,0.0,0.0,0.0,0.0,0.0,0.0,0.0,0.0,0.0,0.0,0.0,0.0,0.0,0.0,0.0,0.0,0.0,0.0,0.0,0.0,0.0,0.0,0.0,0.0,0.0,0.0,0.0,0.0,0.0,0.0,0.0,0.0,0.0,0.0,0.0,0.0,0.0,0.0,0.0,0.0,0.0,0.0,0.0,0.0,0.0,0.0,0.0,0.0,0.0,0.0,0.0,0.0,0.0,0.0,0.0,0.0,0.0,0.0,0.0,0.0,0.0,0.0,0.0,0.0,0.0,0.0,0.0,0.0,0.0,0.0,0.0,0.0,0.0,0.0,0.0,0.0,0.0,0.0,0.0,0.0,0.0,0.0,0.0,0.0,0.0,0.0,0.0,3.2528,3.4663,3.6532,3.7092,3.6247,3.4568,3.2266,0.0,0.0,0.0,0.0,0.0,0.0,0.0,0.0,0.0,0.0,0.0,0.0,0.0,0.0,0.0,0.0,0.0,0.0,0.0,0.0,0.0,0.0,0.0,0.0,0.0,0.0,0.0,0.0,0.0,0.0,0.0,0.0,0.0,0.0,0.0,0.0,0.0,0.0,0.0,0.0,0.0,0.0,0.0,0.0,0.0,0.0,0.0,0.0,0.0,0.0,0.0,0.0,0.0,0.0,0.0,0.0,0.0,0.0,0.0,0.0,0.0,0.0,0.0,0.0,0.0,0.0,0.0,0.0,0.0,0.0,0.0,0.0,0.0,0.0,0.0,0.0,0.0,0.0,0.0,0.0,0.0,0.0,0.0,0.0,0.0,0.0,0.0,0.0,0.0,0.0,0.0,0.0,0.0,0.0,0.0,0.0,0.0,0.0,0.0,0.0,0.0,0.0,0.0,0.0,0.0,0.0,0.0,0.0,3.5484,3.8574,3.9601,3.9679,3.8809,3.7479,3.4547,0.0,0.0,0.0,0.0,0.0,0.0,0.0,0.0,0.0,0.0,0.0,0.0,0.0,0.0,0.0,0.0,0.0,0.0,0.0,0.0,0.0,0.0,0.0,0.0,0.0,0.0,0.0,0.0,0.0,0.0,0.0,0.0,0.0,0.0,0.0,0.0,0.0,0.0,0.0,0.0,0.0,0.0,0.0,0.0,0.0,0.0,0.0,0.0,0.0,0.0,0.0,0.0,0.0,0.0,0.0,0.0,0.0,0.0,0.0,0.0,0.0,0.0,0.0,0.0,0.0,0.0,0.0,0.0,0.0,0.0,0.0,0.0,0.0,0.0,0.0,0.0,0.0,0.0,0.0,0.0,0.0,0.0,0.0,0.0,0.0,0.0,0.0,0.0,0.0,0.0,0.0,0.0,0.0,0.0,0.0,0.0,0.0,0.0,0.0,0.0,0.0,0.0,0.0,0.0,0.0,0.0,0.0,0.0,3.7627,3.9043,4.0607,4.0996,4.0098,3.8221,3.5098,0.0,0.0,0.0,0.0,0.0,0.0,0.0,0.0,0.0,0.0,0.0,0.0,0.0,0.0,0.0,0.0,0.0,0.0,0.0,0.0,0.0,0.0,0.0,0.0,0.0,0.0,0.0,0.0,0.0,0.0,0.0,0.0,0.0,0.0,0.0,0.0,0.0,0.0,0.0,0.0,0.0,0.0,0.0,0.0,0.0,0.0,0.0,0.0,1.342,0.0,0.0,0.0,0.0,0.0,0.0,0.0,0.0,0.0,0.0,0.0,0.0,0.0,0.0,0.0,0.0,0.0,0.0,0.0,0.0,0.0,0.0,0.0,0.0,0.0,0.0,0.0,0.0,0.0,0.0,0.0,0.0,0.0,0.0,0.0,0.0,0.0,0.0,0.0,0.0,0.0,0.0,0.0,0.0,0.0,0.0,0.0,0.0,0.0,0.0,0.0,0.0,0.0,0.0,0.0,0.0,0.0,0.0,0.0,3.9258,4.0136,4.1426,4.1699,4.082,3.9335,3.6423,0.0,0.0,0.0,0.0,0.0,0.0,0.0,0.0,0.0,0.0,0.0,0.0,0.0,0.0,0.0,0.0,0.0,0.0,0.0,0.0,0.0,0.0,0.0,0.0,0.0,0.0,0.0,0.0,0.0,0.0,0.0,0.0,0.0,0.0,0.0,0.0,0.0,0.0,0.0,0.0,0.0,0.0,0.0,0.0,0.0,0.0,0.0,0.0,0.0,0.0,0.0,0.0,0.0,0.0,0.0,0.0,0.0,0.0,0.0,0.0,0.0,0.0,0.0,0.0,0.0,0.0,0.0,0.0,0.0,0.0,0.0,0.0,0.0,0.0,0.0,0.0,0.0,0.0,0.0,0.0,0.0,0.0,0.0,0.0,0.0,0.0,0.0,0.0,0.0,0.0,0.0,0.0,0.0,0.0,0.0,0.0,0.0,0.0,0.0,0.0,0.0,0.0,0.0,0.0,0.0,0.0,0.0,3.7891,4.0371,4.1543,4.2187,4.2187,4.1484,4.0468,3.7734,3.3184,0.0,0.0,0.0,0.0,0.0,0.0,0.0,0.0,0.0,0.0,0.0,0.0,0.0,0.0,0.0,0.0,0.0,0.0,0.0,0.0,0.0,0.0,0.0,0.0,0.0,0.0,0.0,0.0,0.0,0.0,0.0,0.0,0.0,0.0,0.0,0.0,0.0,0.0,1.3303,1.4566,0.0,0.0,0.0,0.0,0.0,0.0,0.0,0.0,1.5282,0.0,0.0,0.0,0.0,0.0,0.0,0.0,0.0,0.0,0.0,0.0,0.0,0.0,0.0,0.0,0.0,0.0,0.0,0.0,0.0,0.0,0.0,0.0,0.0,0.0,0.0,0.0,0.0,0.0,0.0,0.0,0.0,0.0,0.0,0.0,0.0,0.0,0.0,0.0,0.0,0.0,0.0,0.0,0.0,0.0,0.0,0.0,0.0,0.0,0.0,0.0,0.0,0.0,0.0,0.0,0.0,3.7654,3.8807,4.0605,4.3203,4.3086,4.293,4.2735,4.0918,3.7988,3.4059,0.0,0.0,0.0,0.0,0.0,0.0,0.0,0.0,0.0,0.0,0.0,0.0,0.0,0.0,0.0,0.0,0.0,0.0,0.0,0.0,0.0,0.0,0.0,0.0,0.0,0.0,0.0,0.0,0.0,0.0,0.0,0.0,0.0,0.0,0.0,0.0,0.0,0.0,0.0,1.6754,1.7369,0.0,0.0,0.0,0.0,0.0,0.0,0.0,0.0,1.5524,0.0,0.0,0.0,0.0,0.0,0.0,0.0,0.0,0.0,0.0,0.0,0.0,0.0,0.0,0.0,0.0,0.0,0.0,0.0,0.0,0.0,0.0,0.0,0.0,0.0,0.0,0.0,0.0,0.0,0.0,0.0,0.0,0.0,0.0,0.0,0.0,0.0,0.0,0.0,0.0,0.0,0.0,0.0,0.0,0.0,0.0,0.0,0.0,0.0,0.0,0.0,0.0,0.0,0.0,0.0,3.6873,3.9961,4.2129,4.334,4.3653,4.3437,4.2715,4.0019,3.7031,0.0,0.0,0.0,0.0,0.0,0.0,0.0,0.0,0.0,0.0,0.0,0.0,0.0,0.0,0.0,0.0,0.0,0.0,0.0,0.0,0.0,0.0,0.0,0.0,0.0,0.0,0.0,0.0,0.0,0.0,0.0,0.0,0.0,0.0,0.0,0.0,0.0,0.0,0.0,0.0,1.7269,1.7859,1.7872,0.0,0.0,0.0,0.0,0.0,0.0,1.6501,1.6319,0.0,0.0,0.0,0.0,0.0,0.0,0.0,0.0,0.0,0.0,0.0,0.0,0.0,0.0,0.0,0.0,0.0,0.0,0.0,0.0,0.0,0.0,0.0,0.0,0.0,0.0,0.0,0.0,0.0,0.0,0.0,0.0,0.0,0.0,0.0,0.0,0.0,0.0,0.0,0.0,0.0,0.0,0.0,0.0,0.0,0.0,0.0,0.0,0.0,0.0,0.0,0.0,0.0,0.0,0.0,3.5859,4.0586,4.3203,4.3497,4.4082,4.3808,4.2538,3.957,3.6506,0.0,0.0,0.0,0.0,0.0,0.0,0.0,0.0,0.0,0.0,0.0,0.0,0.0,0.0,0.0,0.0,0.0,0.0,0.0,0.0,0.0,0.0,0.0,0.0,0.0,0.0,0.0,0.0,0.0,0.0,0.0,0.0,0.0,0.0,0.0,0.0,0.0,0.0,0.0,0.0,0.0,1.8491,1.8916,1.867,0.0,0.0,0.0,0.0,1.8048,1.8143,0.0,0.0,0.0,0.0,0.0,0.0,0.0,0.0,0.0,0.0,0.0,0.0,0.0,0.0,0.0,0.0,0.0,0.0,0.0,0.0,0.0,0.0,0.0,0.0,0.0,0.0,0.0,0.0,0.0,0.0,0.0,0.0,0.0,0.0,0.0,0.0,0.0,0.0,0.0,0.0,0.0,0.0,0.0,0.0,0.0,0.0,0.0,0.0,0.0,0.0,0.0,0.0,0.0,0.0,0.0,0.0,3.6973,3.959,4.2148,4.4608,4.4531,4.3965,4.3028,4.1152,3.8009,0.0,0.0,0.0,0.0,0.0,0.0,0.0,0.0,0.0,0.0,0.0,0.0,0.0,0.0,0.0,0.0,0.0,0.0,0.0,0.0,0.0,0.0,0.0,0.0,0.0,0.0,0.0,0.0,0.0,0.0,0.0,0.0,0.0,0.0,0.0,0.0,0.0,0.0,0.0,0.0,0.0,2.0492,2.0593,2.0104,1.9863,0.0,0.0,1.9676,2.1043,2.1516,0.0,0.0,0.0,0.0,0.0,0.0,0.0,0.0,0.0,0.0,0.0,0.0,0.0,0.0,0.0,0.0,0.0,0.0,0.0,0.0,0.0,0.0,0.0,0.0,0.0,0.0,0.0,0.0,0.0,0.0,0.0,0.0,0.0,0.0,0.0,0.0,0.0,0.0,0.0,0.0,0.0,0.0,0.0,0.0,0.0,0.0,0.0,0.0,0.0,0.0,0.0,0.0,0.0,0.0,0.0,3.3773,3.7266,4.0605,4.3325,4.5303,4.5224,4.4615,4.3512,4.0377,3.6922,0.0,0.0,0.0,0.0,0.0,0.0,0.0,0.0,0.0,0.0,0.0,0.0,0.0,0.0,0.0,0.0,0.0,0.0,0.0,0.0,0.0,0.0,0.0,0.0,0.0,0.0,0.0,0.0,0.0,0.0,0.0,0.0,0.0,0.0,0.0,0.0,0.0,0.0,0.0,0.0,0.0,0.0,2.2126,2.1649,0.0,0.0,0.0,2.1758,2.3946,0.0,0.0,0.0,0.0,0.0,0.0,0.0,0.0,0.0,0.0,0.0,0.0,0.0,0.0,0.0,0.0,0.0,0.0,0.0,0.0,0.0,0.0,0.0,0.0,0.0,0.0,0.0,0.0,0.0,0.0,0.0,0.0,0.0,0.0,0.0,0.0,0.0,0.0,0.0,0.0,0.0,0.0,0.0,0.0,0.0,0.0,0.0,0.0,0.0,0.0,0.0,0.0,0.0,0.0,0.0,0.0,0.0,3.7617,4.1856,4.4632,4.5797,4.5758,4.5085,4.3797,3.9991,0.0,0.0,0.0,0.0,0.0,0.0,0.0,0.0,0.0,0.0,0.0,0.0,0.0,0.0,0.0,0.0,0.0,0.0,0.0,0.0,0.0,0.0,0.0,0.0,0.0,0.0,0.0,1.2859,0.0,0.0,0.0,0.0,0.0,0.0,0.0,0.0,0.0,0.0,0.0,0.0,0.0,0.0,2.2393,2.4328,2.422,2.4806,0.0,0.0,2.4702,2.6929,2.6545,2.5518,0.0,0.0,0.0,0.0,0.0,0.0,0.0,0.0,0.0,0.0,0.0,0.0,0.0,0.0,0.0,0.0,0.0,0.0,0.0,0.0,0.0,0.0,0.0,0.0,0.0,0.0,0.0,0.0,0.0,0.0,0.0,0.0,0.0,0.0,0.0,0.0,0.0,0.0,0.0,0.0,0.0,0.0,0.0,0.0,0.0,0.0,0.0,0.0,0.0,0.0,0.0,0.0,0.0,0.0,0.0,3.8532,4.2783,4.5422,4.6232,4.5895,4.5085,4.3816,4.1168,3.7731,0.0,0.0,0.0,0.0,0.0,0.0,0.0,0.0,0.0,0.0,0.0,0.0,0.0,0.0,0.0,0.0,0.0,0.0,0.0,0.0,0.0,0.0,0.0,0.0,0.0,0.0,0.0,0.0,0.0,0.0,0.0,0.0,0.0,0.0,0.0,0.0,0.0,0.0,0.0,0.0,0.0,2.4934,2.7771,2.8492,2.9093,0.0,0.0,2.9011,3.0045,3.0541,3.0073,2.7806,0.0,0.0,0.0,0.0,0.0,0.0,0.0,0.0,0.0,0.0,0.0,0.0,0.0,0.0,0.0,0.0,0.0,0.0,0.0,0.0,0.0,0.0,0.0,0.0,0.0,0.0,0.0,0.0,0.0,0.0,0.0,0.0,0.0,0.0,0.0,0.0,0.0,0.0,0.0,0.0,0.0,0.0,0.0,0.0,0.0,0.0,0.0,0.0,0.0,0.0,0.0,0.0,0.0,3.5751,3.9011,4.3042,4.5916,4.7489,4.6884,4.6158,4.5432,4.2357,3.8805,0.0,0.0,0.0,0.0,0.0,0.0,0.0,0.0,0.0,0.0,0.0,0.0,0.0,0.0,0.0,0.0,0.0,0.0,0.0,0.0,0.0,0.0,0.0,0.0,0.0,0.0,0.0,0.0,1.8105,1.9134,1.8703,0.0,0.0,0.0,0.0,0.0,0.0,0.0,0.0,0.0,0.0,2.8004,3.0206,3.0509,0.0,0.0,3.1603,3.0883,3.3175,3.1988,3.0467,2.9448,2.8111,0.0,0.0,0.0,0.0,0.0,0.0,0.0,0.0,0.0,0.0,0.0,0.0,0.0,0.0,0.0,0.0,0.0,0.0,0.0,0.0,0.0,0.0,0.0,0.0,0.0,0.0,0.0,0.0,0.0,0.0,0.0,0.0,0.0,0.0,0.0,0.0,0.0,0.0,0.0,0.0,0.0,0.0,0.0,0.0,0.0,0.0,0.0,0.0,0.0,0.0,0.0,0.0,3.5995,3.9462,4.344,4.6453,4.8353,4.7494,4.6821,4.6331,4.3148,3.9676,0.0,0.0,0.0,0.0,0.0,0.0,0.0,0.0,0.0,0.0,0.0,0.0,0.0,0.0,0.0,0.0,0.0,0.0,0.0,0.0,0.0,0.0,0.0,0.0,0.0,0.0,0.0,0.0,2.0694,2.1503,2.0868,0.0,0.0,0.0,0.0,0.0,0.0,0.0,0.0,0.0,0.0,3.0871,3.2804,3.2976,3.3582,3.5404,3.3659,3.2866,3.5053,3.3473,3.1665,3.0738,0.0,0.0,0.0,0.0,0.0,0.0,0.0,0.0,0.0,0.0,0.0,0.0,0.0,0.0,0.0,0.0,0.0,0.0,0.0,0.0,0.0,0.0,0.0,0.0,0.0,0.0,0.0,0.0,0.0,0.0,1.8647,0.0,0.0,0.0,0.0,0.0,0.0,0.0,0.0,0.0,0.0,0.0,0.0,0.0,0.0,0.0,0.0,0.0,0.0,0.0,0.0,0.0,0.0,3.6408,3.9881,4.4181,4.7052,4.8354,4.7558,4.6924,4.6393,4.3418,4.0362,3.7279,0.0,0.0,0.0,0.0,0.0,0.0,0.0,0.0,0.0,0.0,0.0,0.0,0.0,0.0,0.0,0.0,0.0,0.0,0.0,0.0,0.0,0.0,0.0,0.0,0.0,0.0,1.9935,2.0927,2.1603,0.0,0.0,0.0,0.0,0.0,0.0,0.0,0.0,0.0,0.0,3.1687,3.3463,3.5652,3.6325,3.6406,3.6162,3.5634,3.531,3.5413,3.5318,3.444,0.0,0.0,0.0,0.0,0.0,0.0,0.0,0.0,0.0,0.0,0.0,0.0,0.0,0.0,0.0,0.0,0.0,0.0,0.0,0.0,0.0,0.0,0.0,0.0,0.0,0.0,0.0,2.5945,2.4165,0.0,0.0,0.0,0.0,0.0,0.0,0.0,0.0,0.0,0.0,0.0,3.0522,3.2085,0.0,0.0,0.0,0.0,0.0,0.0,0.0,0.0,0.0,0.0,0.0,0.0,3.689,4.0382,4.4906,4.7781,4.8845,4.8599,4.8062,4.7258,4.4846,4.1288,3.6571,0.0,0.0,0.0,0.0,0.0,0.0,0.0,0.0,0.0,0.0,0.0,0.0,0.0,0.0,0.0,0.0,0.0,0.0,0.0,0.0,0.0,0.0,0.0,0.0,0.0,2.1084,0.0,0.0,0.0,0.0,0.0,0.0,0.0,0.0,0.0,0.0,0.0,3.0838,3.3424,3.5148,3.6444,3.7195,3.7673,3.7809,0.0,0.0,0.0,0.0,0.0,0.0,0.0,0.0,0.0,0.0,0.0,0.0,0.0,0.0,3.2039,2.6991,2.5159,2.4766,2.5934,0.0,0.0,0.0,0.0,0.0,0.0,0.0,0.0,0.0,0.0,0.0,0.0,0.0,0.0,2.9094,0.0,2.655,0.0,0.0,0.0,0.0,0.0,0.0,0.0,0.0,3.2496,3.4039,3.4254,3.5779,3.5935,0.0,3.4687,3.2641,0.0,0.0,0.0,0.0,0.0,0.0,0.0,0.0,3.7794,4.1289,4.5678,4.8404,4.9287,4.9163,4.8728,4.7941,4.5352,4.188,3.7492,3.4511,3.2164,0.0,0.0,0.0,0.0,0.0,0.0,0.0,0.0,0.0,0.0,0.0,0.0,0.0,0.0,0.0,0.0,0.0,0.0,0.0,0.0,0.0,0.0,0.0,2.3133,0.0,0.0,0.0,0.0,0.0,0.0,0.0,0.0,0.0,3.0279,3.2656,3.5,3.6738,3.8009,3.8751,3.8614,0.0,0.0,0.0,0.0,0.0,0.0,0.0,3.6226,3.6482,3.6172,3.5781,3.5485,3.6619,3.7429,3.6971,0.0,0.0,3.1812,2.9875,2.9442,3.0846,3.1207,3.1232,3.1075,3.1632,3.2118,0.0,0.0,0.0,0.0,0.0,0.0,0.0,0.0,3.184,3.2012,0.0,3.0044,0.0,0.0,0.0,0.0,0.0,3.0698,0.0,0.0,3.6172,3.7599,3.799,3.8495,3.871,3.8788,3.9825,3.8868,3.5901,3.1128,0.0,0.0,0.0,0.0,0.0,0.0,3.91,4.2583,4.6472,4.8898,4.9764,4.9392,4.8915,4.8313,4.5006,4.2195,4.0082,3.7905,3.5407,3.2492,2.9858,0.0,0.0,0.0,0.0,0.0,0.0,0.0,0.0,0.0,0.0,0.0,0.0,0.0,0.0,0.0,0.0,0.0,0.0,0.0,0.0,2.5891,0.0,0.0,0.0,0.0,0.0,0.0,0.0,0.0,0.0,0.0,3.3281,3.5586,3.8027,3.9707,0.0,0.0,0.0,0.0,3.9629,3.8827,3.9022,3.9277,3.9258,3.959,3.9569,3.8807,0.0,0.0,3.8343,3.8751,3.918,3.8789,3.9098,3.9237,3.8697,3.6688,3.5722,3.6837,3.6132,3.5964,3.7,3.7216,3.7889,3.7148,0.0,0.0,0.0,0.0,3.457,3.5784,3.7482,3.75,3.6506,3.4847,3.3945,0.0,0.0,0.0,0.0,0.0,0.0,3.5371,3.6309,3.8535,3.9824,4.0273,4.0976,4.1309,4.1309,4.1094,4.0391,3.9161,3.7109,3.359,2.8816,0.0,0.0,0.0,0.0,4.0903,4.4393,4.773,4.9654,5.0196,5.0115,4.9342,4.7931,4.5717,4.394,4.2704,4.0303,3.8026,3.5915,3.3066,0.0,0.0,0.0,0.0,0.0,0.0,0.0,0.0,0.0,0.0,0.0,0.0,0.0,0.0,0.0,0.0,0.0,0.0,0.0,2.5367,2.6122,2.6691,0.0,0.0,0.0,0.0,0.0,0.0,0.0,0.0,0.0,3.8224,3.9024,4.0,0.0,0.0,4.1289,4.0859,4.082,4.0742,4.0507,4.0546,0.0,0.0,4.0214,4.0117,4.0762,4.1426,4.1698,4.1266,4.1366,4.1367,4.0956,4.0992,4.1225,4.1581,3.9643,3.8115,3.8266,3.8285,3.8343,3.8725,3.9336,4.0086,4.1876,3.8906,3.7207,3.6975,3.7814,3.8322,3.9337,4.0664,4.082,4.0117,3.8769,3.8026,3.6345,3.402,3.3324,0.0,0.0,0.0,3.8027,3.8925,4.0332,4.1348,4.1973,4.2617,4.3007,4.3163,4.2695,4.2344,4.2051,4.1347,3.8728,3.4352,0.0,0.0,3.6202,3.9847,4.3092,4.5922,4.864,5.0156,5.0382,5.0073,4.9261,4.8016,4.6431,4.527,4.4562,4.2209,4.0185,3.8595,3.5689,3.2715,0.0,0.0,0.0,0.0,0.0,0.0,0.0,0.0,0.0,0.0,0.0,2.1768,1.9736,0.0,0.0,0.0,2.5047,2.6727,2.7958,2.8978,0.0,0.0,0.0,0.0,0.0,0.0,0.0,3.7637,3.953,4.0898,4.166,4.2229,4.2563,4.2559,4.2538,4.2461,4.2227,0.0,4.2383,4.2207,4.248,4.2637,4.2481,4.2012,4.1973,4.2695,4.2871,4.3004,4.3207,4.3215,4.312,4.2915,4.297,4.3225,4.3767,4.2389,4.1124,4.0816,4.0932,4.1143,4.1355,4.1785,4.2313,4.5981,4.5715,4.2893,4.1387,4.0977,4.2089,4.2363,4.209,4.246,4.2792,4.3048,4.1914,4.0918,4.0,3.8457,0.0,3.838,3.9668,4.0684,4.1465,4.1855,4.252,4.3363,4.3712,4.4122,4.4593,4.4512,4.4513,4.4517,4.4126,4.3161,4.1611,4.0493,4.0378,4.1371,4.3478,4.5452,4.7169,4.9256,5.0297,5.0341,4.9577,4.8957,4.8459,4.7173,4.6249,4.578,4.3739,4.1989,4.0639,3.7844,3.4916,3.1964,0.0,0.0,0.0,0.0,0.0,0.0,0.0,0.0,0.0,0.0,0.0,0.0,0.0,0.0,0.0,2.9531,0.0,3.1899,3.3315,0.0,0.0,0.0,3.4219,3.5276,3.7092,3.8771,4.0098,0.0,0.0,4.3929,4.5033,4.5375,4.4229,4.3991,4.3912,4.3933,4.4267,4.4422,4.3974,4.4579,4.4928,4.444,4.43,4.4238,4.4297,4.4101,4.3965,4.4294,4.4393,4.4433,4.4352,4.4725,4.4957,4.5018,4.4879,4.4801,4.4001,4.3787,4.3845,4.4136,4.4294,4.447,4.8215,4.8089,4.6676,4.5254,4.3944,4.3905,4.4062,4.4237,4.4334,4.4082,4.3535,4.3242,4.2637,4.1797,4.1738,4.1777,4.1894,4.2871,4.3437,4.3652,4.4062,4.472,4.5571,4.5369,4.5623,4.6317,4.5699,4.5564,4.5824,4.5437,4.5232,4.5163,4.5164,4.416,4.2344,4.4401,4.6347,4.8068,4.8973,4.958,4.9929,4.9744,4.9412,4.8935,4.7646,4.6883,4.6719,4.4603,4.2977,4.1934,3.9722,3.7349,3.4938,3.1034,0.0,0.0,0.0,0.0,0.0,0.0,0.0,0.0,0.0,2.7676,2.409,0.0,2.9721,0.0,3.2949,3.4242,3.4005,3.4655,0.0,0.0,3.7443,3.8087,4.1191,4.1426,4.1836,4.3164,4.4454,4.5354,4.5711,4.6333,4.6909,4.7203,4.6401,4.574,4.576,4.586,4.59,4.5799,4.5957,4.5892,4.5493,4.5073,4.4883,4.4883,4.4764,4.4725,4.4842,4.4862,4.4862,4.4862,4.492,4.5137,4.5469,4.5549,4.5723,4.5955,4.5369,4.4705,4.4842,4.5137,4.5508,5.0113,4.9806,4.8909,4.8072,4.7339,4.627,4.6065,4.6435,4.6259,4.5664,4.4822,4.4453,4.4003,4.3613,4.4035,4.4277,4.4316,4.4957,4.5299,4.5299,4.5516,4.6001,4.6675,4.6617,4.6955,4.759,4.731,4.7292,4.7491,4.751,4.7928,4.8808,4.9463,4.9133,4.7874,4.7091,4.8186,5.1292,5.1402,5.0994,5.0119,5.0265,4.9594,4.7958,4.7008,4.6045,4.5068,4.3073,4.1678,4.0977,3.8938,3.7227,3.5967,3.2838,3.0801,0.0,0.0,0.0,0.0,0.0,0.0,0.0,0.0,0.0,0.0,0.0,3.2554,3.4075,3.615,3.7441,3.7596,3.8672,4.0078,4.1719,4.1582,4.2226,4.4355,4.4316,4.4596,4.573,4.6461,4.7036,4.7472,4.7948,4.8412,4.8919,4.8505,4.8015,4.7628,4.7563,4.7563,4.7563,4.7563,4.7316,4.6717,4.605,4.5613,4.5569,4.5441,4.5355,4.5526,4.5576,4.557,4.5585,4.5713,4.5916,4.6191,4.6428,4.6721,4.6953,4.6638,4.6211,4.6172,4.6367,4.6687,5.1715,5.1113,5.0282,5.0227,5.0529,4.8836,4.8263,4.8442,4.7979,4.7368,4.6601,4.5791,4.5459,4.5523,4.5828,4.6,4.6062,4.6407,4.6597,4.6658,4.6657,4.692,4.7447,4.7785,4.8209,4.8656,4.8975,4.9116,4.9122,4.9698,5.0625,5.1892,5.2887,5.3936,5.4803,5.0718,5.0677,5.485,5.4645,5.3214,5.0653,5.0847,4.9488,4.6516,4.5821,4.4559,4.2505,4.0958,3.9896,3.936,3.7683,3.6668,3.6448,3.4502,3.3293,0.0,3.1866,0.0,0.0,0.0,0.0,0.0,0.0,0.0,0.0,3.4766,3.5874,3.7254,3.935,4.0936,4.1641,4.3481,4.4672,4.4726,4.5412,4.5881,4.594,4.6315,4.6885,4.7678,4.8188,4.863,4.9096,4.9603,4.9889,5.0015,5.0261,5.0155,4.951,4.9235,4.9114,4.9169,4.9124,4.868,4.805,4.7283,4.6759,4.6653,4.6497,4.6243,4.663,4.6688,4.6676,4.6704,4.6945,4.7175,4.7189,4.7528,4.7783,4.7906,4.7948,4.7904,4.7777,4.7794,4.8024,5.292,5.2084,5.1549,5.1599,5.1965,5.1242,5.0374,4.9422,4.8929,4.8644,4.8462,4.7923,4.7888,4.8182,4.7555,4.7461,4.7874,4.7599,4.7663,4.8005,4.8005,4.8647,4.9686,4.9451,4.9575,4.9991,4.9692,4.9573,4.9588,5.0801,5.174,5.2391,5.368,5.5311,5.704,0.0,0.0,0.0,5.4829,5.3855,5.1616,5.084,4.9003,4.602,4.4785,0.0,4.2081,4.1624,4.1084,4.0321,4.0534,0.0,0.0,0.0,0.0,0.0,0.0,0.0,0.0,0.0,0.0,0.0,3.7342,3.6619,3.666,3.9824,4.1602,4.0984,4.314,4.4525,4.4387,4.5358,4.6136,4.6411,4.6579,4.6794,4.719,4.7662,4.8008,4.8176,4.8904,4.9617,5.0117,5.054,5.0995,5.1413,5.1475,5.1475,5.1365,5.0699,5.018,5.0139,4.993,4.9588,4.9364,4.8866,4.8518,4.8474,4.8452,4.8386,4.8412,4.847,4.8462,4.8454,4.857,4.86,4.8622,4.8684,4.8897,4.9222,4.9585,4.9634,4.8887,4.8994,4.9468,5.4752,0.0,5.2936,5.2857,0.0,5.2609,5.2168,5.1635,5.0484,4.9733,4.9331,4.8844,4.8789,4.8991,4.8747,4.8799,4.9042,4.9038,4.9168,4.9392,4.9392,4.9727,5.04,5.038,5.0887,5.1756,5.1764,5.2121,5.2816,5.3779,5.4668,5.5593,5.6721,5.8194,5.9941,5.9109,5.7491,5.5181,5.6684,5.6312,5.3997,5.3581,5.1519,4.7671,4.6612,0.0,0.0,0.0,0.0,0.0,0.0,0.0,0.0,0.0,0.0,3.9412,3.8655,3.8378,3.8806,3.9042,3.9902,4.1621,4.2387,4.2014,4.0311,4.3152,4.4954,4.4787,4.6151,4.7018,4.7038,4.7419,4.7733,4.792,4.8062,4.8369,4.8882,4.9328,4.979,5.0271,5.073,5.1218,5.1694,5.1963,5.2547,5.3415,5.3572,5.3823,5.4299,5.2799,5.1522,5.1707,5.1612,5.1326,5.1076,5.0676,5.018,4.9853,4.9694,4.9689,4.9687,4.9671,4.9765,4.9945,5.004,5.0043,5.004,5.0201,5.042,5.0641,5.0886,5.1113,5.0917,5.0819,5.0852,5.713,5.5519,5.5118,5.4829,5.4573,5.4221,5.4016,5.3808,0.0,0.0,0.0,4.9813,4.9613,4.9644,4.9851,4.9927,4.9976,5.033,5.0569,5.0651,5.0734,5.0817,5.0922,5.1542,5.2468,5.3577,5.4232,5.5203,5.6391,5.7045,5.7976,5.9219,6.0261,6.1352,6.2543,6.2839,6.1065,5.7567,5.9154,5.8876,5.636,5.638,5.4272,4.9678,4.8727,4.6587,4.317,4.2517,4.1899,4.1174,4.1371,4.1653,4.1954,4.2018,4.2593,4.3799,4.3856,4.3889,4.4032,4.4045,4.4202,4.446,4.6256,4.638,4.4093,4.5712,4.7184,4.7987,4.8562,4.9005,4.9346,4.9419,4.9443,4.9372,4.957,4.9914,5.0377,5.1146,5.1894,5.2649,5.3126,5.3486,5.3952,5.4065,5.4383,5.5461,5.5714,5.623,5.7043,5.5249,5.3559,5.3554,5.3508,5.3345,5.2702,5.2259,5.1739,5.1079,5.095,5.0897,5.088,5.0909,5.1065,5.1402,5.1456,5.148,5.1492,5.1718,5.1946,5.1966,5.2261,5.2664,5.3367,5.3396,5.3185,6.0249,5.964,5.9596,5.8819,5.7583,5.7519,5.633,5.4355,5.3348,5.2827,5.2657,5.2138,5.1982,5.1979,5.1227,5.0883,5.0914,5.0982,5.121,5.1626,5.2019,5.2412,5.2877,5.4181,5.4908,5.518,5.644,5.7379,5.8067,5.9257,6.037,6.1338,6.2625,6.3554,6.4099,6.3781,6.3257,6.2589,6.1622,5.9831,5.7273,5.6428,5.4397,5.114,4.872,4.6636,4.4984,4.4078,4.3494,4.3473,4.4482,4.5088,4.5046,4.5109,4.5068,4.4845,4.4501,4.4628,4.5356,4.541,4.6052,4.7509,4.8313,4.8236,4.7201,4.7994,4.8856,4.9372,5.0199,5.0755,5.0812,5.1091,5.1069,5.0692,5.0667,5.0766,5.1001,5.2747,5.4105,5.4381,5.587,5.6773,5.6794,5.6884,5.6951,5.7268,5.7694,5.7694,5.8233,5.7491,5.6414,5.5415,5.5095,5.4524,5.3784,5.3095,5.3013,5.2837,5.277,5.2652,5.26,5.2657,5.2763,5.2902,5.2984,5.3003,5.3026,5.293,5.3217,5.3375,5.435,5.539,5.5681,5.6899,5.7387,6.2247,6.1287,6.0723,6.0098,5.9389,5.8578,5.7072,5.5372,5.5746,5.4871,5.3243,5.2925,5.3311,5.3999,5.365,5.3871,5.4644,5.4622,5.4752,5.4946,5.5163,5.5379,5.5642,5.6277,5.6976,5.7738,5.8406,5.9356,6.0539,6.1428,6.2205,6.2867,6.376,6.4312,6.4475,6.4249,6.3999,6.3702,6.2196,6.0845,5.9631,5.8721,5.7064,5.4658,5.3086,5.1211,4.8916,4.8392,4.7692,4.6762,4.7499,4.785,4.7545,4.7583,4.7477,4.725,4.7277,4.7331,4.7489,4.7941,4.841,4.8989,5.0151,5.067,5.029,5.0168,5.031,5.0758,5.1459,5.1991,5.2194,5.2145,5.1993,5.1738,5.1701,5.2104,5.3205,5.4397,5.5732,5.677,5.7708,5.8411,5.8703,5.8726,5.9136,5.9771,6.0516,6.1241,6.1731,6.1614,6.0475,5.7955,5.7274,5.7067,5.6331,5.5566,5.5065,5.4784,5.4252,5.3849,5.3631,5.3716,5.4258,5.4936,5.5101,5.545,5.6007,5.6285,5.6285,5.6375,5.7094,5.7911,5.8228,5.9204,5.9655,6.4406,6.3126,6.2373,6.1751,6.1213,5.9672,5.8286,5.7258,5.837,5.7365,5.5031,5.4727,5.5161,5.5998,5.6022,5.6613,5.7514,5.7716,5.7716,5.7761,5.7851,5.7941,5.812,5.8278,5.9085,6.027,6.0572,6.1556,6.3043,6.3482,6.3857,6.4303,6.4683,6.4852,6.4877,6.4726,6.4487,6.4079,6.2744,6.1917,6.1704,6.1059,5.9957,5.8493,5.7596,5.6038,5.3594,5.2904,5.1852,5.035,5.0325,5.0152,4.96,4.9453,4.9446,4.9552,4.9724,4.9749,4.9546,5.0189,5.0514,5.0287,5.1544,5.2439,5.2515,5.1965,5.1698,5.2029,5.2492,5.2927,5.3147,5.2959,5.2839,5.3117,5.3149,5.403,5.5801,5.6846,5.79,5.9471,6.0021,6.0502,6.0752,6.0866,6.135,6.2448,6.3586,6.4408,6.4837,6.4933,6.3413,6.1187,5.9817,5.9336,5.9129,5.8003,5.7111,5.6671,5.607,5.5647,5.5355,5.5447,5.6029,5.7134,5.7477,5.7893,5.8962,5.9147,5.9077,5.9029,5.9669,6.0473,6.1141,6.1531,6.197,6.7367,6.6865,6.6557,6.5566,6.3704,6.2204,6.1191,6.0715,6.0863,6.0551,5.967,5.9316,5.8672,5.8095,5.8051,5.794,5.785,5.8075,5.8323,5.8413,5.8612,5.9038,5.9607,6.0386,6.1344,6.2381,6.3116,6.3963,6.5035,6.5121,6.5377,6.5832,6.5939,6.5936,6.5864,6.5459,6.5212,6.5144,6.4125,6.3214,6.2449,6.2346,6.2022,6.1394,5.968,5.8664,5.8048,5.6235,5.4605,5.36,5.2713,5.1867,5.104,5.0529,5.0464,5.0852,5.0577,5.0475,5.0892,5.1319,5.1792,5.2104,5.2465,5.2891,5.3284,5.3183,5.3051,5.3312,5.3556,5.3769,5.3773,5.3826,5.4414,5.5548,5.5657,5.6436,5.8398,6.0293,6.1625,6.2249,6.3189,6.4334,6.4062,6.4041,6.4269,6.4385,6.4611,6.4886,6.5053,6.5101,6.4841,6.3586,6.2534,6.1166,6.0132,5.9149,5.8808,5.8651,5.8536,5.821,5.8115,5.8497,5.9296,5.9225,5.9772,6.0137,6.0392,6.0342,6.0507,6.0885,6.1717,6.292,6.4541,6.4916,6.4889,6.8444,6.8204,6.7915,6.6773,6.5152,6.4455,6.3592,6.2638,6.3189,6.316,6.2773,6.3084,6.2201,6.0432,6.0089,6.0287,6.0974,6.1162,6.1256,6.1279,6.1748,6.1912,6.1933,6.2853,6.3588,6.3974,6.4328,6.4986,6.5813,6.5869,6.5896,6.609,6.6112,6.6287,6.6538,6.6061,6.5936,6.6284,6.5564,6.5032,6.4605,6.3234,6.2277,6.178,6.1025,6.0212,5.9448,5.8443,5.7389,5.6176,5.4912,5.4045,5.3651,5.2643,5.2143,5.2307,5.2141,5.2101,5.2305,5.3508,5.4346,5.4581,5.5935,5.6939,5.7432,5.7236,5.7171,5.7296,5.6073,5.5518,5.6563,5.6803,5.7206,5.8006,5.8189,5.8972,6.0978,6.188,6.2755,6.3813,6.4499,6.5053,6.5294,6.539,6.5534,6.5702,6.5606,6.5486,6.5751,6.5847,6.5751,6.549,6.4698,6.3742,6.245,6.1326,6.0937,6.0868,6.0109,5.9442,5.9918,5.9982,6.0394,6.1279,6.1716,6.2272,6.308,6.308,6.3126,6.3197,6.3639,6.4868,6.5971,6.6159,6.6039,6.9021,6.8829,6.83,6.744,6.6456,6.6432,6.5781,6.4933,6.5553,6.5634,6.533,6.5744,6.4936,6.3214,6.2325,6.2534,6.3427,6.3518,6.354,6.3564,6.3926,6.4022,6.4021,6.4381,6.4989,6.5439,6.5328,6.5783,6.6597,6.6641,6.6542,6.6589,6.6567,6.6764,6.7138,6.6764,6.6789,6.7116,6.6764,6.655,6.6269,6.4693,6.3476,6.2886,6.2425,6.1784,6.0957,6.0633,5.9853,5.8455,5.7223,5.639,5.5983,5.4979,5.4533,5.4786,5.4861,5.4966,5.5118,5.6449,5.7277,5.7463,5.9012,6.0094,6.0318,6.0139,6.0326,6.0788,5.9118,5.8487,5.9031,5.9329,5.9671,6.0357,6.0518,6.1348,6.3197,6.3544,6.4029,6.5135,6.5369,6.5462,6.5823,6.5919,6.6039,6.6304,6.6135,6.6015,6.64,6.6471,6.64,6.6304,6.5992,6.5536,6.465,6.3522,6.305,6.2892,6.2041,6.1534,6.1669,6.1807,6.2014,6.3452,6.3592,6.3918,6.4661,6.5118,6.5181,6.5368,6.5609,6.5922,6.6352,6.6472,6.6495,6.9358,6.8853,6.8324,6.8108,6.7989,6.7989,6.7965,6.7703,6.7869,6.7893,6.7653,6.6859,6.6378,6.6046,6.4564,6.4003,6.4069,6.4046,6.4069,6.4093,6.4141,6.4646,6.5486,6.4668,6.5205,6.6746,6.6513,6.6768,6.7608,6.7671,6.7719,6.7693,6.7643,6.7693,6.7744,6.7668,6.7719,6.7744,6.7643,6.7498,6.7103,6.6918,6.6281,6.5452,6.4047,6.3423,6.3624,6.2947,6.1829,6.0454,5.9794,5.8896,5.7738,5.7447,5.7713,5.8494,5.9006,5.9474,5.9784,6.0038,6.02,6.0292,6.0596,6.064,6.1034,6.0967,6.1458,6.2504,6.2388,6.1764,6.0924,6.0834,6.1229,6.2365,6.2573,6.3475,6.5238,6.5333,6.5757,6.6208,6.628,6.6326,6.6423,6.6472,6.6423,6.6495,6.6448,6.6448,6.6448,6.6519,6.6304,6.6087,6.6111,6.6232,6.568,6.4877,6.4614,6.4551,6.4303,6.4365,6.4804,6.511,6.5257,6.5428,6.5528,6.5765,6.6235,6.6352,6.6232,6.6256,6.6208,6.6448,6.6495,6.6495,6.6519,7.0325,6.9817,6.931,6.9117,6.9117,6.9117,6.9117,6.9093,6.8757,6.8588,6.8492,6.7819,6.7338,6.6976,6.6063,6.527,6.4646,6.4598,6.4622,6.4646,6.4958,6.5151,6.522,6.5734,6.6385,6.7081,6.731,6.7501,6.7753,6.7819,6.7819,6.7819,6.7819,6.797,6.8173,6.797,6.7945,6.8224,6.7995,6.7881,6.7982,6.7441,6.7208,6.7511,6.5789,6.4765,6.4644,6.4237,6.3821,6.3325,6.2232,6.1391,6.0868,5.9951,5.9602,5.9915,6.0116,6.0296,6.057,6.1366,6.2062,6.2477,6.3316,6.3874,6.4202,6.4038,6.4222,6.4852,6.4777,6.443,6.4317,6.3756,6.3658,6.4425,6.4634,6.4962,6.5878,6.6208,6.628,6.6448,6.6519,6.6612,6.6797,6.6705,6.6519,6.6519,6.6519,6.6519,6.6519,6.6519,6.64,6.6304,6.6352,6.6424,6.628,6.5751,6.5463,6.5655,6.566,6.5567,6.5777,6.5872,6.5996,6.5949,6.64,6.6448,6.6448,6.6448,6.6519,6.6519,6.6519,6.6519,6.6519,6.6519,6.6519,7.0663,7.0156,6.9841,6.9695,6.9695,6.9695,6.9695,6.9622,6.9142,6.8901,6.8781,6.8155,6.7626,6.7265,6.676,6.6135,6.5438,6.527,6.5173,6.5197,6.5534,6.5675,6.5808,6.6541,6.7215,6.7682,6.8132,6.836,6.8327,6.8346,6.8324,6.8346,6.8299,6.85,6.8751,6.8475,6.8525,6.8726,6.8475,6.8525,6.8731,6.8187,6.8091,6.8412,6.7374,6.6275,6.5446,6.512,6.4933,6.4773,6.3928,6.3425,6.331,6.2457,6.2016,6.2154,6.22,6.2246,6.2501,6.3386,6.4083,6.4436,6.532,6.6135,6.6447,6.6159,6.6183,6.6328,6.6231,6.6158,6.6256,6.5801,6.5582,6.5895,6.5967,6.6087,6.6448,6.6495,6.6495,6.6518,6.6658,6.682,6.6889,6.6682,6.6543,6.6519,6.6519,6.6519,6.6519,6.6519,6.6519,6.6519,6.6472,6.6519,6.64,6.6111,6.5943,6.6135,6.6159,6.6232,6.6304,6.6447,6.6519,6.6519,6.6519,6.6519,6.6519,6.6519,6.6519,6.6519,6.6519,6.6519,6.6519,6.6519,6.6519,7.018,6.9816,6.9695,6.9695,6.9695,6.9695,6.9695,6.9622,6.9142,6.8901,6.8781,6.7867,6.741,6.7193,6.6808,6.6496,6.628,6.5895,6.5702,6.5727,6.5796,6.629,6.6973,6.6864,6.7487,6.8604,6.9107,6.9333,6.9255,6.923,6.923,6.9331,6.9255,6.923,6.9381,6.9255,6.9306,6.9306,6.9255,6.9306,6.9381,6.9235,6.9032,6.8794,6.8513,6.7811,6.6526,6.5565,6.5123,6.5006,6.4937,6.4889,6.4871,6.4712,6.5015,6.5239,6.5519,6.5805,6.6142,6.6167,6.6072,6.6191,6.6425,6.6447,6.6471,6.6448,6.6448,6.6472,6.6448,6.6495,6.6495,6.6376,6.6352,6.6472,6.6423,6.6424,6.6495,6.6519,6.6543,6.6635,6.6866,6.6958,6.6681,6.6543,6.6519,6.6519,6.6519,6.6519,6.6519,6.6519,6.6519,6.6519,6.6519,6.6519,6.6519,6.6495,6.6471,6.6471,6.6447,6.6447,6.6423,6.6519,6.6519,6.6519,6.6519,6.6519,6.6519,6.6519,6.6519,6.6519,6.6519,6.6519,6.6519,6.6519,6.6519,7.0908,7.064,6.9985,6.9695,6.9695,6.9695,6.9695,6.9647,6.9117,6.8901,6.8781,6.8155,6.765,6.7337,6.7121,6.6856,6.6496,6.6327,6.6279,6.6301,6.6578,6.6856,6.7231,6.7754,6.8416,6.9087,6.9338,6.9406,6.9406,6.9406,6.9406,6.9406,6.9406,6.9406,6.9406,6.9406,6.9406,6.9406,6.9406,6.9406,6.9406,6.9406,6.9316,6.9157,6.859,6.7964,6.7543,6.6844,6.6359,6.599,6.5991,6.6015,6.5991,6.6014,6.6063,6.6231,6.6256,6.6304,6.6448,6.6519,6.6519,6.6519,6.6519,6.6519,6.6519,6.6519,6.6519,6.6519,6.6519,6.6519,6.6519,6.6519,6.6519,6.6519,6.6519,6.6519,6.6519,6.6566,6.6844,6.7328,6.7075,6.6959,6.7212,6.7052,6.6519,6.6519,6.6519,6.6519,6.6519,6.6519,6.6519,6.6519,6.6519,6.6519,6.6519,6.6519,6.6519,6.6519,6.6519,6.6519,6.6519,6.6519,6.6519,6.6519,6.6519,6.6519,6.6519,6.6519,6.6519,6.6519,6.6519,6.6519,6.6519,6.6519,6.6519,7.1371,7.0616,7.0202,6.9887,6.9719,6.9695,6.9695,6.9622,6.9117,6.8805,6.854,6.8035,6.7626,6.7313,6.7121,6.6952,6.6784,6.6592,6.6612,6.6773,6.7027,6.7373,6.7764,6.8542,6.9112,6.9338,6.9406,6.9406,6.9406,6.9406,6.9406,6.9406,6.9406,6.9406,6.9406,6.9406,6.9406,6.9406,6.9406,6.9406,6.9406,6.9406,6.9406,6.9293,6.8656,6.82,6.8017,6.7488,6.6981,6.6612,6.6519,6.6519,6.6519,6.6495,6.6519,6.6519,6.6495,6.6472,6.6519,6.6519,6.6519,6.6519,6.6519,6.6519,6.6519,6.6519,6.6519,6.6519,6.6519,6.6519,6.6519,6.6705,6.6754,6.6808,6.6592,6.6519,6.6543,6.7006,6.7282,6.7581,6.7304,6.7375,6.735,6.7098,6.6543,6.6519,6.6519,6.6519,6.6519,6.6519,6.6519,6.6519,6.6519,6.6519,6.6519,6.6519,6.6519,6.6519,6.6519,6.6519,6.6519,6.6519,6.6519,6.6519,6.6519,6.6519,6.6519,6.6519,6.6519,6.6519,6.6519,6.6519,6.6519,6.6519,6.6519,7.1663,6.9984,7.0344,7.0248,6.9815,6.9791,6.9743,6.9622,6.9142,6.8661,6.8204,6.7747,6.741,6.7265,6.7025,6.7025,6.7217,6.7046,6.706,6.7359,6.759,6.8029,6.8683,6.9112,6.9338,6.9406,6.9406,6.9406,6.9406,6.9406,6.9406,6.9406,6.9481,6.9431,6.9456,6.9431,6.9582,6.9554,6.9556,6.9604,6.9531,6.9481,6.9481,6.9459,6.8887,6.8409,6.8117,6.7468,6.6935,6.6566,6.6519,6.6519,6.6519,6.6519,6.6519,6.6519,6.6519,6.6519,6.6519,6.6519,6.6519,6.6519,6.6519,6.652,6.6616,6.6664,6.6688,6.6761,6.6737,6.6688,6.6782,6.7107,6.7371,6.738,6.7188,6.6924,6.68,6.7888,6.8289,6.7801,6.7748,6.7911,6.7525,6.7062,6.6758,6.6616,6.664,6.664,6.6519,6.6519,6.6519,6.6519,6.6519,6.6519,6.6519,6.6519,6.6519,6.6519,6.6519,6.6519,6.6519,6.6519,6.6519,6.6519,6.6519,6.6519,6.6519,6.6519,6.6519,6.6519,6.6519,6.6519,6.6519,6.6519,6.6519,7.2688,7.1476,7.1211,7.0753,7.0344,7.0296,7.008,6.9647,6.9142,6.8901,6.8588,6.8131,6.7867,6.7843,6.7723,6.7771,6.7937,6.8123,6.8278,6.8476,6.9236,6.9328,6.9259,6.9338,6.9406,6.9406,6.9406,6.9406,6.9406,6.9406,6.9431,6.9431,6.9853,6.9828,6.9531,7.0207,7.0405,7.0202,7.0455,7.0405,7.0079,7.0051,7.0076,6.996,6.8856,6.8401,6.8417,6.7338,6.6658,6.6543,6.6519,6.6519,6.6519,6.6519,6.6519,6.6519,6.6519,6.6519,6.6496,6.6543,6.6519,6.6519,6.6592,6.6664,6.7073,6.7097,6.7266,6.7554,6.7675,6.7627,6.7721,6.8122,6.8548,6.8878,6.8546,6.8258,6.8268,6.8813,6.9221,6.9012,6.8753,6.8494,6.8259,6.7884,6.7458,6.7193,6.7073,6.6952,6.6736,6.6568,6.6616,6.6543,6.6519,6.6519,6.6519,6.6519,6.6519,6.6519,6.6519,6.652,6.652,6.6544,6.6519,6.6519,6.6519,6.6519,6.6519,6.6519,6.6519,6.6519,6.6519,6.6519,6.6519,6.6519,6.6543,7.3126,7.1789,7.1668,7.1331,7.0874,7.0826,7.0657,7.032,6.9791,6.943,6.9166,6.8685,6.8444,6.8396,6.818,6.8371,6.8778,6.8868,6.9094,6.9599,7.026,7.028,6.9835,6.9579,6.9406,6.9406,6.9406,6.9554,6.9679,6.9554,6.9632,7.0056,7.0227,7.0204,7.0255,7.0681,7.0956,7.0729,7.0956,7.093,7.0654,7.0403,7.0476,7.027,6.9188,6.847,6.8374,6.762,6.7001,6.6664,6.6519,6.6519,6.6519,6.6519,6.6519,6.6519,6.6519,6.6568,6.6785,6.6856,6.6929,6.7121,6.7169,6.7314,6.7578,6.765,6.7819,6.8011,6.8084,6.8084,6.8227,6.8776,6.9391,6.9761,7.0058,6.9866,6.9247,6.9535,6.9732,6.9546,6.9195,6.8818,6.877,6.8392,6.8034,6.7723,6.765,6.7338,6.7001,6.6881,6.6761,6.6713,6.6616,6.6616,6.6616,6.6616,6.6592,6.6568,6.6953,6.6905,6.6737,6.6737,6.6713,6.6688,6.6591,6.6519,6.6567,6.6567,6.6519,6.6519,6.6519,6.6519,6.6519,6.6588,6.6635,7.3272,7.1499,7.198,7.1885,7.1427,7.1379,7.1357,7.1286,7.0754,7.0297,6.9888,6.9334,6.9093,6.8925,6.8636,6.8851,6.9717,6.9471,6.996,7.0493,7.0929,7.0807,7.0556,7.0006,6.9805,6.9755,6.9607,6.9905,7.0179,6.988,7.0131,7.0681,7.0629,7.0704,7.0956,7.1209,7.1257,7.1209,7.1359,7.1359,7.1182,7.0855,7.0809,7.0732,6.9696,6.8663,6.8295,6.7939,6.7627,6.6713,6.6664,6.6761,6.6737,6.6712,6.6713,6.6761,6.6833,6.6977,6.7266,6.7409,6.7554,6.7891,6.7963,6.8132,6.8132,6.8204,6.8276,6.8468,6.8276,6.8492,6.8802,6.9379,7.0046,7.0631,7.1483,7.1172,7.0413,7.0258,7.0305,6.9812,6.9319,6.9036,6.8799,6.8561,6.8276,6.8252,6.8155,6.7915,6.7578,6.741,6.7218,6.7025,6.6905,6.6785,6.6737,6.6736,6.6713,6.6761,6.7434,6.7554,6.7218,6.7121,6.7049,6.7001,6.6977,6.6857,6.6736,6.6688,6.6591,6.6519,6.6519,6.6519,6.6519,6.6704,6.6773,7.3259,7.2484,7.2605,7.2389,7.1956,7.1908,7.1942,7.1902,7.136,7.1097,7.0834,7.0396,6.9887,6.9551,6.9431,6.9721,7.0299,7.0536,7.1252,7.2005,7.134,7.1359,7.1334,7.0983,7.0732,7.0681,7.0706,7.0782,7.0832,7.0757,7.0855,7.1081,7.1359,7.1384,7.1234,7.1912,7.2138,7.1887,7.2113,7.2062,7.1761,7.156,7.1324,7.1077,7.0086,6.9086,6.8298,6.8084,6.7963,6.7819,6.7747,6.7723,6.7675,6.7675,6.7627,6.765,6.7699,6.7771,6.7915,6.7939,6.7987,6.818,6.8252,6.8276,6.8709,6.8733,6.8949,6.9214,6.9358,6.96,7.0176,7.025,7.0849,7.1656,7.1995,7.2048,7.1942,7.1725,7.132,7.0845,7.0296,6.9889,6.9552,6.9383,6.9117,6.8829,6.8636,6.8468,6.8228,6.7939,6.7723,6.7482,6.7434,6.7362,6.7314,6.7242,6.7145,6.7218,6.7819,6.818,6.7843,6.7865,6.7913,6.7697,6.741,6.7266,6.7121,6.6926,6.69,6.671,6.6639,6.6875,6.7064,6.7082,6.7385,7.3641,7.318,7.318,7.2893,7.2536,7.269,7.2796,7.2706,7.2263,7.2196,7.2102,7.1147,7.0492,7.0422,7.0204,7.0301,7.088,7.1575,7.2145,7.2495,7.2087,7.2014,7.2164,7.1962,7.1661,7.1232,7.1081,7.1207,7.1334,7.1284,7.1357,7.1786,7.1912,7.1912,7.1861,7.2415,7.2491,7.2365,7.2541,7.2541,7.229,7.1989,7.1514,7.0954,7.0293,6.9623,6.8949,6.8853,6.8853,6.8853,6.8829,6.8588,6.8204,6.8084,6.8084,6.8084,6.8084,6.8276,6.8372,6.8492,6.8588,6.8829,6.8853,6.8997,6.919,6.9262,6.9527,6.9865,7.0059,7.0349,7.1096,7.1312,7.1719,7.2076,7.2385,7.2456,7.2575,7.229,7.1814,7.1264,7.0662,7.018,6.9889,6.9743,6.9647,6.9238,6.9238,6.9069,6.8709,6.8444,6.8252,6.8059,6.8011,6.7963,6.7915,6.7843,6.7699,6.7867,6.8252,6.8516,6.8444,6.8684,6.8948,6.8538,6.8033,6.7795,6.765,6.7431,6.7427,6.7502,6.7573,6.7641,6.785,6.8181,6.8627,7.3975,7.3467,7.3467,7.3204,7.2921,7.3329,7.3583,7.366,7.3319,7.3327,7.3379,7.1684,7.1221,7.12,7.0762,7.0833,7.1456,7.2123,7.2644,7.2618,7.2591,7.2541,7.2591,7.2491,7.2213,7.1384,7.1483,7.1686,7.1811,7.1661,7.1887,7.2466,7.2288,7.224,7.2591,7.2692,7.2666,7.2641,7.2666,7.2692,7.2616,7.2265,7.1619,7.0818,7.0419,7.0083,6.9648,6.955,6.9622,6.9695,6.9695,6.9214,6.8613,6.8324,6.8348,6.8372,6.8468,6.8685,6.8949,6.9045,6.9214,6.9671,6.9671,6.9647,6.9647,6.9744,6.9962,7.0228,7.0494,7.0759,7.1288,7.1599,7.1933,7.2195,7.2527,7.2669,7.2622,7.229,7.179,7.1264,7.0736,7.0229,6.9913,6.9695,6.9695,6.9695,6.9671,6.9599,6.9238,6.8997,6.8805,6.8757,6.8733,6.8492,6.8444,6.8612,6.8444,6.842,6.8757,6.8973,6.9118,6.9406,6.9551,6.9092,6.8658,6.8538,6.8464,6.8387,6.8387,6.8463,6.8438,6.8383,6.8785,6.9334,6.9732,7.3425,7.2916,7.2916,7.2893,7.2897,7.3404,7.3959,7.4286,7.4263,7.4292,7.417,7.3057,7.2175,7.1883,7.1322,7.1393,7.1936,7.248,7.2717,7.2717,7.2717,7.2717,7.2717,7.2692,7.2541,7.2516,7.234,7.239,7.2466,7.2516,7.2415,7.2618,7.2591,7.2641,7.2666,7.2717,7.2717,7.2717,7.2717,7.2717,7.2666,7.2426,7.1922,7.1019,7.0566,7.0132,6.9816,6.9695,6.9695,6.9695,6.9695,6.9599,6.9382,6.931,6.931,6.9286,6.9262,6.931,6.9454,6.9526,6.9574,6.9671,6.9695,6.9695,6.9792,7.0035,7.0301,7.0591,7.0952,7.1312,7.1814,7.2005,7.2219,7.2431,7.2597,7.2717,7.2622,7.229,7.179,7.1264,7.076,7.0229,6.9938,6.9695,6.9695,6.9695,6.9695,6.9768,6.9672,6.9551,6.9479,6.9479,6.9527,6.919,6.8901,6.919,6.9262,6.8997,6.9214,6.9648,6.9866,7.0131,7.0083,6.991,6.9811,6.9761,6.9638,6.9419,6.9228,6.9183,6.9131,6.915,6.9651,7.0201,7.0381,7.3599,7.3638,7.3638,7.3816,7.4098,7.4358,7.4809,7.5233,7.5035,7.5062,7.4863,7.3947,7.3134,7.2763,7.2271,7.2166,7.2366,7.2575,7.2717,7.2717,7.2717,7.2717,7.2717,7.2717,7.2717,7.2692,7.2692,7.2717,7.2692,7.2692,7.2717,7.2692,7.2717,7.2717,7.2717,7.2717,7.2717,7.2717,7.2717,7.2717,7.2597,7.2289,7.1622,7.1192,7.0494,6.9962,6.9792,6.9695,6.9695,6.9695,6.9695,6.9695,6.9695,6.9719,6.9695,6.9695,6.9695,6.9695,6.9695,6.9695,6.9695,6.9695,6.9719,6.9695,6.9816,7.0107,7.0663,7.1192,7.1671,7.2051,7.2361,7.2338,7.248,7.2622,7.2717,7.2717,7.2598,7.2266,7.179,7.124,7.0711,7.0204,6.9841,6.9695,6.9695,6.9695,6.9695,6.9841,6.9962,7.0059,7.0059,6.9986,6.9962,6.9648,6.9358,6.9479,6.9671,6.9478,6.9624,7.0059,7.0494,7.0736,7.1072,7.1164,7.1064,7.0701,7.0535,7.0221,7.0075,7.0001,7.0287,7.0549,7.0739,7.0997,7.1203,7.4105,7.4417,7.4417,7.4671,7.5128,7.526,7.5509,7.5808,7.5609,7.5658,7.5881,7.469,7.3947,7.362,7.3118,7.2712,7.2693,7.2717,7.2717,7.2717,7.2717,7.2717,7.2717,7.2717,7.2717,7.2717,7.2717,7.2717,7.2717,7.2717,7.2717,7.2717,7.2717,7.2717,7.2717,7.2717,7.2717,7.2717,7.2717,7.2717,7.2455,7.1861,7.1288,7.1144,7.0325,6.9865,6.9719,6.9695,6.9695,6.9695,6.9695,6.9695,6.9719,6.9792,6.9792,6.9719,6.9695,6.9695,6.9695,6.9695,6.9695,6.9695,6.9816,6.9841,7.0059,7.0519,7.1144,7.1956,7.2409,7.2598,7.2622,7.2693,7.2693,7.2693,7.2717,7.2669,7.2527,7.2219,7.1646,7.112,7.0639,7.0204,6.9816,6.9695,6.9695,6.9816,6.9841,7.0059,7.0229,7.0519,7.0543,7.0422,7.0301,7.0011,6.9769,6.9647,6.9719,6.9647,6.989,7.0325,7.0832,7.1288,7.1599,7.179,7.1503,7.114,7.1071,7.0976,7.0707,7.0801,7.1452,7.1691,7.1517,7.1728,7.2057,7.4801,7.4509,7.4509,7.4535,7.4735,7.5161,7.536,7.551,7.5832,7.603,7.6079,7.541,7.4762,7.4156,7.32,7.2771,7.2743,7.2792,7.2767,7.2717,7.2767,7.2767,7.2717,7.2717,7.2717,7.2717,7.2717,7.2717,7.2717,7.2717,7.2717,7.2717,7.2717,7.2717,7.2717,7.2717,7.2717,7.2717,7.2717,7.2717,7.2598,7.2124,7.1599,7.1144,7.0591,7.0035,6.9743,6.9695,6.9695,6.9695,6.9719,6.9719,6.9768,7.0107,7.0011,6.9841,6.9695,6.9695,6.9695,6.9695,6.9695,6.9792,7.0011,7.0253,7.0591,7.1168,7.1862,7.2504,7.2693,7.2717,7.2717,7.2717,7.2717,7.2742,7.2792,7.2742,7.2623,7.2156,7.1629,7.1072,7.0615,7.018,6.9792,6.9743,6.9719,6.9841,7.0035,7.0277,7.0567,7.0928,7.0928,7.0808,7.047,7.0156,6.9889,6.9792,6.9865,6.9768,7.0204,7.0663,7.1192,7.1671,7.1862,7.1957,7.1719,7.1599,7.1552,7.1431,7.124,7.1359,7.1718,7.1862,7.1909,7.229,7.2693,7.5409,7.4961,7.4937,7.531,7.5808,7.5808,7.5958,7.6158,7.6106,7.6104,7.6055,7.5881,7.5406,7.4675,7.3696,7.3242,7.3217,7.3192,7.2993,7.2892,7.2993,7.3018,7.2767,7.2717,7.2717,7.2717,7.2717,7.2717,7.2717,7.2717,7.2717,7.2717,7.2717,7.2717,7.2717,7.2717,7.2717,7.2717,7.2717,7.2717,7.2502,7.198,7.1455,7.1192,7.0422,6.9938,6.9768,6.9695,6.9695,6.9743,6.9913,7.0107,7.0204,7.0519,7.0663,7.018,7.0422,7.0276,6.9791,6.9743,6.9743,6.9816,7.0156,7.0639,7.1192,7.1744,7.2244,7.2669,7.2693,7.2717,7.2742,7.2717,7.2717,7.2767,7.3068,7.2895,7.273,7.2114,7.161,7.11,7.0639,7.0349,7.0156,7.0229,7.0229,7.0253,7.0567,7.0976,7.124,7.1552,7.1407,7.112,7.0711,7.0277,6.9962,6.9768,6.9986,7.0083,7.0639,7.1072,7.1575,7.1981,7.2171,7.2338,7.2314,7.2195,7.2052,7.1743,7.1407,7.1575,7.1813,7.2005,7.2171,7.2385,7.2717,7.5857,7.5485,7.5485,7.5958,7.6657,7.628,7.6305,7.6607,7.6255,7.6104,7.6029,7.5904,7.5578,7.5026,7.4122,7.3619,7.3795,7.3669,7.3368,7.3242,7.3268,7.3192,7.2867,7.2717,7.2717,7.2717,7.2717,7.2717,7.2717,7.2717,7.2717,7.2717,7.2717,7.2717,7.2717,7.2717,7.2717,7.2717,7.2717,7.2717,7.2526,7.1718,7.1335,7.0904,7.0325,6.9695,6.9719,6.9865,6.9913,6.9986,7.0374,7.0615,7.0687,7.088,7.0856,7.0568,7.0762,7.0737,7.0226,6.9984,6.9888,7.0059,7.0519,7.1288,7.1982,7.227,7.2365,7.2718,7.2943,7.2943,7.2917,7.2943,7.3118,7.3319,7.3569,7.3298,7.303,7.2556,7.205,7.1514,7.11,7.0784,7.0687,7.0784,7.0784,7.0736,7.1072,7.1575,7.1838,7.2029,7.179,7.1407,7.0784,7.0349,7.0156,6.9986,7.0132,7.0422,7.0952,7.1431,7.1861,7.217,7.2408,7.2573,7.2669,7.2433,7.2076,7.1814,7.1575,7.1766,7.1956,7.2243,7.2433,7.2622,7.2717,7.6079,7.603,7.603,7.6055,7.6205,7.6129,7.6129,7.623,7.6154,7.6104,7.6054,7.5603,7.5402,7.5026,7.4348,7.3996,7.4323,7.3845,7.3669,7.3594,7.3544,7.3294,7.2968,7.2767,7.2717,7.2717,7.2717,7.2717,7.2717,7.2717,7.2717,7.2717,7.2717,7.2717,7.2717,7.2717,7.2717,7.2717,7.2717,7.2669,7.2385,7.1766,7.1216,7.0928,7.0277,6.9719,6.9743,7.0059,7.0253,7.0277,7.0831,7.1144,7.1192,7.1264,7.1096,7.0931,7.1054,7.1004,7.0612,7.0539,7.0494,7.0689,7.1267,7.2108,7.2631,7.3222,7.3244,7.2844,7.3093,7.3393,7.3468,7.3544,7.3569,7.392,7.4023,7.3952,7.3633,7.3218,7.2685,7.2051,7.1635,7.1389,7.1288,7.1432,7.1336,7.1264,7.1575,7.2076,7.2148,7.2243,7.2005,7.1599,7.088,7.047,7.0349,7.0325,7.0349,7.0711,7.124,7.1646,7.2052,7.2313,7.2597,7.2551,7.2527,7.2314,7.2195,7.21,7.198,7.1956,7.2124,7.2385,7.2527,7.2669,7.2717,7.6104,7.6104,7.6104,7.6104,7.6104,7.6104,7.6104,7.6104,7.6104,7.6104,7.6079,7.5878,7.5753,7.5502,7.505,7.4674,7.4875,7.4725,7.4373,7.4171,7.4021,7.3745,7.3319,7.2867,7.2717,7.2717,7.2717,7.2717,7.2717,7.2717,7.2717,7.2717,7.2717,7.2717,7.2717,7.2717,7.2717,7.2717,7.2669,7.2598,7.2148,7.1622,7.1048,7.0639,7.0132,6.9743,6.9768,7.0156,7.0325,7.0639,7.1264,7.1551,7.1622,7.1647,7.1435,7.1248,7.1468,7.1343,7.1193,7.1316,7.1711,7.2371,7.2782,7.3042,7.3271,7.377,7.3519,7.3269,7.3294,7.372,7.3619,7.3619,7.3745,7.4297,7.4526,7.4529,7.4234,7.3865,7.3397,7.2785,7.2414,7.214,7.2108,7.2099,7.1932,7.1813,7.2195,7.2433,7.2385,7.2195,7.1862,7.1456,7.0736,7.0325,7.0204,7.0325,7.0519,7.1024,7.1552,7.1885,7.229,7.2456,7.2646,7.2551,7.2504,7.248,7.2456,7.2456,7.2409,7.2338,7.236,7.2502,7.2621,7.2693,7.2717,7.5929,7.6079,7.5904,7.5929,7.6104,7.6104,7.6104,7.6104,7.6104,7.6104,7.6104,7.6104,7.5954,7.5728,7.5226,7.5076,7.5051,7.4925,7.4674,7.4474,7.4297,7.3971,7.3394,7.2968,7.2717,7.2717,7.2717,7.2717,7.2717,7.2717,7.2717,7.2717,7.2717,7.2717,7.2717,7.2717,7.2717,7.2717,7.2527,7.2385,7.1957,7.1312,7.0831,7.0446,7.0107,7.001,7.018,7.0591,7.0976,7.1264,7.1671,7.2052,7.2005,7.1864,7.1677,7.1637,7.1663,7.1635,7.173,7.2051,7.2691,7.3204,7.3667,7.3783,7.3976,7.4297,7.4172,7.3545,7.3795,7.4071,7.4046,7.4198,7.4498,7.5075,7.5301,7.5279,7.4907,7.4512,7.4041,7.3523,7.3271,7.3142,7.3139,7.3106,7.2686,7.2467,7.236,7.2456,7.2219,7.1933,7.1455,7.1024,7.0446,7.018,7.001,7.0446,7.0928,7.1456,7.1933,7.2218,7.2526,7.2644,7.2717,7.2646,7.2646,7.2693,7.2669,7.2598,7.2622,7.2669,7.2644,7.2621,7.2644,7.2717,7.2717,7.5578,7.6004,7.5477,7.5578,7.6029,7.6079,7.6104,7.6104,7.6104,7.6104,7.6104,7.6104,7.5828,7.5377,7.4976,7.5001,7.5076,7.4775,7.4499,7.4423,7.4272,7.367,7.3168,7.2792,7.2717,7.2717,7.2717,7.2717,7.2717,7.2717,7.2717,7.2717,7.2717,7.2717,7.2717,7.2717,7.2717,7.2622,7.2243,7.2052,7.1623,7.0952,7.0543,7.0398,7.0325,7.0253,7.0567,7.1216,7.1599,7.1766,7.2194,7.2361,7.2029,7.1551,7.1194,7.0883,7.1176,7.1589,7.2125,7.2593,7.3256,7.3894,7.4433,7.4501,7.4525,7.4775,7.485,7.4122,7.4574,7.4951,7.5076,7.5126,7.5352,7.5627,7.5828,7.5829,7.5431,7.5232,7.476,7.4312,7.4331,7.4324,7.4299,7.4148,7.3621,7.3197,7.2818,7.2529,7.2247,7.1575,7.1072,7.0736,7.0253,7.0059,7.0035,7.0735,7.1288,7.1837,7.2243,7.2479,7.2621,7.2668,7.2717,7.2717,7.2717,7.2717,7.2717,7.2693,7.2717,7.2717,7.2717,7.2668,7.2693,7.2717,7.2717,7.5101,7.4975,7.5126,7.5327,7.5552,7.5929,7.6104,7.6104,7.6104,7.6104,7.6104,7.6104,7.6054,7.5753,7.5527,7.5327,7.5077,7.5101,7.485,7.4348,7.4096,7.3745,7.3268,7.2842,7.2717,7.2717,7.2717,7.2717,7.2717,7.2717,7.2717,7.2717,7.2717,7.2717,7.2717,7.2669,7.2573,7.229,7.2005,7.1695,7.1024,7.0615,7.0398,7.0422,7.0422,7.0639,7.0952,7.1743,7.2029,7.21,7.2479,7.2433,7.1981,7.148,7.1295,7.1322,7.1759,7.2617,7.365,7.4467,7.4714,7.5084,7.5254,7.5226,7.5076,7.5477,7.5201,7.4824,7.5026,7.5227,7.5152,7.5177,7.5377,7.5853,7.6054,7.6029,7.583,7.5805,7.5555,7.5129,7.4951,7.4725,7.4649,7.4774,7.4397,7.3876,7.3478,7.2986,7.2649,7.1437,7.0591,7.0422,7.0132,6.9938,7.0059,7.0783,7.1312,7.1742,7.2194,7.2622,7.2693,7.2717,7.2717,7.2717,7.2717,7.2717,7.2717,7.2717,7.2717,7.2717,7.2717,7.2717,7.2717,7.2717,7.2717,7.4549,7.4423,7.4574,7.4875,7.5252,7.5853,7.6104,7.6104,7.6104,7.6104,7.6104,7.6104,7.5929,7.5828,7.5753,7.5477,7.4951,7.49,7.4649,7.4146,7.3795,7.3468,7.3167,7.2943,7.2742,7.2717,7.2717,7.2717,7.2717,7.2717,7.2717,7.2717,7.2717,7.2717,7.2717,7.2669,7.248,7.2124,7.1814,7.1288,7.0736,7.0398,7.0398,7.0543,7.076,7.1144,7.1503,7.191,7.2243,7.2338,7.2409,7.2385,7.1887,7.1655,7.1467,7.1589,7.2444,7.3429,7.4665,7.541,7.5583,7.588,7.6104,7.5904,7.5628,7.5853,7.5678,7.5377,7.5377,7.5427,7.5502,7.5502,7.5653,7.6104,7.6104,7.6079,7.6079,7.6029,7.5979,7.5578,7.5452,7.5176,7.5025,7.5101,7.5125,7.463,7.4135,7.3617,7.3027,7.1734,7.0665,7.0471,7.0277,7.0107,7.0301,7.0856,7.1312,7.167,7.2146,7.2669,7.2717,7.2717,7.2717,7.2717,7.2717,7.2717,7.2717,7.2717,7.2717,7.2717,7.2717,7.2717,7.2717,7.2717,7.2717,7.3895,7.4223,7.3845,7.4272,7.5177,7.5828,7.6104,7.6104,7.6104,7.6104,7.6104,7.6104,7.5904,7.5402,7.5302,7.5001,7.4574,7.4474,7.4071,7.372,7.3443,7.3142,7.2917,7.2742,7.2717,7.2717,7.2717,7.2717,7.2717,7.2717,7.2717,7.2717,7.2717,7.2717,7.2717,7.2669,7.2385,7.1885,7.1503,7.1024,7.0543,7.0398,7.0543,7.0832,7.1336,7.1743,7.2076,7.2361,7.2575,7.2646,7.2743,7.215,7.1797,7.1782,7.1322,7.154,7.2813,7.4046,7.5133,7.5781,7.598,7.6104,7.6104,7.6054,7.6054,7.6054,7.5903,7.5878,7.5853,7.5954,7.6029,7.6004,7.6004,7.6104,7.6104,7.6104,7.6104,7.6104,7.6104,7.5979,7.5954,7.5828,7.5778,7.5828,7.5602,7.5355,7.4859,7.4389,7.3624,7.2201,7.1297,7.0932,7.0689,7.035,7.0616,7.0976,7.1431,7.1813,7.2241,7.2717,7.2717,7.2717,7.2717,7.2717,7.2717,7.2717,7.2717,7.2717,7.2717,7.2717,7.2717,7.2717,7.2717,7.2717,7.2717,7.3443,7.3269,7.392,7.4348,7.4774,7.5678,7.6104,7.6104,7.6104,7.6104,7.6104,7.6104,7.5954,7.5853,7.5828,7.5226,7.4724,7.4272,7.3721,7.3344,7.3043,7.2867,7.2767,7.2717,7.2717,7.2717,7.2717,7.2767,7.2742,7.2742,7.2742,7.2717,7.2717,7.2717,7.2669,7.2693,7.2146,7.1646,7.1312,7.0904,7.0591,7.0446,7.0784,7.1408,7.1766,7.2171,7.2456,7.2575,7.2717,7.2742,7.3118,7.2816,7.1952,7.2274,7.2397,7.2911,7.3822,7.4714,7.5632,7.6029,7.6104,7.6104,7.6104,7.6104,7.6104,7.6104,7.6104,7.6104,7.6104,7.6104,7.6104,7.6104,7.6104,7.6104,7.6104,7.6104,7.6104,7.6104,7.6104,7.6104,7.6104,7.6104,7.6104,7.6079,7.5854,7.583,7.5583,7.5086,7.4219,7.2814,7.1809,7.1443,7.1005,7.0592,7.064,7.0952,7.1479,7.2005,7.2409,7.2717,7.2717,7.2717,7.2717,7.2717,7.2717,7.2717,7.2717,7.2717,7.2717,7.2717,7.2717,7.2717,7.2717,7.2717,7.2867,7.3018,7.2817,7.3419,7.3972,7.4549,7.5627,7.6104,7.6104,7.6104,7.6104,7.6104,7.6104,7.6104,7.6079,7.6004,7.5477,7.4473,7.4323,7.3821,7.2968,7.2742,7.2717,7.2717,7.2717,7.2717,7.2742,7.2917,7.3142,7.3043,7.3018,7.3018,7.2717,7.2717,7.2575,7.2504,7.248,7.2123,7.1575,7.1144,7.0856,7.0711,7.0639,7.1288,7.1838,7.2124,7.2456,7.2646,7.2693,7.2792,7.2896,7.3374,7.3022,7.2371,7.2667,7.3281,7.3772,7.4466,7.5186,7.5906,7.6079,7.6104,7.6104,7.6104,7.6104,7.6104,7.6104,7.6104,7.6104,7.6104,7.6104,7.6104,7.6104,7.6104,7.6104,7.6104,7.6104,7.6104,7.6104,7.6104,7.6104,7.6104,7.6104,7.6104,7.6104,7.6055,7.5931,7.5708,7.5311,7.4541,7.3402,7.2419,7.1808,7.1297,7.0835,7.0932,7.1145,7.1694,7.2195,7.248,7.2717,7.2717,7.2717,7.2717,7.2717,7.2717,7.2717,7.2717,7.2717,7.2717,7.2717,7.2717,7.2717,7.2717,7.2717,7.2968,7.2717,7.2717,7.2817,7.3595,7.4524,7.5577,7.6004,7.6029,7.5979,7.6054,7.6079,7.6104,7.6104,7.6104,7.6079,7.5527,7.4774,7.4449,7.3896,7.2817,7.2892,7.2867,7.2742,7.2767,7.2917,7.3018,7.3217,7.3468,7.3618,7.3519,7.3242,7.2817,7.2842,7.2774,7.2585,7.2925,7.2616,7.1821,7.1557,7.1339,7.1001,7.1096,7.1503,7.2052,7.2409,7.2693,7.2693,7.2792,7.2968,7.3201,7.3239,7.2931,7.3085,7.2983,7.362,7.4266,7.4937,7.5435,7.5906,7.6104,7.6104,7.6104,7.6104,7.6205,7.6255,7.6154,7.6104,7.6104,7.6104,7.6104,7.6104,7.6104,7.6104,7.6104,7.6104,7.6104,7.6104,7.6104,7.6104,7.6104,7.6104,7.6104,7.6104,7.6104,7.5931,7.5906,7.5683,7.536,7.4539,7.3547,7.2957,7.2173,7.1686,7.1297,7.1369,7.1605,7.2054,7.2408,7.2646,7.2717,7.2717,7.2717,7.2717,7.2717,7.2717,7.2717,7.2717,7.2717,7.2717,7.2717,7.2717,7.2717,7.2717,7.2717,7.3168,7.2717,7.2792,7.3645,7.4398,7.5001,7.5302,7.5402,7.5402,7.5402,7.5653,7.6054,7.6104,7.6104,7.6104,7.6104,7.5627,7.5026,7.4474,7.3972,7.3519,7.3318,7.3143,7.2943,7.3219,7.3343,7.3418,7.3569,7.3895,7.4096,7.392,7.3795,7.3871,7.362,7.325,7.3108,7.3523,7.3311,7.2387,7.2361,7.2138,7.1771,7.1744,7.2052,7.2385,7.2717,7.2742,7.2742,7.2717,7.3043,7.3422,7.349,7.3674,7.4044,7.3666,7.4063,7.4887,7.5236,7.5634,7.5931,7.6104,7.6104,7.6104,7.6179,7.6406,7.6456,7.623,7.6129,7.6129,7.6104,7.6104,7.6104,7.6104,7.6104,7.6104,7.6104,7.6104,7.6104,7.6104,7.6104,7.6104,7.6104,7.6104,7.6104,7.598,7.5832,7.5658,7.5485,7.5062,7.419,7.3344,7.3174,7.2538,7.21,7.1834,7.1831,7.1918,7.2316,7.2479,7.2669,7.2717,7.2717,7.2717,7.2717,7.2717,7.2717,7.2717,7.2717,7.2717,7.2717,7.2717,7.2717,7.2717,7.2717,7.2717,7.3344,7.2717,7.2867,7.3921,7.4423,7.4549,7.5001,7.5077,7.4875,7.485,7.5001,7.5451,7.5828,7.6104,7.6104,7.6104,7.5602,7.4976,7.4549,7.4071,7.372,7.3669,7.3595,7.3595,7.3746,7.3871,7.3971,7.4223,7.4499,7.4649,7.4549,7.4499,7.4423,7.4072,7.3874,7.3779,7.4029,7.4031,7.3198,7.3342,7.3164,7.269,7.2569,7.2441,7.2676,7.2892,7.2917,7.2742,7.2767,7.3219,7.373,7.3968,7.3823,7.4064,7.4011,7.4462,7.5086,7.5534,7.5782,7.6005,7.6104,7.6104,7.6104,7.6129,7.633,7.633,7.6154,7.6355,7.6355,7.6154,7.6129,7.6104,7.6104,7.6104,7.6104,7.6104,7.6104,7.6104,7.6104,7.6104,7.6104,7.6104,7.6104,7.6005,7.5733,7.5534,7.5311,7.5136,7.4439,7.3616,7.317,7.3024,7.2783,7.2322,7.2079,7.1947,7.2153,7.2458,7.2622,7.2693,7.2717,7.2717,7.2717,7.2717,7.2717,7.2717,7.2717,7.2717,7.2717,7.2717,7.2717,7.2717,7.2717,7.2717,7.2717,7.3194,7.2717,7.2867,7.3846,7.4046,7.377,7.4574,7.4725,7.4372,7.4298,7.4348,7.4599,7.5527,7.5929,7.5979,7.6054,7.5301,7.48,7.4725,7.4223,7.392,7.3895,7.3972,7.4198,7.4448,7.4474,7.4674,7.5001,7.5151,7.5302,7.5101,7.4825,7.4599,7.4427,7.4281,7.4086,7.4183,7.4281,7.406,7.4058,7.4075,7.3679,7.3212,7.2931,7.2974,7.3168,7.3268,7.2968,7.2993,7.347,7.4058,7.454,7.4441,7.4338,7.4461,7.4887,7.541,7.5807,7.598,7.6104,7.6104,7.6104,7.6104,7.6104,7.6129,7.6179,7.6255,7.6456,7.6481,7.6255,7.6129,7.6129,7.6104,7.6104,7.6104,7.6104,7.6104,7.6104,7.6104,7.6104,7.6104,7.6104,7.6104,7.5782,7.551,7.5211,7.4962,7.4438,7.3666,7.3046,7.2927,7.2758,7.2617,7.2348,7.2146,7.2232,7.2291,7.2598,7.2646,7.2717,7.2717,7.2717,7.2717,7.2717,7.2717,7.2717,7.2717,7.2717,7.2717,7.2717,7.2717,7.2717,7.2717,7.2717,7.2767,7.2943,7.2717,7.2767,7.3445,7.3669,7.3619,7.3845,7.3845,7.377,7.377,7.3971,7.4423,7.4976,7.5377,7.5402,7.5929,7.5627,7.5051,7.4901,7.4674,7.4347,7.4524,7.4549,7.4674,7.4975,7.5026,7.5252,7.5552,7.5853,7.5703,7.5428,7.5402,7.5627,7.5151,7.4978,7.4928,7.4952,7.4877,7.468,7.4479,7.4398,7.4524,7.3976,7.3197,7.3168,7.3268,7.3418,7.3443,7.3418,7.4072,7.4705,7.5061,7.4962,7.4937,7.4937,7.5311,7.5658,7.6055,7.6079,7.6104,7.6104,7.6104,7.6104,7.6154,7.628,7.628,7.623,7.6431,7.6582,7.6406,7.6154,7.6104,7.6104,7.6104,7.6104,7.6104,7.6104,7.6104,7.6104,7.6104,7.6104,7.6104,7.5881,7.551,7.5161,7.4787,7.4511,7.406,7.3362,7.2942,7.2754,7.2663,7.2544,7.2467,7.2784,7.3074,7.2585,7.2669,7.2693,7.2717,7.2717,7.2717,7.2717,7.2717,7.2717,7.2717,7.2717,7.2717,7.2717,7.2717,7.2717,7.2717,7.2717,7.2717,7.2742,7.2867]}]]